GFSSGP_500_spd_000.txt.gz
Wind_Speed
25 25 25 30 30 24 30 30 26 24 21 20 18 16 16 16 13 16 14 16 18 19 19 19 18 18 19 19 19 19 19 17 17 16 16 16 15 14 14 13 12 11 10 10 10 9 9 9 12
24 24 25 35 21 26 30 29 26 24 23 25 20 14 13 13 14 15 17 17 16 16 17 17 17 17 17 17 16 17 16 15 16 15 14 15 15 14 14 11 10 11 9 9 9 9 9 9 11
23 21 23 22 21 25 30 27 24 21 23 25 23 22 16 13 14 14 16 15 14 16 16 16 16 16 16 15 15 15 14 13 13 14 13 13 15 14 13 10 8 9 9 9 7 8 10 9 10
22 20 27 16 23 30 28 29 25 23 22 25 24 20 17 17 16 15 14 14 14 15 14 13 14 15 15 15 14 13 12 13 12 13 13 12 13 12 12 11 8 7 8 8 7 8 7 9 9
20 24 14 18 24 26 25 25 27 24 21 22 23 20 17 17 17 18 18 15 13 14 13 14 13 14 14 12 11 12 12 11 10 9 9 9 9 8 8 10 8 7 7 7 8 7 8 6 8
19 25 12 14 20 20 22 23 24 22 18 16 20 19 18 18 18 17 20 19 17 18 16 15 14 14 12 11 11 10 10 9 8 8 6 6 5 4 3 4 5 6 6 6 6 7 6 6 6
16 16 14 14 19 17 17 18 19 19 17 13 14 17 15 17 17 18 18 18 17 16 17 15 13 13 13 13 14 13 12 10 8 7 6 5 4 3 3 1 1 1 1 4 6 7 8 7 6
19 19 13 11 10 13 14 14 14 15 14 12 12 14 14 13 13 14 15 14 14 14 14 14 13 11 10 9 9 9 9 10 10 9 8 6 5 4 2 2 4 5 5 4 4 7 8 9 10
16 15 9 10 9 12 13 13 13 14 12 10 11 12 12 12 9 10 11 12 14 13 12 12 11 10 8 8 7 6 5 4 3 3 3 1 1 1 1 2 3 6 8 8 8 8 9 9 11
15 8 8 11 9 9 10 11 12 12 13 10 10 11 11 10 10 7 6 9 8 9 8 9 9 8 8 9 8 6 6 5 3 1 3 4 5 5 6 7 7 7 8 10 11 11 12 13 12
9 5 5 9 7 6 7 10 9 9 10 11 10 11 10 8 6 7 7 6 5 4 3 3 3 4 5 5 1 2 4 4 4 4 2 4 6 7 10 11 12 12 13 14 12 12 13 14 16
4 3 3 7 7 6 9 9 7 8 9 9 12 9 9 10 7 4 3 3 4 2 2 4 5 6 6 6 7 7 7 9 10 10 10 10 11 12 13 13 14 14 14 16 16 14 13 13 14
2 4 5 6 7 8 8 8 9 8 9 8 9 9 7 7 7 6 4 2 2 2 4 4 6 8 8 10 11 14 13 14 14 14 14 14 13 14 16 16 18 17 17 15 17 19 19 18 17
6 6 7 4 7 7 7 7 8 8 7 7 8 8 5 4 3 1 2 1 2 5 7 9 10 12 14 14 14 15 16 17 17 17 17 17 19 20 21 22 24 24 23 20 19 21 22 23 21
11 11 6 2 3 5 7 6 7 8 9 6 7 9 8 7 7 4 1 3 6 8 10 13 14 15 17 17 15 14 15 18 20 20 20 21 23 23 25 25 23 24 26 26 25 25 24 24 26
16 15 12 4 2 3 8 4 3 7 9 7 7 7 9 10 10 8 5 3 1 2 5 6 6 7 9 8 11 11 13 15 17 18 20 22 23 28 27 25 26 25 27 29 28 28 30 28 28
16 11 11 10 4 3 7 3 6 7 8 6 5 5 8 8 7 7 6 6 5 3 3 4 4 6 6 8 10 12 13 14 16 18 19 21 22 26 26 25 26 25 24 29 32 32 31 33 33
14 15 14 10 7 4 4 2 4 7 7 6 2 2 3 4 4 5 7 7 7 6 5 5 7 9 10 11 12 15 17 19 20 22 22 24 25 26 25 25 24 25 26 28 30 31 33 32 35
14 16 12 11 9 9 5 1 3 3 1 4 2 1 0 1 3 7 8 7 7 7 9 8 8 9 11 13 16 19 21 23 24 26 28 26 27 27 27 28 27 27 27 27 31 31 32 33 35
15 17 14 12 9 10 6 4 3 5 3 5 4 2 4 4 4 4 2 1 4 6 6 6 7 10 13 16 18 21 23 25 25 26 27 28 28 27 27 26 26 27 28 28 28 29 29 32 36
17 16 14 11 10 11 10 8 4 5 7 9 8 7 8 6 5 3 2 2 4 8 10 12 13 14 17 19 21 22 23 25 26 26 27 29 31 31 31 30 30 30 30 32 33 34 34 32 34
11 14 14 13 11 13 11 7 8 9 12 16 16 13 11 8 5 5 4 6 6 8 10 13 15 16 18 20 21 21 22 24 25 25 27 29 32 33 34 36 37 37 37 37 37 37 37 38 35
19 16 15 19 16 19 17 15 13 14 17 19 19 16 14 12 10 10 10 10 10 11 12 14 18 20 21 22 21 21 22 24 25 26 28 28 32 33 35 38 40 40 41 40 38 38 37 39 39
17 15 14 15 14 16 15 17 12 20 15 21 19 19 16 16 15 14 15 16 15 15 15 17 20 23 24 24 24 24 25 27 28 28 29 31 33 35 38 42 39 39 41 39 39 39 37 37 38
18 14 7 10 12 11 22 19 13 17 12 11 18 21 21 21 18 17 19 20 20 19 20 21 22 25 26 27 26 26 26 28 29 30 32 33 37 41 44 45 45 44 39 35 34 34 33 35 38
14 12 11 11 12 12 20 16 13 15 18 18 17 20 22 25 24 22 23 25 24 24 24 25 27 28 28 28 28 29 29 30 31 31 33 35 39 41 44 47 44 40 36 34 29 29 30 33 39
14 13 15 14 17 14 13 14 14 15 15 19 20 23 24 26 29 28 27 28 28 27 28 28 30 30 31 31 30 32 32 33 33 33 35 34 39 36 41 42 37 34 35 36 35 35 38 41 38
18 13 10 10 13 12 16 14 12 18 18 19 19 19 23 27 30 30 29 29 30 29 31 30 32 33 32 33 33 35 35 35 35 34 34 36 36 37 39 36 35 35 35 38 40 39 41 40 38
24 22 18 15 15 11 10 10 14 19 19 20 19 19 22 24 26 28 29 30 31 31 33 33 35 36 35 35 35 37 36 36 37 37 36 38 36 37 39 42 39 37 39 38 38 42 41 40 35
21 18 19 12 14 14 16 13 17 15 16 18 21 21 22 25 26 27 28 31 32 32 34 35 36 37 37 36 37 39 39 40 39 39 38 39 39 41 42 40 40 39 40 41 42 43 40 38 37

GFSSGP_500_spd_003.txt.gz
Wind_Speed
22 25 28 31 22 18 20 20 17 14 13 15 13 16 14 11 17 14 14 16 17 16 16 17 17 17 17 18 18 18 17 17 17 15 15 13 12 11 11 10 10 9 8 8 8 8 9 10 11
24 33 35 31 15 16 18 18 20 16 14 15 14 13 12 13 17 14 15 15 15 14 15 16 16 15 15 16 15 15 15 14 14 14 13 13 11 10 11 10 10 10 8 6 7 6 8 10 11
25 24 32 13 16 15 17 16 17 18 18 19 16 15 13 12 14 13 14 14 14 13 13 14 12 12 12 12 12 12 12 12 11 12 13 13 11 9 8 8 8 9 9 7 7 7 8 11 11
27 26 31 14 16 16 19 18 18 16 18 19 20 18 15 12 12 13 13 13 12 12 11 12 11 9 10 10 9 9 9 8 8 9 10 11 10 9 8 7 7 6 7 7 7 6 8 10 11
30 31 9 12 17 15 15 17 15 17 18 21 22 19 14 12 13 12 12 13 9 10 10 10 10 10 10 8 8 7 7 7 7 7 7 8 8 7 7 6 5 4 5 6 6 7 7 9 10
27 17 13 14 13 13 15 16 17 13 17 18 19 20 19 17 16 15 15 14 13 11 11 10 9 9 8 9 8 8 7 7 6 5 5 4 4 4 3 4 3 2 2 3 4 5 4 6 8
31 30 12 10 10 10 13 10 14 13 12 15 17 17 17 17 16 16 17 15 14 14 13 11 10 9 9 8 8 7 6 4 3 3 2 2 2 2 1 0 0 1 1 2 4 3 4 4 3
36 6 14 8 8 6 12 10 12 13 10 12 13 14 13 13 13 13 14 14 14 12 11 10 10 11 11 8 7 8 7 6 4 3 2 1 1 1 1 3 4 5 4 5 4 5 6 7 7
21 24 6 7 6 6 11 8 9 9 9 9 10 11 10 11 10 11 11 10 10 9 8 7 7 6 7 7 5 4 3 1 0 1 1 3 4 4 4 7 7 7 9 7 7 7 8 9 11
11 8 11 8 4 6 8 2 8 10 10 9 9 9 10 11 10 7 8 8 7 6 7 5 3 5 5 6 6 4 3 1 1 4 6 8 8 8 9 11 11 11 12 11 11 11 13 12 14
6 13 8 10 9 6 6 6 7 3 9 8 8 8 9 8 10 8 5 5 5 3 6 6 9 8 6 4 7 8 7 8 8 8 8 10 10 12 13 14 15 15 15 14 15 15 14 16 17
4 10 10 4 15 8 7 5 6 11 6 8 9 8 8 8 7 7 6 4 3 3 4 4 5 5 5 8 10 12 13 13 14 13 13 13 13 14 16 16 17 17 18 16 15 16 17 15 14
8 10 4 7 10 7 4 5 8 8 7 7 7 9 7 7 7 4 2 1 2 2 3 5 7 10 10 11 12 14 13 15 17 17 16 18 17 18 17 20 20 21 20 20 20 18 18 19 19
12 10 7 6 5 5 3 8 6 6 4 5 7 7 7 8 7 6 3 1 1 2 5 8 11 13 16 14 15 15 14 13 15 18 19 20 20 21 23 23 23 25 25 26 25 24 22 22 21
11 10 5 2 4 6 3 4 7 6 6 5 4 4 6 7 7 8 5 2 2 1 2 4 8 12 14 13 12 11 12 14 14 14 16 17 19 21 24 25 26 27 29 29 30 29 29 28 27
10 5 3 1 3 3 11 2 5 4 9 7 4 4 4 5 6 5 4 4 3 1 2 5 6 6 7 7 8 8 10 12 13 15 16 17 18 20 22 23 23 22 23 25 26 29 32 34 33
13 5 12 7 5 14 10 3 5 6 7 6 3 2 2 3 3 3 3 3 4 4 4 5 6 7 8 9 10 12 14 16 17 18 19 19 22 24 23 24 24 23 23 24 26 28 30 29 34
12 16 11 7 10 3 11 4 9 7 4 5 1 0 2 3 4 4 4 4 4 5 6 6 8 9 9 10 13 16 18 19 20 21 22 21 22 23 23 24 24 26 26 26 26 28 30 30 31
12 15 17 13 11 7 8 19 12 9 5 1 1 2 3 6 8 8 8 7 7 8 8 8 9 10 11 13 16 19 21 22 23 23 24 24 24 25 26 26 27 27 29 30 30 30 29 30 32
18 16 15 14 17 11 16 17 9 6 5 5 4 3 5 7 10 9 7 7 7 7 8 9 10 11 13 16 17 19 22 23 24 23 23 23 24 24 26 27 29 29 31 33 35 36 34 32 32
19 16 17 16 17 10 16 10 13 11 9 7 6 5 6 9 8 7 6 6 6 8 9 11 13 14 15 16 18 19 20 22 25 27 26 26 27 28 30 32 32 32 34 34 36 36 38 37 35
15 17 18 17 16 11 15 11 28 19 11 15 12 8 6 7 10 8 8 8 8 9 10 12 14 16 16 17 19 21 21 22 23 26 27 27 28 29 30 32 34 37 40 36 36 38 39 40 38
14 21 17 15 19 14 22 13 30 25 17 20 22 17 12 8 10 13 13 11 10 11 12 13 15 16 18 20 21 22 24 24 25 26 26 27 28 28 29 31 34 36 41 43 41 40 39 38 36
22 25 16 12 15 17 17 17 16 21 23 25 27 21 17 17 14 15 17 16 15 14 15 16 17 19 21 22 23 24 26 27 28 27 28 28 29 29 30 33 32 35 39 41 37 36 32 33 33
15 12 6 7 13 13 18 18 18 20 18 30 26 18 19 19 19 20 20 20 20 19 20 20 20 22 23 24 25 26 27 30 30 31 31 32 32 33 32 33 35 36 37 41 40 37 34 33 29
16 14 11 8 10 11 21 21 22 25 29 28 17 21 18 20 23 25 27 26 25 24 25 24 24 24 24 25 27 28 29 31 31 32 34 35 34 35 35 36 37 39 40 42 43 41 39 36 38
14 19 15 14 16 15 13 15 14 21 20 20 21 21 27 27 27 29 31 30 30 28 28 29 27 27 28 28 28 30 31 34 34 35 36 36 36 37 36 37 39 40 40 42 43 41 40 41 40
19 16 15 14 12 15 11 15 16 23 23 18 18 19 21 27 24 27 30 30 30 29 29 30 30 31 32 32 32 33 33 35 36 37 39 39 38 39 39 41 41 43 44 46 45 46 45 45 45
24 19 18 14 14 15 11 12 14 15 19 16 18 18 19 21 21 23 26 26 26 28 28 31 32 33 35 35 36 36 36 37 38 39 39 40 40 39 39 41 42 44 45 46 46 47 47 45 45
23 20 20 19 18 19 16 15 10 11 11 14 19 24 21 22 22 24 26 27 28 31 32 33 34 36 37 38 39 39 38 38 40 41 42 42 41 40 41 42 43 44 45 47 46 45 44 43 41

GFSSGP_500_spd_006.txt.gz
Wind_Speed
31 31 31 33 30 6 14 19 6 13 12 9 6 4 3 17 19 13 13 14 15 14 13 14 15 15 15 17 17 16 17 15 13 13 12 12 11 10 9 7 6 6 8 8 8 7 7 7 8
30 29 29 33 10 2 11 11 11 13 12 9 8 8 13 12 18 13 14 14 14 13 13 14 14 13 12 13 13 14 13 13 12 11 9 11 9 7 6 5 4 6 7 8 7 6 8 8 9
31 32 31 16 13 6 14 13 13 14 14 14 12 11 12 12 16 13 14 12 14 13 12 12 12 10 9 9 9 9 9 8 8 8 8 8 8 6 6 5 4 4 5 6 5 5 8 9 9
24 33 29 9 8 5 16 11 12 14 16 17 17 13 14 11 10 12 12 13 13 12 11 11 10 7 6 5 7 6 6 6 6 6 6 6 4 4 3 3 2 5 4 4 4 5 7 9 9
20 38 15 10 15 11 10 5 15 12 13 14 15 12 15 11 10 9 10 10 10 10 9 8 8 6 4 3 3 4 3 4 3 3 2 3 2 2 2 2 2 3 4 3 3 2 4 8 9
24 39 17 10 14 14 6 9 10 13 15 16 18 18 16 15 13 12 11 12 10 10 10 8 7 5 3 3 2 3 3 4 4 3 2 2 2 2 1 2 4 4 2 3 2 2 1 5 8
24 27 13 5 7 8 15 6 12 13 14 15 16 18 19 18 16 15 13 14 13 13 11 10 9 9 7 5 5 4 4 4 4 3 4 4 5 6 5 5 3 2 2 4 4 4 4 3 4
26 23 9 16 7 8 13 4 10 13 14 15 15 15 15 16 16 15 15 14 12 12 10 11 12 11 11 10 8 9 7 7 7 7 6 7 8 9 6 5 10 9 6 4 7 8 7 7 7
23 12 2 10 4 9 6 7 3 10 12 12 10 12 11 13 13 13 13 13 11 11 11 10 8 8 8 9 7 6 4 3 3 4 6 8 9 8 12 5 8 14 11 9 8 9 11 10 10
6 7 2 7 5 7 11 4 6 5 9 9 8 8 8 9 10 10 10 9 10 9 9 9 11 11 9 11 12 14 11 7 4 6 8 10 12 11 13 14 10 13 11 12 13 12 12 13 14
5 8 4 3 8 6 4 6 14 13 9 6 6 6 7 7 7 7 8 8 10 12 12 11 10 11 12 8 12 12 13 14 14 14 13 9 12 13 14 15 17 17 18 16 17 14 13 15 15
3 9 12 17 15 18 17 15 6 9 6 8 4 6 5 7 6 7 6 7 7 6 6 7 8 9 10 9 11 12 14 14 13 14 15 16 15 17 16 16 17 18 17 19 18 17 17 17 16
5 12 11 7 7 10 8 6 2 6 6 3 2 3 3 4 5 5 5 4 4 2 2 4 7 9 11 11 11 12 12 12 12 13 15 16 17 18 19 21 22 23 23 20 20 21 20 20 20
13 4 14 12 7 7 2 0 3 4 3 2 1 1 2 3 4 4 3 3 3 3 1 3 6 7 9 10 10 10 10 12 12 12 13 14 15 16 18 20 21 22 21 22 22 22 23 23 24
10 13 14 4 2 9 2 1 2 1 3 4 2 1 1 1 2 4 5 4 2 1 1 1 2 5 6 6 7 8 10 12 14 15 15 15 16 17 18 18 20 19 20 20 21 21 23 23 25
10 9 7 3 8 3 3 3 4 3 3 4 3 4 3 3 4 5 4 4 4 3 2 2 3 5 5 5 7 8 11 14 14 15 17 18 18 18 18 23 22 22 20 19 21 22 24 27 25
16 8 13 8 18 14 1 3 5 6 4 3 5 4 4 5 6 6 5 4 3 4 4 4 6 7 8 7 7 10 13 14 15 17 16 16 18 18 19 20 22 23 23 22 22 21 22 22 26
9 15 20 15 16 18 8 7 12 7 7 2 2 3 3 5 9 9 8 5 3 4 5 5 7 7 8 11 12 13 15 16 17 17 17 18 17 18 17 19 19 22 25 26 27 28 29 28 26
13 13 15 10 13 25 18 17 12 16 11 9 5 1 1 4 6 8 8 5 5 5 7 8 9 10 11 12 14 16 17 18 19 19 19 19 18 18 20 21 22 24 26 27 29 31 31 32 33
14 16 14 14 17 12 20 20 10 10 17 17 10 6 4 2 5 6 6 9 9 8 9 9 10 11 12 13 15 16 18 20 23 23 23 22 21 22 22 23 24 25 27 29 30 32 31 32 35
22 20 16 13 18 22 16 31 18 12 14 19 15 12 7 6 3 6 7 8 9 9 9 11 12 14 15 15 17 17 19 21 21 23 25 24 25 25 24 24 26 28 29 30 33 36 34 32 34
19 20 20 19 19 16 18 14 24 14 24 25 33 17 10 8 6 4 7 9 10 10 10 11 12 14 16 17 20 19 19 21 23 25 26 26 27 27 26 27 27 28 29 31 32 35 37 34 32
21 13 17 20 21 19 18 20 26 24 26 26 20 27 14 10 11 8 9 12 13 13 12 13 14 16 19 20 21 21 21 23 25 27 28 27 27 28 29 31 31 31 33 33 35 36 37 39 35
18 18 19 22 19 22 22 19 30 29 19 20 24 12 12 17 16 18 16 13 16 15 15 16 17 18 20 21 23 24 25 25 27 28 28 29 29 30 28 32 33 33 34 34 36 37 37 41 40
19 17 15 15 16 16 16 23 18 23 14 16 18 25 24 26 23 19 22 19 18 20 21 21 21 21 22 23 24 25 25 27 28 30 31 32 33 33 33 33 35 35 36 36 38 38 39 40 41
25 18 15 10 6 11 14 17 11 18 17 25 11 16 29 25 25 18 21 22 19 24 27 27 27 25 25 25 25 27 29 29 30 31 34 35 36 36 36 36 37 37 37 37 40 40 40 41 42
23 24 18 16 14 13 15 14 16 21 21 28 38 38 34 33 18 24 27 31 23 23 27 29 27 28 27 26 27 28 29 32 34 34 35 36 37 37 38 39 39 38 39 39 42 42 41 42 44
21 11 18 19 19 17 15 19 20 24 25 29 23 28 23 25 34 23 26 31 21 21 26 27 27 27 30 29 29 30 30 32 34 35 36 37 37 38 39 39 38 39 39 41 42 42 42 44 47
23 23 21 15 13 13 13 25 23 23 27 25 26 27 24 24 28 33 22 29 21 19 22 26 29 30 33 33 34 34 35 36 38 36 36 37 36 38 40 40 39 41 41 43 43 44 46 48 48
22 26 20 20 22 23 17 13 15 23 27 28 33 33 28 20 23 28 24 30 25 23 27 27 31 32 34 35 36 35 37 39 39 38 37 37 37 38 40 41 42 42 43 42 44 47 49 50 50

GFSSGP_500_spd_009.txt.gz
Wind_Speed
22 28 21 19 21 17 22 9 8 6 8 13 18 19 15 11 21 17 18 16 18 15 16 17 16 16 14 14 13 12 11 10 8 6 6 4 6 6 7 6 5 3 2 4 5 6 4 5 7
25 23 15 18 15 13 8 9 5 13 10 14 14 19 16 15 26 15 16 16 15 14 15 16 16 14 13 13 12 11 11 9 7 5 7 5 6 5 6 6 4 4 1 1 2 3 3 6 7
22 15 16 21 10 4 11 9 4 6 12 14 18 16 20 16 21 16 15 15 17 14 14 14 14 12 11 9 8 7 6 5 4 4 5 5 4 4 5 6 6 4 0 2 2 1 3 5 7
25 15 15 7 14 4 10 12 11 11 11 15 16 13 17 16 15 14 14 13 15 14 13 13 12 11 10 8 7 7 6 6 5 4 4 4 5 5 5 4 4 5 4 2 2 1 3 3 4
25 22 18 2 5 10 9 9 9 8 7 12 12 11 13 14 13 11 12 12 13 12 12 11 10 10 8 7 7 6 6 7 8 7 6 5 4 5 5 6 6 5 6 5 5 3 2 3 3
27 28 25 11 16 10 6 9 8 9 11 11 14 13 12 14 14 11 12 13 13 13 12 12 11 10 9 9 8 8 10 10 10 8 6 5 6 6 6 5 6 6 7 6 6 6 5 3 5
23 30 28 8 16 12 8 9 8 10 12 11 15 12 11 16 14 13 13 14 15 13 12 12 13 13 12 12 11 12 12 12 11 9 9 9 10 9 8 7 6 7 7 8 8 7 5 6 5
21 13 11 18 13 5 5 11 10 13 13 15 15 15 15 16 16 15 14 12 11 12 12 14 15 14 13 11 10 8 7 8 8 8 8 8 11 9 6 9 7 7 7 6 6 6 6 6 7
23 10 7 14 13 12 4 11 12 10 11 12 11 12 13 15 14 14 15 14 14 14 14 12 12 10 12 10 8 7 5 4 5 8 10 10 11 9 6 6 8 10 8 9 8 6 8 8 8
24 16 9 6 9 7 4 9 13 10 8 9 10 9 11 11 11 13 13 15 15 18 19 19 18 16 14 15 16 15 14 12 10 8 9 9 8 9 12 9 10 12 12 14 12 9 11 13 12
19 18 6 5 6 3 2 9 7 3 6 8 7 7 9 9 8 10 12 13 16 15 14 13 13 13 13 13 13 13 12 10 10 11 12 13 11 10 11 14 13 13 14 14 15 13 11 14 12
15 16 12 19 14 6 11 5 5 1 4 5 5 7 5 7 7 6 9 10 11 10 9 9 9 10 10 10 11 10 10 10 10 11 12 13 16 17 15 14 14 14 15 16 13 15 15 14 15
14 10 11 22 18 7 10 5 4 2 3 4 5 5 5 4 5 5 6 7 8 8 6 7 8 7 9 8 7 8 10 10 9 11 13 14 15 15 16 16 15 16 15 15 15 13 15 15 16
13 7 15 12 15 9 3 3 1 1 2 5 6 4 3 4 5 6 6 5 4 6 5 5 8 7 7 7 8 10 12 13 13 12 12 14 14 15 16 17 19 18 17 15 15 17 16 16 17
8 10 16 11 11 6 5 3 4 2 2 5 8 7 6 7 8 7 6 5 4 5 6 4 6 6 7 7 9 10 11 12 12 12 12 12 13 12 15 17 17 17 17 18 17 17 18 19 19
12 14 11 2 15 20 18 14 4 5 5 4 8 9 9 8 7 7 6 4 4 4 4 4 5 7 6 6 8 10 11 12 14 15 14 14 13 14 14 16 17 17 18 18 19 19 18 19 20
18 9 10 9 8 12 15 16 7 5 4 4 3 6 8 9 8 8 8 4 2 3 3 4 5 5 6 7 8 10 11 12 13 13 13 13 13 13 12 14 15 16 18 19 20 21 22 22 22
19 18 20 19 14 10 13 17 13 8 8 6 4 3 6 6 5 6 7 6 5 5 4 5 5 6 7 7 9 10 11 12 13 14 15 14 13 11 12 14 14 15 18 19 22 24 26 24 23
8 8 14 20 19 13 16 16 16 18 8 5 9 11 4 3 3 3 6 6 5 5 5 6 7 7 9 9 10 11 13 14 15 16 16 17 16 16 15 15 16 18 19 20 21 23 26 28 28
14 20 20 13 18 22 11 16 23 32 5 5 10 12 14 7 1 3 4 4 4 4 4 5 6 6 7 10 13 14 15 16 18 19 20 21 20 19 19 19 19 20 20 22 23 25 26 28 29
23 20 14 17 20 24 13 19 27 17 21 15 13 17 18 12 7 2 2 1 2 4 6 8 8 9 11 12 15 16 15 15 16 18 20 22 23 24 23 23 23 24 25 25 25 26 28 29 31
29 20 26 15 28 18 24 23 22 19 23 18 22 6 10 13 12 10 5 3 5 6 8 10 10 10 11 12 13 15 16 15 17 19 20 21 23 24 25 26 27 28 29 30 30 30 31 31 32
28 27 27 28 19 24 22 25 26 26 25 23 19 18 16 11 16 15 10 7 8 9 11 11 13 13 14 15 17 17 18 20 21 22 24 25 26 26 27 30 31 32 33 33 33 34 35 35 35
22 27 22 32 28 33 35 30 28 31 23 24 30 20 23 18 14 16 17 14 11 13 13 14 15 15 16 18 19 20 21 22 23 23 25 27 27 27 28 30 30 32 33 34 34 35 36 37 38
31 27 24 24 29 17 9 25 25 28 26 26 22 26 26 17 24 20 12 14 13 13 19 20 22 21 21 21 19 20 22 24 27 27 27 28 30 30 30 32 32 32 34 34 35 36 37 39 39
28 29 28 29 14 4 11 17 23 25 28 28 29 27 30 33 34 22 26 20 9 10 16 24 22 22 22 21 22 21 24 25 26 27 29 31 32 32 31 33 32 33 34 35 36 38 39 40 39
21 28 20 19 13 19 19 22 17 21 22 26 26 24 29 27 29 22 28 15 21 11 13 19 27 21 23 22 22 23 24 27 27 28 30 32 31 32 32 32 33 34 36 37 37 38 40 40 41
22 27 25 30 29 22 16 15 22 21 21 24 26 28 27 26 33 30 32 36 20 15 13 19 24 23 23 24 25 25 25 25 27 30 31 30 32 32 33 34 34 36 36 37 38 40 41 39 42
29 34 25 20 27 16 12 24 24 24 29 26 29 24 20 24 22 31 42 15 22 23 11 18 24 29 27 29 29 28 29 26 26 28 30 30 30 31 32 33 36 36 38 39 40 42 42 43 44
30 39 25 21 25 23 24 23 28 24 18 23 29 29 23 20 21 27 31 32 29 28 17 23 29 32 31 29 29 30 30 28 28 29 32 32 31 32 34 36 37 40 41 43 44 44 43 44 44

GFSSGP_500_spd_012.txt.gz
Wind_Speed
22 21 21 18 17 9 5 18 20 19 23 15 14 19 22 20 22 15 18 19 19 16 17 17 16 14 13 13 12 11 9 9 8 5 7 8 9 7 8 9 8 6 5 3 5 5 4 7 7
20 17 16 21 21 15 13 23 13 19 21 20 17 23 20 19 23 15 14 17 18 16 17 18 15 15 12 12 10 9 10 9 7 6 8 9 9 10 11 12 10 8 6 5 6 6 5 6 6
18 18 10 17 16 11 9 16 12 16 16 20 17 22 21 18 20 15 16 17 17 16 14 16 15 14 13 12 9 10 9 9 9 9 11 10 11 11 13 12 12 10 8 6 5 5 4 4 5
18 14 15 18 9 5 9 14 16 14 15 18 21 14 16 18 20 17 15 17 18 16 14 15 14 13 13 12 11 9 10 11 12 12 12 13 14 13 12 11 9 10 10 7 5 4 3 0 2
10 13 18 16 16 12 9 11 10 9 9 13 15 10 13 14 17 15 15 14 16 15 14 15 14 14 14 13 12 11 13 14 15 13 11 11 10 10 10 11 10 9 8 9 9 7 4 3 2
13 13 14 10 20 20 13 13 9 9 10 8 12 8 9 10 14 11 13 14 14 15 13 13 12 12 12 13 12 12 13 13 12 12 11 10 8 8 8 8 7 7 7 6 5 5 5 4 3
12 13 11 22 21 19 12 15 9 8 9 7 13 12 8 12 13 14 14 14 13 13 14 13 14 14 13 12 11 11 12 12 11 11 10 9 9 8 6 6 6 5 4 3 4 5 6 6 4
14 14 9 16 22 17 18 16 15 11 7 9 12 13 10 12 15 17 15 15 14 15 16 15 14 13 12 10 8 7 7 9 8 9 9 8 8 8 1 5 4 4 5 5 4 6 6 6 7
19 11 8 13 15 16 13 12 17 9 8 10 10 13 11 11 12 13 12 11 11 13 14 13 12 12 9 7 5 5 5 6 6 7 7 6 7 6 6 7 7 6 7 8 7 8 10 8 9
15 9 18 12 13 16 13 7 7 8 10 8 8 10 10 12 13 14 16 17 18 19 18 16 16 16 14 13 12 11 10 11 11 10 8 6 6 5 7 6 6 6 7 9 9 7 10 12 11
12 17 6 7 6 18 10 8 12 6 7 7 8 9 9 10 12 15 18 18 19 17 17 17 14 13 12 11 10 10 9 10 10 9 9 8 8 7 6 5 7 8 8 9 10 9 9 11 14
12 8 8 10 14 17 13 19 11 6 6 8 8 9 9 9 9 11 14 15 13 13 14 13 13 11 9 9 10 11 11 11 11 11 10 9 9 10 11 10 9 9 9 10 10 10 12 12 12
10 6 9 15 18 12 8 13 8 7 7 7 8 9 9 9 9 8 9 12 10 10 12 10 9 9 9 9 10 10 10 10 9 10 10 8 7 6 6 7 7 7 8 9 10 10 12 12 13
5 4 10 11 8 7 3 2 5 7 7 5 7 10 11 11 10 9 9 11 10 11 11 10 9 9 9 8 9 10 9 9 9 9 9 8 7 7 10 11 11 11 12 11 11 12 12 12 13
13 15 9 14 10 16 7 8 5 8 7 5 6 7 10 13 11 9 9 10 9 8 8 8 8 8 7 8 7 5 5 6 8 8 8 9 9 11 11 13 14 14 14 14 13 13 14 15 14
19 18 5 13 13 12 9 10 4 4 5 4 3 7 8 9 11 9 7 7 8 5 6 6 5 6 5 4 4 5 6 9 10 10 12 12 9 9 9 10 12 13 14 14 14 15 16 16 16
29 20 12 6 1 6 3 12 8 6 2 4 2 5 7 6 9 9 7 5 5 5 3 4 5 5 5 5 5 7 7 9 10 11 11 12 11 10 11 12 12 13 15 16 16 17 17 18 20
20 15 13 3 13 13 5 6 4 5 14 5 3 1 1 3 5 6 7 7 6 6 6 5 5 5 4 4 6 7 7 8 9 10 11 10 11 11 13 13 14 14 15 17 18 19 21 21 20
19 13 3 5 14 16 10 11 12 5 13 2 5 3 1 3 3 3 4 6 6 6 6 5 3 4 4 5 6 7 7 8 9 10 11 11 12 12 12 12 13 15 16 18 18 20 21 22 21
26 23 17 7 12 20 21 15 9 13 4 4 3 5 5 5 3 2 3 4 4 4 4 3 1 2 2 3 5 7 8 9 10 11 12 13 13 13 14 15 15 16 18 19 21 22 23 25 23
27 26 23 6 14 21 23 23 17 13 12 4 7 9 11 2 6 7 6 5 5 4 2 1 3 4 5 6 7 7 8 9 12 13 15 15 16 17 18 20 20 21 23 23 24 25 25 27 28
31 21 8 14 20 26 23 25 20 17 16 8 12 16 13 11 7 9 8 6 5 5 5 5 6 7 8 9 10 10 11 11 13 14 16 17 17 18 20 22 23 24 25 26 27 28 28 27 29
29 21 16 20 23 23 26 27 19 19 18 10 15 8 6 9 14 12 9 9 8 10 10 12 12 11 12 13 14 15 16 16 17 18 19 19 20 21 23 24 26 27 29 30 31 32 31 29 29
34 24 26 27 27 31 26 23 25 28 19 19 21 15 9 12 7 7 10 14 13 15 16 17 17 16 15 16 17 19 20 19 19 21 23 25 25 25 27 28 28 29 29 30 32 32 32 31 31
41 32 35 36 40 40 29 31 24 29 29 22 24 16 16 13 6 20 20 16 13 16 18 21 22 21 18 17 18 18 20 20 21 24 26 26 26 26 28 28 28 28 29 31 33 35 34 34 35
37 34 37 41 41 37 22 30 16 14 21 19 27 20 17 10 13 17 14 11 13 13 18 25 28 22 17 17 17 19 19 19 22 25 28 29 28 29 29 29 28 27 29 32 36 37 35 35 37
40 42 35 34 25 29 26 21 9 16 19 18 17 19 22 20 15 18 18 14 13 17 19 19 25 28 19 20 20 18 21 20 21 24 28 29 30 30 27 26 27 28 31 34 34 35 36 37 38
33 33 36 35 31 30 26 18 21 16 22 15 18 18 22 22 21 24 19 11 3 5 12 19 25 25 24 24 24 24 25 24 23 24 28 31 30 29 27 26 27 31 35 37 36 38 39 40 40
28 31 30 26 30 35 24 19 21 18 23 17 19 23 24 22 20 17 17 7 14 13 13 20 26 27 29 31 25 31 30 27 27 25 29 31 30 27 26 27 30 34 37 37 38 39 42 42 43
23 34 32 34 32 33 31 28 27 23 24 18 24 16 18 25 31 23 18 16 19 21 20 21 26 29 32 29 27 31 31 31 30 28 28 30 29 28 28 29 32 35 38 39 40 41 43 44 42

GFSSGP_500_spd_015.txt.gz
Wind_Speed
16 20 19 18 23 20 19 18 22 20 11 17 16 18 22 19 19 16 16 18 18 18 15 17 17 15 14 12 12 12 12 11 12 11 16 15 14 13 14 13 10 7 7 8 10 8 7 6 8
11 16 16 19 21 19 18 18 16 17 21 18 17 17 17 18 19 16 14 17 20 19 17 16 16 14 15 14 14 14 14 16 14 14 16 15 12 13 14 14 10 9 9 8 9 8 6 6 7
16 13 16 21 19 19 15 16 16 15 19 21 15 17 18 18 18 16 15 16 19 19 17 15 15 14 15 15 15 16 16 17 15 17 15 14 14 14 14 12 13 14 13 12 10 8 6 5 6
15 17 18 24 12 14 16 17 17 14 11 19 18 13 15 17 20 17 14 16 16 15 14 14 13 15 16 16 18 17 17 16 15 14 12 13 13 14 14 12 12 12 12 11 10 9 7 4 2
14 18 22 21 16 16 16 18 16 9 8 8 15 13 14 14 18 16 14 13 16 15 13 14 13 14 15 15 14 14 15 14 13 12 11 12 12 11 9 9 10 10 9 9 8 9 9 5 2
11 19 24 23 21 18 14 18 15 12 8 6 8 10 8 7 13 12 12 11 11 14 13 13 13 13 14 15 16 16 15 14 12 12 12 10 9 8 7 8 8 8 8 7 8 7 7 5 4
9 14 21 24 27 22 21 18 18 15 11 9 11 11 6 3 7 11 11 10 9 9 9 10 12 13 13 14 14 14 12 10 9 9 8 8 7 5 4 6 5 6 5 5 6 6 6 4 3
7 13 19 22 25 20 23 25 17 13 10 9 8 14 5 4 7 10 9 9 8 10 11 12 13 12 12 11 9 7 7 6 7 7 7 7 9 9 7 5 5 4 5 4 5 7 5 7 7
6 4 17 23 23 15 16 19 17 11 11 6 8 10 7 5 5 9 9 9 9 10 12 12 11 10 8 6 7 7 7 6 6 7 7 7 6 6 6 6 6 6 6 6 6 10 10 8 9
14 12 13 18 22 17 15 19 13 9 11 8 7 7 6 5 5 7 9 10 9 10 12 14 14 13 13 12 11 11 10 9 7 8 8 5 4 5 5 5 7 8 7 6 8 9 10 10 9
14 10 13 13 18 8 7 14 12 10 10 9 6 8 8 8 9 10 15 16 17 17 16 14 13 13 12 12 10 9 8 9 8 8 6 4 4 4 5 6 8 9 11 11 11 11 10 12 10
11 3 7 14 11 9 10 12 8 7 8 9 7 9 9 9 9 11 14 15 14 15 14 12 11 10 10 11 11 10 8 8 8 6 6 6 6 5 6 7 8 8 8 10 10 11 10 11 11
12 4 6 13 7 9 12 14 9 9 8 7 7 8 9 9 9 9 10 11 13 13 12 10 9 8 9 9 10 9 8 7 7 6 5 6 6 6 6 7 7 8 9 9 10 11 12 12 11
10 8 12 16 12 16 15 13 9 10 8 6 6 7 9 10 11 11 9 11 13 11 10 11 9 8 8 7 7 7 6 6 7 7 7 6 7 7 6 7 7 8 9 10 10 11 11 10 12
11 13 14 19 15 14 11 9 6 9 10 7 6 7 9 10 11 11 10 10 9 9 8 8 7 6 5 5 4 5 6 7 8 8 7 7 6 7 6 8 9 9 10 11 11 12 13 15 14
15 19 15 13 12 7 7 9 6 5 8 8 4 5 7 9 9 10 11 9 8 8 8 7 7 6 4 2 1 3 5 6 8 8 7 7 6 7 7 6 9 11 12 14 14 14 15 16 17
16 18 19 12 7 5 6 9 7 10 7 6 5 1 4 6 7 8 8 9 8 8 7 7 7 6 5 2 2 3 3 3 5 6 5 7 6 6 8 8 8 10 12 13 15 15 16 17 17
12 22 22 10 6 6 3 3 7 2 11 1 2 1 4 2 2 5 7 8 8 8 9 9 7 6 4 3 3 3 1 2 3 4 4 6 6 7 8 10 11 13 14 14 16 18 18 19 19
18 20 13 7 4 5 7 6 7 11 5 3 4 3 1 3 4 1 4 5 7 6 6 6 5 4 4 3 1 2 3 3 4 4 4 5 5 6 7 8 10 12 14 17 18 20 21 20 20
25 20 18 12 5 6 7 7 3 7 1 4 4 1 3 6 5 6 3 3 5 6 5 3 3 2 3 4 4 5 5 6 7 7 8 10 10 11 12 14 13 14 15 16 18 20 23 25 24
28 21 18 8 8 15 17 12 2 3 3 2 3 3 6 5 6 7 7 7 5 6 6 5 5 5 5 7 8 9 9 10 10 11 12 14 15 16 16 17 19 20 21 21 21 21 23 25 26
34 24 20 20 17 16 18 18 12 6 9 9 2 3 11 7 4 8 9 10 9 7 7 8 7 7 8 11 13 14 13 13 14 15 15 17 18 20 22 22 22 22 23 24 23 24 24 26 28
32 27 26 21 18 20 23 26 14 17 11 1 4 4 8 5 12 7 9 11 13 12 10 12 12 12 14 15 17 19 19 18 16 19 20 20 21 21 22 23 24 24 24 25 24 24 27 30 31
32 35 33 28 24 30 27 27 21 15 7 5 5 2 3 10 14 5 4 7 12 16 18 17 17 18 19 20 22 23 24 20 20 22 23 22 23 24 24 24 25 26 26 27 27 27 28 31 31
41 40 38 36 36 37 29 32 15 6 6 6 9 10 5 8 7 8 15 14 14 13 16 18 17 16 20 23 20 18 20 20 20 23 25 23 23 25 27 27 28 28 27 26 26 28 30 31 30
46 46 44 41 30 32 36 40 7 13 17 12 9 11 5 0 8 10 7 8 12 13 12 16 20 18 17 17 17 19 20 18 20 23 26 24 25 28 30 30 29 27 25 25 27 31 32 32 32
52 55 45 44 37 39 38 38 23 23 20 19 13 17 6 4 5 9 7 7 18 13 14 14 17 19 22 20 20 24 23 23 24 24 24 28 26 28 31 31 30 28 28 28 30 31 33 33 34
58 55 51 51 45 47 43 41 39 26 22 16 15 15 9 10 10 5 7 6 6 10 6 9 15 20 22 24 25 29 29 25 26 27 26 27 29 30 31 30 29 28 28 30 32 33 35 35 35
60 57 57 51 46 42 33 35 34 31 27 18 15 19 12 16 6 6 8 5 4 1 4 9 14 20 23 26 29 31 30 31 30 30 29 28 30 33 30 29 27 29 31 34 35 36 36 38 40
63 60 53 51 48 44 38 37 26 24 21 17 20 15 12 10 10 12 9 10 9 7 8 9 14 20 23 23 26 28 29 31 33 33 31 28 30 32 30 29 29 30 33 35 38 38 39 39 40

GFSSGP_500_spd_018.txt.gz
Wind_Speed
20 22 22 20 20 17 17 18 18 16 18 18 17 18 21 19 17 17 13 16 19 18 18 18 16 16 15 15 16 14 14 15 15 17 15 16 15 17 16 14 12 12 12 12 11 10 10 10 11
17 19 21 23 22 19 17 17 16 15 17 16 15 17 20 19 20 18 14 15 18 20 19 19 18 17 16 15 15 15 15 16 15 16 16 16 16 16 17 16 15 13 10 9 10 10 9 8 9
20 18 18 22 21 19 18 16 17 17 18 14 12 12 17 18 19 20 17 16 17 19 18 19 18 17 15 15 15 16 16 16 16 16 17 17 17 16 15 15 14 13 12 13 11 10 9 8 7
24 18 19 18 18 20 19 17 15 15 13 16 15 11 11 14 19 18 17 17 17 17 16 18 17 17 17 17 17 17 17 15 13 14 15 15 13 13 13 12 11 12 12 13 13 12 8 6 5
24 18 17 16 17 17 17 18 14 12 11 9 12 11 11 9 15 14 13 12 15 17 15 16 15 15 14 14 14 14 13 11 11 13 13 12 10 10 11 11 10 10 9 10 11 9 9 6 3
25 17 19 24 23 20 18 17 19 14 8 7 8 11 7 3 7 9 9 9 8 12 12 13 13 12 11 12 13 13 12 12 13 12 11 11 10 9 8 8 8 6 5 6 9 8 6 5 4
23 21 22 24 26 23 20 19 18 18 12 6 7 11 7 1 2 5 5 6 7 8 10 10 11 11 12 13 12 11 10 11 11 11 10 9 9 7 5 5 4 4 5 6 7 5 6 4 3
22 23 20 18 20 21 18 19 17 16 14 11 9 10 9 3 2 4 4 4 4 6 8 10 11 11 11 10 9 8 9 8 8 7 7 7 7 6 6 4 5 5 5 3 4 6 6 6 5
14 19 22 20 18 19 19 15 16 16 16 12 12 10 10 4 3 5 6 7 8 11 12 12 11 9 8 8 9 8 9 9 9 9 8 7 7 6 7 8 8 7 6 6 6 7 9 9 7
11 13 13 13 13 13 16 13 13 13 15 11 10 9 8 4 2 2 4 6 8 10 11 12 12 12 12 11 12 11 11 10 9 8 6 5 7 8 8 8 8 9 9 10 9 10 9 9 8
12 12 6 9 9 11 12 12 12 12 14 11 8 8 7 6 5 6 6 8 11 13 13 13 13 12 11 11 11 10 9 9 8 7 6 6 7 8 9 10 11 12 12 12 12 10 10 9 8
11 6 3 8 13 12 12 10 13 12 11 11 7 10 8 7 8 10 11 14 15 15 13 13 12 12 12 11 10 9 8 7 7 6 6 6 6 7 8 9 10 10 11 12 12 11 10 10 10
14 6 6 11 13 14 13 13 12 11 9 9 8 8 10 11 11 11 11 14 15 16 14 12 11 11 11 9 8 8 7 6 6 6 6 7 7 7 7 8 10 11 10 11 12 12 14 13 13
13 9 13 15 17 18 16 15 12 11 8 8 8 7 10 11 12 12 13 13 13 13 12 11 10 9 8 7 6 7 7 7 7 7 7 6 4 5 6 7 8 9 10 10 10 10 11 12 13
14 14 14 19 17 18 16 17 15 11 8 7 6 6 7 10 10 12 13 11 11 11 11 10 9 8 7 5 4 4 7 7 7 6 6 5 6 7 5 5 6 8 8 8 10 11 12 11 12
17 19 14 16 16 15 15 17 16 9 8 6 4 3 4 6 7 7 8 10 9 9 9 9 8 7 6 2 2 3 5 5 7 8 7 8 7 6 6 5 7 7 9 9 10 11 12 13 14
17 17 18 14 12 14 16 13 10 7 5 7 4 2 1 2 3 6 7 7 8 8 8 7 7 5 5 3 2 1 1 3 4 5 6 7 7 7 6 7 8 9 10 11 13 14 14 15 17
16 19 19 15 13 10 9 9 8 1 4 8 4 3 2 1 1 2 4 7 7 7 7 7 7 6 6 5 4 1 1 2 3 4 4 4 5 7 8 9 10 11 12 13 14 15 16 16 17
17 20 18 16 18 13 8 5 4 6 2 6 6 4 3 1 2 2 4 5 6 7 8 7 7 6 5 4 2 2 4 4 4 6 7 7 8 9 10 10 11 13 14 14 16 16 16 16 18
19 24 25 18 15 11 9 6 4 2 3 3 3 6 4 2 5 5 3 4 5 6 7 8 7 6 5 5 6 6 5 5 7 8 9 11 11 13 14 14 15 16 17 17 16 17 18 17 17
21 25 27 17 13 14 11 12 8 2 4 4 2 2 3 2 2 6 7 6 6 7 8 7 7 8 9 8 9 9 8 10 11 12 13 14 15 16 16 18 19 20 20 20 20 20 21 20 20
21 15 26 25 22 16 14 12 10 6 6 6 2 2 6 3 2 4 9 12 10 9 9 10 10 11 11 10 11 12 14 14 15 18 19 19 19 20 19 20 21 21 21 22 21 21 20 20 20
23 16 25 25 22 21 21 22 14 14 12 6 6 3 7 3 7 11 11 15 13 11 11 13 14 13 14 14 15 16 20 22 21 20 21 21 22 24 24 22 21 21 21 21 20 20 20 22 23
26 29 29 32 33 36 22 23 16 15 5 10 6 2 6 9 11 11 8 11 10 9 11 14 18 18 16 17 17 19 21 22 22 20 20 19 23 24 25 22 21 22 21 20 21 22 23 24 26
40 39 42 41 42 43 28 26 9 9 10 7 2 5 10 12 10 7 6 12 18 17 17 13 15 13 12 15 16 14 16 18 20 21 22 21 22 24 25 23 22 24 20 22 23 24 26 26 27
43 40 45 46 43 40 36 28 13 9 12 11 10 10 13 11 9 14 11 13 14 18 16 14 15 11 12 13 14 15 15 16 19 22 21 23 27 26 25 25 25 25 24 23 24 25 26 28 28
51 49 46 48 47 45 43 40 27 17 16 18 18 18 19 14 11 13 13 14 16 17 15 15 16 15 14 17 17 19 20 23 23 24 24 25 26 29 28 28 27 27 27 26 24 27 29 30 31
57 51 51 54 53 52 50 44 30 22 21 21 17 16 19 17 16 16 12 9 9 12 19 16 12 15 17 17 18 20 22 26 26 27 28 27 26 26 27 28 29 28 27 28 27 27 31 33 33
65 63 58 56 56 54 51 48 38 26 26 22 20 22 17 16 13 11 10 7 8 3 4 2 4 7 14 17 18 20 23 26 27 30 30 32 30 27 28 28 30 29 28 28 28 27 30 34 35
64 67 61 61 59 58 54 47 40 25 19 24 28 25 23 14 10 9 7 10 13 12 7 4 9 16 19 20 24 29 28 29 28 33 34 33 32 29 28 31 31 32 30 30 28 28 30 35 37

GFSSGP_500_spd_021.txt.gz
Wind_Speed
16 16 18 17 17 16 22 20 17 19 17 16 17 17 17 18 16 17 14 15 16 15 16 14 16 18 19 19 17 18 17 16 15 16 16 16 16 16 15 14 14 12 14 13 13 12 12 10 10
17 17 16 20 20 18 14 11 13 16 16 16 15 14 19 18 17 18 14 14 15 16 16 15 16 17 17 15 15 14 14 15 15 15 16 16 17 16 16 15 14 13 12 13 12 12 11 9 8
19 16 15 19 17 17 16 18 18 14 14 15 15 13 16 18 17 17 16 15 16 17 16 16 16 15 14 13 12 13 13 15 15 16 17 17 15 15 15 16 16 15 13 12 10 11 10 9 7
18 17 17 17 17 17 18 17 16 14 11 12 13 12 12 13 17 18 16 16 15 15 16 15 13 13 13 14 14 15 15 15 15 14 13 13 13 13 13 13 13 13 13 13 12 9 7 5 6
20 18 19 16 15 14 15 16 14 14 11 10 11 12 13 11 15 14 14 12 12 13 13 13 12 12 13 13 14 13 13 12 11 11 11 11 11 11 11 11 10 10 10 11 10 8 7 4 3
23 21 25 22 18 18 16 15 16 12 9 9 9 13 10 6 8 12 11 10 9 11 11 11 11 10 12 13 13 11 11 12 11 12 12 12 11 10 10 9 8 7 8 8 7 6 5 4 4
21 21 21 23 21 17 18 17 14 17 13 6 7 11 9 4 0 6 8 8 7 7 9 10 11 12 12 12 11 12 13 12 12 12 12 12 12 10 8 7 5 3 4 5 5 5 5 5 4
18 18 19 18 18 18 16 16 16 16 17 12 5 11 11 6 4 7 8 6 4 5 8 12 12 12 10 9 11 11 11 11 10 11 11 12 12 11 10 9 7 5 4 4 6 7 7 7 7
16 17 15 14 15 13 14 14 15 16 17 12 11 7 14 9 6 7 9 9 8 11 11 11 11 10 10 12 12 12 12 12 11 11 11 10 10 10 9 9 8 9 8 7 6 7 7 7 8
11 13 13 9 11 12 12 12 13 14 16 12 11 11 11 8 5 5 8 11 11 11 12 12 13 13 13 14 14 13 12 11 10 8 9 9 10 10 11 11 11 12 12 11 9 7 8 6 7
15 9 9 8 7 12 12 11 11 12 14 13 8 9 9 8 6 6 7 9 12 13 13 14 14 14 13 12 11 11 10 9 8 8 7 8 8 9 10 11 11 12 12 13 12 12 11 8 7
12 7 6 8 10 11 13 13 12 12 13 13 9 8 11 9 9 9 10 12 14 13 14 14 14 13 12 10 8 8 7 7 8 7 7 6 6 7 9 10 10 11 12 13 13 12 13 12 10
10 7 6 11 11 11 13 14 13 12 12 12 9 6 12 13 11 10 11 13 13 13 14 13 14 12 10 9 8 7 7 7 7 7 6 5 6 6 7 9 9 10 10 10 11 12 13 13 13
15 8 9 12 15 14 14 14 14 12 9 10 9 8 10 14 14 13 14 13 13 12 11 11 11 9 8 7 6 6 7 6 5 7 6 5 5 5 4 6 8 9 9 10 10 10 10 10 12
16 14 14 14 17 15 14 16 15 13 9 8 8 9 9 12 14 15 15 14 14 13 12 10 9 7 6 4 4 5 6 5 6 8 7 7 6 5 6 5 5 7 8 10 10 10 11 12 11
19 15 16 17 18 17 14 15 13 12 11 8 6 7 7 8 11 13 13 13 12 11 10 9 8 6 3 1 1 3 4 5 6 9 8 8 8 8 7 7 8 9 10 11 12 12 12 13 14
19 17 20 18 18 17 14 11 12 10 9 9 8 7 5 5 5 6 9 9 9 9 9 9 7 5 4 3 1 1 2 3 5 6 8 8 7 8 10 9 11 11 11 12 11 10 10 11 13
17 17 19 18 18 17 15 10 9 9 9 8 7 6 5 5 3 2 3 5 8 9 10 10 8 8 7 5 3 1 1 2 3 5 6 7 9 9 9 11 11 12 12 12 14 14 15 16 16
20 19 19 21 21 21 18 15 11 8 9 8 8 7 4 3 3 2 1 3 6 8 9 10 10 9 7 6 5 3 4 5 6 8 9 9 10 11 12 12 13 14 15 15 15 15 16 17 18
23 26 23 23 21 20 20 17 14 10 8 7 5 7 6 2 2 3 3 3 6 8 9 10 9 8 8 8 6 5 5 7 7 9 10 11 11 11 12 13 14 16 17 17 16 15 15 15 16
28 24 29 23 23 22 19 17 15 11 13 10 8 5 3 4 6 7 8 7 7 8 9 9 10 10 10 9 9 8 8 10 11 12 12 14 14 14 15 16 17 17 18 18 16 15 15 14 15
24 22 30 31 29 20 22 17 18 16 15 11 8 7 5 7 6 6 7 11 11 11 9 10 11 11 11 10 11 11 12 13 15 16 17 17 17 16 16 17 18 19 19 18 17 16 16 14 14
25 25 26 31 30 30 26 26 20 20 18 16 11 5 3 6 8 8 12 13 14 14 14 14 14 14 13 13 14 15 16 18 19 18 18 18 17 17 17 17 18 19 19 18 16 15 15 14 15
34 29 28 33 38 42 32 29 23 18 13 17 18 8 5 7 8 6 9 12 14 15 15 17 14 13 15 16 15 14 16 17 17 16 17 19 19 19 19 18 19 20 19 18 16 16 16 16 16
44 41 40 38 43 45 33 32 17 16 16 18 19 13 12 14 12 8 5 7 12 16 21 22 16 17 14 12 10 11 15 15 15 15 17 22 23 21 22 19 19 19 20 20 19 19 19 19 19
48 45 47 45 41 35 33 28 16 13 23 23 19 14 18 14 12 11 11 10 11 15 22 28 21 19 14 12 10 13 15 15 16 18 19 21 23 26 26 24 21 21 22 22 21 20 23 23 22
56 54 45 44 43 39 39 30 24 19 23 24 18 17 14 16 14 13 17 14 11 13 16 19 21 15 11 9 11 12 14 17 19 22 22 24 25 25 24 25 26 26 25 23 22 23 25 27 26
60 52 53 52 53 52 48 40 27 25 19 23 25 23 18 19 21 20 20 18 14 10 9 15 19 11 7 6 8 9 12 15 19 22 23 23 28 28 26 26 25 28 27 25 24 25 26 29 29
67 66 63 58 55 52 51 47 32 25 19 22 22 28 25 24 23 24 20 18 17 12 10 7 11 6 5 9 9 13 18 21 22 28 26 42 36 30 30 27 25 31 30 28 28 28 29 26 32
71 68 63 61 59 58 56 52 40 30 26 21 18 32 29 21 22 21 20 16 14 13 12 5 9 3 9 13 15 20 26 28 39 34 31 33 40 35 33 32 26 29 34 36 33 33 32 32 30

GFSSGP_500_spd_024.txt.gz
Wind_Speed
14 15 11 13 14 22 18 14 21 19 15 14 17 17 15 17 16 17 14 15 14 14 12 9 13 14 16 20 18 18 18 18 18 17 16 16 15 15 14 13 12 11 12 14 13 13 12 11 10
14 9 10 17 20 10 11 10 12 12 12 12 12 11 17 18 18 14 13 11 10 11 11 12 14 16 16 17 16 16 16 15 14 15 15 14 14 14 13 14 11 11 11 12 11 12 10 10 8
14 13 13 16 16 10 9 13 14 14 12 11 10 10 12 15 16 15 12 11 10 11 11 12 12 14 13 14 12 12 12 13 13 14 13 13 13 13 14 14 13 12 11 10 10 9 9 9 7
14 17 15 17 13 12 13 14 14 11 11 11 11 11 11 12 14 15 13 13 11 11 11 10 9 9 11 11 11 11 12 12 12 12 12 11 10 11 12 13 12 12 11 10 9 8 7 6 7
17 16 18 13 12 11 12 12 11 12 12 11 8 10 9 8 12 12 13 10 10 10 10 9 9 10 11 11 12 12 11 11 11 10 10 9 9 9 9 9 9 10 9 9 8 7 6 5 3
21 17 12 13 13 12 10 11 11 11 9 9 9 11 10 7 6 9 10 9 8 9 9 9 10 12 13 12 12 12 12 12 12 12 11 10 9 9 7 6 6 6 7 6 6 6 4 4 2
20 20 15 16 14 13 13 11 11 11 8 7 9 12 9 5 3 6 7 7 6 5 8 9 12 14 13 12 13 13 14 14 14 13 13 12 10 8 7 6 4 4 4 5 5 4 3 2 1
17 18 13 14 15 13 12 12 12 14 14 8 7 12 12 8 5 5 7 7 6 6 8 11 13 12 11 12 13 13 13 13 13 14 14 13 13 11 10 9 8 7 5 5 6 7 5 4 3
13 12 5 10 12 12 11 11 13 13 14 12 6 8 15 11 8 8 10 9 9 11 12 11 10 10 12 13 14 13 13 13 13 12 11 11 11 11 11 11 11 9 7 5 5 6 8 6 5
10 11 6 6 7 10 11 11 11 12 12 13 11 9 13 13 10 9 11 13 13 12 11 11 12 14 16 15 14 13 12 11 11 10 10 11 11 12 12 12 12 12 12 12 11 9 7 8 8
10 10 7 5 6 7 9 11 9 9 11 10 10 13 13 12 9 7 8 11 12 12 12 13 15 15 14 13 12 11 10 10 9 9 9 8 9 11 12 12 12 12 13 13 13 13 12 10 10
15 9 9 8 9 7 8 10 9 8 10 11 8 8 13 13 12 12 13 14 14 14 14 14 14 13 11 10 9 9 9 9 8 8 7 7 7 8 10 11 11 10 12 12 12 12 12 12 13
16 11 7 9 10 10 9 9 9 8 8 11 10 7 14 15 14 13 13 15 13 14 14 13 13 11 10 9 8 8 8 9 8 6 6 6 6 7 8 9 9 9 10 10 10 10 11 12 11
16 11 7 9 12 12 12 10 11 10 9 9 12 9 11 15 15 14 14 13 12 12 12 12 11 9 8 8 7 7 7 8 7 7 6 6 6 6 6 8 7 8 8 8 9 9 9 10 10
19 12 9 12 14 14 13 11 10 11 9 10 10 10 9 11 13 14 13 12 11 10 10 10 8 6 5 4 5 6 7 7 7 8 8 8 8 6 4 5 6 5 5 6 9 9 11 11 11
20 15 11 14 17 14 14 11 11 11 12 11 9 9 9 10 10 11 11 12 12 10 9 8 6 4 2 2 2 3 4 5 6 6 6 6 6 6 5 6 5 5 7 9 9 10 12 13 13
20 14 14 17 19 18 15 15 12 12 13 13 11 10 9 11 10 10 10 11 10 10 9 7 6 5 3 1 1 1 2 2 3 4 5 6 7 6 7 7 6 7 9 10 12 13 14 13 14
19 15 17 19 20 18 16 14 13 13 14 13 13 12 10 9 9 9 9 10 11 11 10 10 9 8 5 3 3 3 2 2 0 3 4 5 4 6 7 8 9 9 12 12 14 14 16 15 15
21 18 18 20 22 21 19 16 15 14 13 12 12 13 10 9 8 8 7 8 9 11 12 12 12 9 8 8 7 6 4 4 3 4 6 7 8 7 8 10 12 12 13 14 15 16 16 16 16
28 23 22 23 25 24 21 19 17 15 14 14 10 8 8 7 5 5 5 6 8 10 10 11 11 11 11 10 9 8 7 7 6 7 8 10 12 13 12 12 12 14 14 15 16 17 17 16 16
33 30 26 24 27 27 26 24 20 16 16 15 13 11 11 8 7 7 7 8 9 10 11 12 12 12 11 11 11 10 11 9 9 11 12 14 16 17 16 16 14 14 15 15 15 17 17 14 14
34 29 31 28 31 29 26 20 19 19 19 17 14 12 11 9 9 8 7 10 12 12 12 11 11 11 11 10 12 12 13 13 13 14 16 18 20 19 18 17 16 15 16 16 16 18 17 15 14
32 36 37 30 32 28 29 29 23 25 22 19 17 15 13 11 13 13 13 12 12 14 14 14 13 12 12 13 15 16 16 17 17 18 17 14 15 15 17 17 16 17 16 16 17 17 17 17 17
36 39 42 35 33 38 32 31 25 23 19 21 21 20 17 16 14 14 15 16 15 16 17 15 14 14 14 17 19 19 18 17 16 16 16 15 15 15 17 20 20 20 20 17 16 17 17 17 17
46 42 39 38 39 37 33 40 34 25 20 20 23 20 19 19 18 15 11 9 8 11 15 17 18 16 18 18 19 16 17 15 16 16 17 18 18 21 23 22 23 22 20 21 19 18 18 18 17
50 45 41 40 35 34 39 38 33 27 25 28 30 25 23 22 17 12 14 10 8 9 11 16 19 24 24 19 17 16 17 16 17 18 19 19 22 24 23 25 28 25 24 23 23 21 21 20 20
54 58 45 33 33 34 31 35 36 31 28 30 32 30 23 19 16 14 16 12 9 9 12 16 17 18 18 17 16 17 16 11 11 14 21 15 23 24 26 30 30 25 27 26 26 24 23 22 23
61 51 54 46 42 40 36 32 28 29 29 32 30 27 22 18 17 18 19 17 14 13 12 11 11 14 17 15 14 12 10 8 14 18 14 18 30 29 37 39 34 33 30 29 29 26 25 26 26
65 67 60 46 45 40 36 35 30 32 32 32 25 25 24 25 23 21 20 23 22 15 12 10 11 14 14 11 12 13 13 15 19 18 33 28 29 29 39 47 39 39 37 29 31 32 32 30 28
64 68 67 61 54 47 44 36 26 28 35 33 29 24 26 31 32 27 26 24 23 15 12 13 12 15 15 14 14 15 17 20 22 22 25 29 32 32 35 43 38 31 23 24 22 25 30 30 31

GFSSGP_500_spd_027.txt.gz
Wind_Speed
12 13 15 13 19 13 14 9 11 5 13 12 15 15 15 10 16 4 9 9 13 12 10 9 11 14 16 19 20 18 18 18 17 15 14 11 11 10 10 10 9 9 11 11 11 10 10 10 10
12 11 6 21 17 15 5 10 12 9 9 11 10 8 11 13 13 9 8 3 12 11 11 12 14 17 18 16 17 18 17 16 15 13 11 10 10 9 9 9 9 8 10 10 9 9 8 8 8
11 14 11 13 15 11 7 5 7 8 9 6 9 7 7 9 10 8 7 6 6 8 11 12 13 14 15 15 15 14 14 14 13 12 9 9 9 8 9 9 8 8 8 8 8 6 7 5 6
14 16 13 15 3 5 7 8 8 8 8 7 7 7 6 6 8 8 7 8 8 9 9 10 10 11 12 12 11 12 12 11 10 8 7 7 8 8 8 9 9 9 8 6 6 4 3 4 2
15 16 17 2 4 5 9 9 9 6 8 8 7 6 6 5 6 7 7 8 7 7 8 9 9 9 10 11 11 11 10 9 8 6 6 7 7 7 7 7 7 7 6 6 6 3 1 1 1
24 29 3 1 3 4 6 7 5 7 7 7 7 9 9 7 6 6 7 7 6 5 5 7 7 9 10 12 11 11 10 9 8 7 6 7 7 5 5 6 6 5 5 5 5 4 2 3 1
24 21 3 2 3 3 5 6 7 8 6 6 7 9 10 8 5 5 6 7 6 4 5 6 9 10 11 11 12 13 12 12 11 11 10 9 6 5 4 5 4 4 3 3 3 2 1 1 2
25 22 6 6 3 4 6 8 8 10 10 8 7 9 9 10 8 6 7 7 8 6 5 8 10 10 11 12 14 14 14 14 14 14 13 11 10 9 8 7 6 5 4 4 4 3 2 2 2
20 16 11 7 4 6 6 6 7 8 10 9 7 6 11 13 11 9 9 9 8 9 10 11 9 9 11 12 14 14 14 13 12 12 13 12 11 12 12 10 9 7 6 5 5 6 7 6 5
12 21 2 7 10 8 6 7 6 6 6 8 8 8 12 14 12 11 10 11 13 12 11 11 12 14 15 14 14 13 12 11 10 11 12 12 12 12 12 13 13 12 13 11 12 13 14 13 12
12 14 12 10 8 8 5 7 7 7 6 4 8 10 12 13 12 9 9 12 13 13 13 14 17 16 15 13 12 11 10 10 10 10 10 10 10 10 11 11 12 12 12 11 13 14 14 14 13
9 7 9 8 10 6 6 8 7 7 7 9 5 9 14 14 14 14 13 12 13 14 15 16 15 14 12 12 10 9 9 9 9 8 8 8 8 8 9 10 10 9 10 9 10 10 10 10 11
12 5 8 8 7 7 8 8 7 6 6 8 8 7 13 14 14 14 14 14 14 14 15 14 12 11 11 10 9 9 9 8 7 7 7 6 6 7 7 8 8 8 9 8 8 8 8 8 8
16 14 13 10 10 12 9 7 7 6 5 7 8 10 12 14 16 16 16 14 15 14 13 12 10 9 9 8 8 9 8 7 7 6 5 4 5 5 5 6 5 3 5 6 6 7 7 8 9
19 21 13 9 12 12 11 8 8 7 5 6 9 11 12 13 14 15 15 15 14 12 12 10 8 7 6 5 5 6 7 7 7 7 7 6 4 3 2 3 1 2 4 4 5 7 8 10 11
22 18 10 13 13 15 9 7 7 9 8 9 9 10 12 13 12 12 12 12 11 11 10 8 6 5 4 2 2 2 3 5 6 6 7 5 4 5 3 3 2 4 5 6 8 9 11 12 12
27 15 13 19 16 17 13 11 8 11 10 9 9 9 11 11 11 10 10 10 9 9 8 7 6 5 3 2 2 2 2 2 3 4 5 4 3 3 3 4 6 8 10 10 10 12 12 13 14
19 18 14 19 21 21 17 12 17 12 10 10 10 10 10 9 10 9 9 9 10 10 10 10 8 6 5 5 4 4 3 3 1 0 0 1 0 3 5 6 7 10 12 13 13 14 15 15 16
20 17 20 19 29 21 18 16 15 13 13 13 12 10 10 9 9 9 8 9 10 11 11 11 10 9 8 7 6 6 6 5 4 4 5 5 6 6 8 10 12 14 15 16 17 16 17 18 18
26 23 20 15 29 22 18 17 17 17 15 13 12 12 10 9 9 8 8 10 11 13 12 12 12 11 9 9 9 9 8 8 8 7 8 9 9 11 13 13 13 15 15 16 17 18 18 19 20
30 26 23 22 26 30 20 19 22 22 18 18 16 15 14 13 10 9 9 10 10 10 11 11 9 10 10 10 10 11 10 10 11 11 12 12 14 15 16 16 16 16 18 17 17 17 19 20 19
35 30 26 25 35 22 26 21 27 21 22 20 19 17 15 14 13 12 12 12 11 11 11 11 10 9 9 9 10 12 13 14 15 15 16 17 17 15 15 15 15 16 18 20 20 20 19 19 19
35 29 29 27 34 17 26 25 21 21 21 21 19 19 18 17 16 16 15 13 12 12 13 13 12 12 10 10 12 14 16 18 19 19 18 16 16 16 16 16 16 18 20 22 22 22 22 20 21
35 31 31 31 31 36 28 31 24 30 19 20 19 21 21 20 21 22 21 18 17 17 16 16 15 15 13 13 15 17 19 22 20 18 17 16 16 18 20 23 24 24 23 24 25 25 24 23 22
43 36 37 37 40 40 30 38 27 24 31 20 21 24 25 25 24 23 20 20 18 13 13 16 18 18 17 15 16 18 19 18 16 16 15 15 16 16 21 23 24 28 30 30 26 27 26 24 24
51 47 44 43 36 32 32 38 35 29 23 16 22 18 24 30 26 18 16 16 12 8 9 11 15 19 19 20 20 20 19 16 15 12 9 14 12 15 25 25 23 29 32 29 32 26 26 25 25
49 55 43 38 32 33 31 32 35 35 36 34 30 24 24 32 26 18 17 15 15 11 11 12 12 16 19 20 21 19 17 14 7 6 12 5 7 14 20 23 28 36 43 39 33 29 27 26 24
53 43 48 49 45 41 36 34 33 35 39 33 34 28 23 27 27 19 17 17 15 13 14 12 11 12 16 17 16 18 15 10 8 10 9 10 18 16 25 24 27 32 34 32 34 35 29 27 27
52 58 49 46 48 44 39 34 31 29 27 29 31 29 20 21 25 26 25 22 19 16 13 12 13 14 15 18 18 15 13 12 15 16 16 18 20 20 23 28 25 22 21 24 18 26 26 26 30
41 47 50 52 51 50 44 37 31 30 30 25 23 21 21 17 21 25 28 25 25 20 17 16 16 14 15 19 18 14 14 17 19 21 22 18 21 26 27 30 27 18 25 22 28 25 25 30 33

GFSSGP_500_spd_030.txt.gz
Wind_Speed
11 17 16 8 19 14 5 10 5 6 5 2 10 7 6 12 5 10 9 13 13 13 13 14 17 18 17 17 18 17 16 14 14 12 11 9 8 8 8 8 10 11 11 10 10 9 10 10 12
13 8 7 11 24 12 4 2 4 7 4 5 8 4 1 3 4 6 7 10 13 15 15 17 16 16 16 17 15 15 15 12 12 11 11 10 8 8 8 8 9 9 9 8 9 7 8 8 8
15 8 12 22 24 14 7 2 3 3 3 4 1 3 2 1 1 7 5 9 13 13 15 14 14 15 15 15 14 14 13 12 12 12 12 10 9 11 10 9 10 9 7 6 6 6 5 5 5
22 18 16 26 11 11 3 2 1 1 2 1 1 5 3 2 4 7 8 11 13 14 13 13 13 13 13 13 13 13 12 11 11 11 11 10 9 10 10 10 10 9 7 6 5 3 3 3 3
13 7 27 12 9 8 1 1 2 4 4 3 3 5 5 5 5 7 10 11 10 12 12 11 11 10 11 11 12 12 10 10 9 9 8 8 8 8 8 8 8 8 8 7 6 4 2 2 2
2 15 17 4 5 7 1 2 4 7 6 4 4 4 8 6 8 7 9 10 9 9 9 9 9 8 11 12 12 11 11 10 10 8 7 7 6 6 7 7 6 6 5 4 4 3 3 3 3
16 22 19 17 16 4 3 5 5 8 7 2 2 5 6 10 7 6 6 8 6 5 6 6 7 8 11 11 13 13 13 13 13 12 10 7 6 6 6 5 4 4 3 2 2 3 3 5 5
9 10 20 9 10 11 5 6 6 14 7 4 5 4 3 5 8 7 5 5 4 4 4 6 8 9 12 13 13 14 15 16 15 14 12 10 8 8 6 6 6 5 6 5 5 4 4 5 8
6 10 18 13 16 16 11 4 8 7 7 7 10 8 7 8 8 6 6 6 6 6 7 8 8 11 12 13 14 14 14 14 14 13 13 11 10 10 10 13 12 12 12 12 11 11 6 7 7
18 20 15 17 5 19 11 9 5 6 6 10 8 8 5 8 8 7 6 8 9 9 10 8 10 12 14 14 14 13 12 12 12 12 12 11 12 12 12 13 13 9 14 15 9 13 9 5 9
15 14 9 17 11 22 10 9 7 5 6 7 5 7 6 7 10 12 9 10 10 11 12 13 14 15 14 13 12 11 11 10 10 10 10 10 11 12 11 11 11 5 4 13 8 8 15 15 16
20 1 8 9 13 17 7 5 7 5 8 7 5 4 8 10 11 11 12 12 12 14 15 16 14 14 13 12 11 10 10 9 8 8 7 8 9 9 9 10 10 8 10 6 10 11 11 10 9
19 7 7 13 7 8 14 9 4 9 7 7 7 7 9 12 11 11 12 13 16 17 17 15 14 13 12 11 10 9 8 7 7 6 6 6 6 6 6 6 7 7 5 6 11 7 7 8 8
9 17 6 18 9 7 13 16 5 6 7 6 4 6 10 11 12 13 14 16 17 18 16 14 13 12 11 10 9 8 7 5 5 4 4 5 4 4 2 2 5 5 6 6 7 7 7 7 8
14 9 13 22 10 12 12 18 11 4 5 4 3 6 9 11 13 15 15 17 17 15 14 13 11 10 8 8 7 5 5 5 5 4 5 5 4 2 1 1 4 6 7 6 8 9 10 10 9
19 15 19 13 9 15 8 21 10 5 5 4 4 6 9 11 13 14 15 15 14 14 13 12 10 8 5 4 4 4 3 4 4 3 3 4 3 3 2 3 4 5 7 8 10 11 13 13 13
19 19 17 25 12 15 13 21 13 11 7 5 6 8 10 11 12 13 14 13 12 12 11 9 8 5 3 1 2 1 1 2 3 3 3 2 3 3 3 5 7 10 10 11 11 12 13 14 16
16 20 18 23 21 15 23 18 24 14 9 7 8 10 10 9 9 10 11 10 10 9 8 7 6 5 3 2 1 1 1 2 2 0 1 2 3 4 6 8 10 12 13 14 14 16 16 15 16
18 17 10 30 27 14 21 24 19 3 4 9 10 10 10 9 8 7 7 9 9 8 8 8 7 6 6 5 4 4 3 3 3 3 4 4 6 7 8 10 13 13 16 15 16 16 17 16 17
24 24 22 29 32 15 16 23 19 16 13 12 12 11 10 9 9 8 8 8 8 8 8 8 8 9 8 8 7 6 6 6 6 6 7 8 9 11 13 14 14 16 16 16 18 20 19 18 20
30 31 23 29 25 16 14 13 16 23 19 16 15 14 14 14 12 11 10 9 9 8 9 9 9 9 8 9 7 6 7 8 9 9 9 10 13 15 15 15 16 16 17 19 20 22 23 21 22
30 31 25 20 27 26 25 22 22 22 22 16 17 16 15 14 13 13 12 12 12 11 10 10 9 10 10 8 8 8 9 11 11 12 13 14 15 14 13 13 14 17 19 21 22 24 25 24 23
29 33 26 24 23 25 36 31 23 31 31 29 18 19 20 19 17 16 16 16 16 14 13 13 12 11 11 11 12 11 11 12 14 15 15 13 12 11 12 14 16 18 18 18 20 26 27 27 25
30 31 33 30 27 35 34 35 22 30 32 31 31 17 19 19 19 18 19 19 18 16 15 14 15 15 14 14 14 13 11 12 14 12 11 10 9 9 11 16 21 23 23 26 29 34 32 29 27
37 34 35 37 39 38 24 38 27 24 34 30 39 23 17 19 20 19 20 19 18 19 19 19 17 16 16 16 16 15 11 12 11 9 9 5 8 6 12 19 22 24 25 30 37 38 34 32 31
42 40 44 40 39 35 31 39 42 31 33 33 21 21 21 24 20 21 18 19 17 15 10 10 10 11 13 17 19 17 15 14 9 8 3 8 8 7 12 16 20 22 27 26 30 31 31 26 32
39 47 41 38 33 34 31 31 33 33 29 39 14 25 33 37 24 20 23 18 18 15 11 11 8 9 12 17 19 20 18 13 7 4 4 5 3 12 15 18 21 24 22 22 27 29 34 30 29
43 35 44 48 46 46 37 37 34 31 34 31 28 25 30 23 21 29 24 18 19 15 15 12 11 9 10 11 13 14 14 10 6 6 8 11 13 10 16 19 20 24 21 21 26 23 33 32 25
40 46 47 40 50 49 44 41 27 34 32 32 39 43 25 30 30 35 30 17 20 18 14 13 11 11 11 12 12 14 13 9 7 9 13 12 12 14 14 16 20 21 21 29 27 29 30 31 30
40 41 46 54 50 51 47 45 23 31 29 37 36 28 33 33 23 28 32 26 20 17 13 13 15 16 12 11 10 10 10 9 10 12 11 8 11 17 21 21 23 25 23 24 25 30 32 30 30

GFSSGP_500_spd_033.txt.gz
Wind_Speed
12 7 20 9 17 15 13 9 4 3 2 2 6 4 5 7 12 17 15 17 16 15 16 17 17 16 15 15 14 13 13 13 13 12 10 10 11 10 9 10 11 10 10 10 10 11 12 12 12
11 13 12 14 15 13 7 6 9 5 6 6 2 5 5 10 10 12 11 13 14 17 17 17 17 16 15 15 13 14 14 13 12 11 11 11 11 9 10 10 10 11 10 9 8 9 10 9 10
11 3 12 13 24 10 9 7 4 3 3 3 2 5 7 8 8 13 12 13 16 15 16 16 15 14 14 14 14 14 13 13 12 12 12 12 12 13 12 11 11 10 9 7 7 8 7 7 7
9 7 16 9 21 16 10 5 4 3 4 4 4 3 7 7 12 13 14 15 15 15 15 14 14 14 15 14 15 14 12 12 11 10 11 12 11 11 11 12 11 10 8 7 6 5 5 4 3
6 7 15 12 22 17 7 5 5 6 8 2 3 5 8 9 12 12 14 12 14 13 12 12 13 14 12 13 14 13 12 9 9 10 11 10 9 10 10 9 8 8 8 9 8 7 4 3 3
9 7 6 15 17 16 9 6 5 8 8 5 3 3 6 10 13 11 12 12 10 10 10 10 11 12 13 14 14 14 12 10 11 11 9 9 7 8 7 7 7 6 6 6 5 4 4 3 3
5 6 13 15 10 8 15 12 10 1 3 0 1 3 2 8 11 10 8 9 7 7 8 10 11 12 14 15 15 15 15 14 14 12 11 10 9 9 8 8 7 6 6 6 4 4 4 5 7
19 10 23 16 8 8 16 14 14 11 4 6 5 5 3 2 8 8 7 4 4 5 8 11 12 14 15 16 17 17 16 15 15 14 14 13 11 11 9 9 10 9 8 7 9 6 4 7 6
22 26 16 15 12 10 15 14 14 16 5 5 4 6 6 4 6 4 5 4 5 9 11 12 15 15 15 16 16 16 15 15 15 14 14 13 12 14 12 14 15 14 14 12 12 11 12 10 10
10 10 16 20 10 3 18 15 13 13 11 6 8 3 4 2 6 6 8 9 9 13 13 13 15 15 15 14 13 12 14 13 14 14 14 13 12 13 10 14 15 14 14 13 13 13 12 8 9
7 17 13 12 7 12 22 23 14 12 10 6 9 4 5 6 6 7 7 9 12 13 15 15 15 16 14 13 11 11 12 11 11 11 11 11 11 12 4 13 11 15 8 9 12 10 9 11 10
7 6 5 11 13 15 26 13 10 10 8 6 6 7 1 5 5 8 8 10 12 15 17 16 15 15 13 11 11 11 11 10 7 8 9 9 9 10 8 10 12 11 10 11 7 10 12 11 8
9 11 8 9 11 9 21 21 14 17 15 8 6 9 3 9 8 8 9 11 17 18 17 16 15 14 12 12 10 10 9 7 6 6 6 6 7 7 7 8 9 9 7 8 9 12 13 12 15
12 3 10 5 5 11 18 12 14 16 11 9 7 8 5 7 11 11 11 14 18 18 17 15 15 12 12 11 9 7 6 6 6 4 6 4 3 5 4 7 7 7 8 8 10 10 10 12 14
14 10 8 4 17 19 12 13 21 15 7 3 5 2 6 7 6 10 15 17 19 17 16 14 13 13 12 10 8 8 6 6 6 6 6 4 5 3 5 6 8 9 11 11 10 10 10 10 10
16 15 11 17 16 21 11 21 13 16 8 1 2 2 6 9 9 11 15 15 15 16 16 13 11 11 10 8 8 8 7 6 6 5 4 4 5 5 4 4 6 9 11 12 12 12 13 12 11
21 16 14 15 27 21 26 19 13 17 19 3 4 5 7 11 12 11 14 15 14 14 13 10 7 7 7 7 5 6 6 5 5 5 4 3 3 3 3 5 6 7 10 12 13 13 13 14 14
23 20 17 17 14 25 22 13 17 20 18 6 5 7 8 10 11 11 12 12 12 11 10 9 8 4 3 4 3 4 4 4 4 2 1 3 4 5 6 9 11 13 13 13 14 15 15 15 14
24 26 19 17 28 27 21 23 17 14 11 8 8 6 8 10 12 12 11 10 9 8 8 7 6 6 4 3 3 3 4 3 3 1 1 4 6 7 8 9 12 12 14 14 15 16 19 20 18
27 25 17 24 35 29 21 22 12 7 10 15 10 7 8 9 9 10 11 10 9 8 7 7 7 7 6 6 4 3 4 4 3 2 4 6 7 9 10 11 12 12 14 15 16 18 20 23 22
29 25 23 29 32 34 27 16 11 14 9 19 9 6 6 9 11 11 10 9 8 7 7 7 7 7 8 8 6 5 6 5 5 4 6 8 9 10 8 7 8 11 14 15 17 19 19 22 27
28 23 26 28 20 25 20 13 14 18 11 7 8 4 7 9 8 8 9 8 6 6 6 8 8 9 8 8 8 7 6 6 6 6 9 10 11 8 7 7 8 11 14 17 19 22 21 24 23
18 31 30 27 22 29 25 37 32 24 29 18 16 10 11 12 12 10 10 10 9 10 11 11 10 11 10 10 9 9 8 6 7 7 7 6 6 5 6 5 11 13 17 19 24 27 32 32 25
26 32 38 33 24 37 28 32 27 27 28 30 24 17 18 14 14 12 10 11 11 11 12 13 13 11 13 13 12 11 9 7 8 5 3 4 3 5 3 7 12 17 20 22 24 25 30 29 19
35 36 43 44 41 44 34 34 25 14 29 32 29 29 25 22 17 15 13 9 13 12 13 18 21 18 16 15 14 13 11 11 8 2 2 0 1 4 6 10 14 17 20 20 21 27 32 31 28
31 41 46 51 49 42 35 38 31 13 21 24 27 38 29 32 18 18 12 10 13 13 11 10 12 11 13 16 15 15 13 14 11 5 2 1 0 3 9 11 16 18 20 18 18 27 26 32 33
33 40 38 46 48 46 45 40 23 21 30 28 34 28 32 30 29 21 13 8 9 12 11 11 8 6 7 8 12 14 16 15 11 6 7 1 6 8 10 12 14 17 18 21 21 24 25 28 31
39 32 35 46 50 52 45 44 31 24 30 30 34 33 36 37 26 23 16 13 7 13 15 13 7 8 7 5 5 8 10 9 10 10 9 4 6 11 9 13 14 15 18 20 20 24 29 30 28
39 41 45 39 46 48 47 48 35 30 27 34 36 32 32 25 28 15 17 28 17 14 17 14 8 8 8 6 2 4 4 7 9 9 7 9 7 8 11 13 14 15 18 21 25 29 33 33 31
42 40 42 48 46 49 52 48 35 30 35 37 31 30 35 38 30 14 26 26 15 17 15 15 12 9 10 9 4 4 4 7 9 8 10 10 9 6 9 13 14 16 19 27 31 31 32 32 29

GFSSGP_500_spd_039.txt.gz
Wind_Speed
11 6 9 9 7 7 4 4 6 8 14 17 15 14 13 13 14 13 13 16 16 16 14 12 10 10 10 10 9 10 11 11 12 14 14 13 14 14 12 11 12 12 11 10 8 7 9 9 8
7 13 11 5 15 9 9 10 8 10 13 12 12 11 12 12 13 11 14 15 16 18 16 11 10 10 11 10 10 10 11 12 14 15 13 14 14 12 11 10 10 10 9 8 6 6 7 8 8
14 13 14 16 17 16 13 8 7 9 9 8 7 8 7 11 12 14 16 15 14 15 16 13 12 12 12 10 10 10 12 13 15 14 14 14 12 11 10 9 8 9 8 7 7 6 5 5 6
6 7 9 13 17 17 12 7 7 10 10 6 5 9 7 8 17 17 15 15 12 13 13 12 12 12 11 10 10 11 12 13 13 13 12 12 11 11 10 10 9 8 7 7 6 4 4 5 6
7 11 16 17 21 17 10 10 9 9 7 7 4 10 10 11 17 18 16 14 13 13 12 11 12 12 12 11 11 11 12 12 12 12 12 10 10 9 8 8 8 7 8 8 7 8 8 9 7
7 5 11 16 19 15 13 5 7 7 7 6 7 12 10 11 15 16 14 12 10 15 12 12 13 14 13 12 11 11 12 12 12 12 11 10 9 8 7 6 6 7 8 7 7 8 9 9 10
1 13 9 20 16 12 15 11 4 5 7 5 4 11 13 8 10 15 12 10 9 14 14 15 15 14 13 12 12 13 14 14 14 14 13 12 12 12 11 10 9 11 10 9 10 13 14 15 14
9 8 8 18 16 16 15 13 11 13 8 5 5 3 9 11 9 8 7 7 8 13 15 16 15 15 15 14 14 16 16 16 16 17 17 16 16 16 15 15 15 16 15 16 16 15 16 17 16
1 9 9 15 17 17 16 16 14 11 5 5 7 6 4 11 9 7 6 6 7 13 16 17 17 17 17 15 15 17 15 16 16 17 16 16 17 16 17 17 17 16 16 17 18 17 16 15 16
12 9 10 8 14 20 22 17 13 10 7 4 5 2 7 8 11 10 9 10 12 15 16 17 18 18 17 15 14 16 15 16 15 15 15 15 16 17 15 13 14 15 14 13 13 14 14 15 16
4 8 10 3 13 13 20 20 15 16 10 7 6 3 5 7 9 8 9 13 17 18 19 17 16 15 15 14 12 14 15 14 14 14 14 14 14 12 11 14 14 13 12 13 13 14 13 15 14
5 4 16 13 11 11 16 19 17 13 9 9 5 4 2 6 9 8 10 12 17 19 18 17 15 14 13 12 12 12 13 13 12 12 12 13 13 13 12 11 13 12 12 11 12 12 13 14 15
11 14 6 9 3 14 14 15 14 14 12 11 9 4 2 5 7 7 11 16 20 20 19 17 15 12 12 12 12 12 12 12 10 10 10 9 11 11 10 9 10 11 11 10 10 12 13 11 10
21 18 15 11 8 9 17 18 14 14 14 15 10 6 7 7 8 8 11 18 22 21 19 16 13 12 11 11 12 12 13 12 9 9 8 8 9 9 7 9 10 9 10 10 11 10 12 14 14
18 13 12 12 10 5 9 19 15 15 14 15 11 8 6 8 8 10 16 22 22 22 19 15 13 13 11 11 12 12 13 12 10 10 9 8 8 8 5 7 8 9 10 11 11 11 11 10 10
15 13 13 8 8 11 5 5 11 15 15 13 8 5 1 8 10 11 19 23 21 20 18 14 13 12 12 12 12 12 12 12 11 11 11 10 10 6 4 5 6 8 8 9 9 9 9 8 9
18 14 21 18 13 9 9 6 8 15 14 9 3 6 2 4 9 14 20 22 20 18 15 13 13 12 12 11 11 10 9 11 9 9 9 6 7 5 5 6 8 9 9 8 8 9 7 7 8
16 14 21 18 15 11 8 3 4 6 7 4 4 6 5 6 13 17 18 18 17 14 11 10 11 12 11 10 10 10 8 7 6 6 5 3 4 3 3 4 7 10 10 11 13 15 17 18 16
23 21 20 19 19 16 13 7 1 5 6 7 5 7 8 9 12 14 17 16 14 12 11 9 8 9 10 11 10 10 10 10 7 4 2 1 1 2 4 7 7 7 11 14 16 17 18 20 21
23 23 23 24 20 19 17 10 7 4 6 6 6 7 7 8 9 13 13 10 11 12 11 10 9 8 8 8 9 10 10 9 7 5 4 3 4 4 7 7 7 8 10 12 13 16 18 18 23
25 24 24 22 26 24 23 23 12 3 12 10 10 10 6 7 10 10 12 13 15 13 10 10 10 8 6 7 8 9 9 8 7 6 6 7 7 8 8 6 6 6 8 14 15 15 17 22 21
26 23 30 29 33 33 28 26 21 13 10 13 16 14 9 7 8 9 11 12 13 14 13 9 7 6 7 7 8 8 7 8 8 7 7 10 10 10 7 5 3 6 10 13 12 14 19 18 18
21 31 35 34 38 40 38 33 18 18 20 14 17 17 14 12 10 11 12 14 14 11 10 9 7 6 5 6 6 7 7 8 8 9 10 13 12 9 7 4 3 7 11 12 11 14 14 18 20
22 32 38 44 43 51 40 38 26 18 15 16 9 10 14 12 13 12 11 11 13 16 13 10 9 10 9 9 8 9 9 9 10 10 10 12 9 7 5 3 4 8 11 11 11 12 13 18 19
29 38 43 48 53 47 37 40 21 21 20 16 13 9 15 12 7 5 9 16 15 15 14 12 12 12 13 13 12 12 13 13 13 13 10 10 9 7 8 4 6 10 10 9 7 7 11 17 18
28 38 45 46 49 42 39 37 12 23 21 23 15 16 16 16 15 11 6 13 16 17 15 14 14 15 17 19 18 16 15 14 15 16 13 11 10 9 8 5 6 9 6 3 9 11 12 16 19
29 41 34 42 47 45 44 32 31 29 31 34 24 21 19 12 11 4 7 7 15 16 15 13 14 14 14 19 21 17 17 16 17 20 16 13 12 13 9 7 6 5 3 3 8 11 16 17 19
41 31 39 45 46 46 37 29 29 30 30 33 28 24 19 16 14 5 10 11 13 17 14 8 11 14 13 15 16 17 19 21 23 23 20 16 19 14 11 11 9 6 2 3 9 12 13 16 20
43 44 42 41 42 43 41 27 25 25 28 31 27 25 21 20 14 7 10 14 13 18 15 13 15 16 13 13 13 13 12 17 23 24 22 19 22 16 14 13 13 10 5 4 7 11 12 16 19
46 46 46 50 45 38 37 35 28 30 28 33 34 34 29 25 21 17 18 13 16 19 18 19 19 19 16 15 14 11 11 10 14 19 21 20 23 18 16 16 16 12 11 8 9 11 12 13 16

GFSSGP_500_spd_042.txt.gz
Wind_Speed
4 1 10 9 4 3 7 8 10 13 14 15 14 13 14 15 17 14 16 17 16 16 14 10 10 10 11 12 13 13 12 12 12 11 10 11 14 16 16 14 13 14 14 12 12 12 13 11 10
2 10 5 10 8 8 10 11 12 11 11 13 14 15 12 13 15 15 16 15 16 16 14 11 9 11 13 13 13 12 12 12 12 12 13 14 15 16 17 15 14 12 11 9 9 8 8 8 8
5 10 10 11 11 11 12 12 11 9 8 10 9 9 8 9 15 14 16 15 14 15 14 10 10 12 13 13 12 12 13 13 14 14 15 15 16 16 16 14 13 11 9 8 7 7 7 6 7
5 3 9 13 13 15 11 10 10 9 10 9 8 9 8 8 14 15 15 14 10 12 13 11 12 13 13 13 13 12 13 14 14 14 15 15 14 16 15 15 12 12 11 9 9 7 8 8 8
2 6 11 15 12 12 13 9 8 10 9 10 6 10 11 10 15 15 14 12 11 10 12 12 12 13 14 13 12 13 14 14 13 15 13 13 13 13 13 12 12 13 11 9 8 9 8 9 8
5 6 14 17 12 9 9 9 8 6 8 8 9 11 13 11 11 11 11 9 8 12 12 11 13 15 14 12 13 14 14 13 14 13 11 12 12 12 11 10 11 11 11 11 12 11 11 12 13
3 13 4 12 8 7 10 11 5 5 9 8 6 10 15 12 8 10 8 6 8 10 14 14 16 15 14 14 15 15 15 15 15 14 13 14 15 14 15 14 15 16 17 18 19 17 15 15 15
8 4 16 14 11 11 10 12 10 10 8 9 12 7 8 15 9 7 5 4 7 10 15 17 17 16 16 15 16 17 18 18 17 16 17 17 18 19 19 20 21 19 16 16 17 15 15 16 15
3 18 24 14 15 14 10 9 10 10 8 8 9 8 8 11 11 7 5 4 7 11 15 17 18 17 17 16 16 17 18 18 17 16 18 19 19 20 20 19 18 17 17 16 15 16 15 16 15
9 19 18 15 16 18 15 11 7 12 9 7 5 7 10 9 10 10 8 8 11 13 16 17 19 18 18 17 17 16 17 17 16 16 18 19 18 16 18 16 16 17 15 15 14 14 14 14 14
14 13 12 16 15 13 15 13 11 13 9 6 4 4 6 7 8 9 6 10 16 16 17 17 18 17 17 17 16 17 17 16 15 16 16 15 15 16 16 15 16 15 15 14 13 13 12 12 14
10 11 12 19 14 17 15 16 14 13 12 10 7 3 4 7 9 10 7 8 15 17 17 16 16 15 15 16 16 16 15 16 15 15 15 15 14 14 13 12 12 12 12 11 11 11 10 10 10
11 8 15 14 15 15 13 16 18 16 15 15 11 4 5 8 7 9 11 15 19 19 17 16 15 13 13 15 14 14 14 14 14 14 14 12 11 12 11 11 10 10 10 10 9 8 8 8 7
18 13 13 13 15 16 15 10 14 15 13 16 13 6 5 10 8 10 10 13 19 18 18 16 14 13 14 15 13 13 12 12 11 11 12 11 9 10 10 10 9 8 8 9 7 7 7 7 5
21 16 10 7 11 18 15 11 9 13 11 15 11 10 7 9 10 12 16 20 20 20 18 15 14 14 15 15 14 13 11 12 12 11 10 10 9 10 10 9 8 8 9 8 7 7 6 7 7
21 14 11 13 10 13 11 9 7 6 12 9 11 9 7 6 9 13 17 23 21 20 17 13 13 13 15 15 14 13 12 11 10 9 10 10 9 9 9 6 5 7 8 9 10 9 10 10 9
25 16 13 17 12 13 6 8 8 4 9 11 9 7 7 6 11 13 21 22 21 18 15 13 13 14 15 16 15 14 12 11 11 11 9 7 7 5 4 3 5 8 10 11 13 13 13 13 12
20 17 18 14 16 12 9 14 9 4 6 14 10 7 7 9 13 20 22 22 20 16 11 11 13 15 16 15 14 13 13 11 10 8 8 6 4 2 2 4 7 9 11 12 12 13 14 15 19
23 23 21 16 17 10 11 7 13 11 9 13 10 8 7 10 12 18 21 20 19 14 9 9 11 12 13 15 14 11 9 9 8 6 4 3 2 1 3 6 8 7 8 9 10 12 15 17 21
26 28 23 19 18 16 16 14 14 10 13 13 15 10 9 10 11 13 15 16 15 15 10 8 9 10 11 10 11 11 10 8 7 5 4 4 3 3 5 5 6 5 6 10 13 14 16 20 18
26 24 26 23 26 26 25 18 16 10 14 15 18 18 15 12 15 16 17 15 16 14 11 10 8 7 8 8 9 10 11 10 9 8 8 7 5 6 7 4 2 3 8 13 13 14 15 15 15
25 23 27 29 31 29 26 25 24 17 17 15 18 21 20 17 14 16 16 17 16 16 15 13 9 7 6 6 8 10 11 11 10 10 9 8 7 8 7 3 2 2 8 12 12 12 13 15 16
20 28 26 30 33 34 32 29 22 23 22 18 17 22 22 19 16 16 16 15 14 12 10 12 12 11 10 10 10 10 11 12 12 11 9 8 8 8 5 4 4 4 8 11 13 14 10 15 15
22 31 34 35 37 43 32 26 25 21 10 26 23 22 24 23 20 16 15 17 15 17 15 12 10 10 11 12 14 14 13 12 14 12 7 8 8 7 4 5 5 5 7 12 12 9 9 12 11
26 33 40 45 47 34 31 34 17 16 19 23 25 23 19 19 19 16 11 10 14 15 16 14 12 13 15 15 16 17 16 13 15 13 10 8 8 6 7 9 8 6 6 7 3 5 8 11 12
26 32 38 36 29 24 39 30 11 19 22 22 20 22 23 23 17 15 12 10 12 14 14 14 13 16 17 18 19 18 16 14 15 14 12 10 10 8 12 11 10 6 6 3 3 7 9 11 12
31 39 28 39 42 35 35 21 22 22 27 30 27 27 28 23 16 15 14 11 11 13 14 14 15 17 19 21 23 21 19 17 17 19 16 14 12 12 15 13 12 8 6 5 4 7 10 9 12
40 32 38 43 42 38 29 25 18 20 27 27 26 22 26 24 23 18 16 17 9 12 18 16 13 7 13 17 18 21 21 21 21 22 19 18 17 15 17 16 13 10 10 5 4 8 10 11 12
42 43 43 39 40 38 34 24 17 12 22 32 26 28 29 28 25 19 14 15 14 16 20 21 19 12 11 14 17 19 20 22 24 25 24 21 21 18 20 19 14 14 13 10 8 10 11 11 11
44 42 44 46 41 34 34 27 20 15 19 28 30 36 31 31 30 27 24 21 21 22 24 21 20 20 16 17 20 19 19 15 14 18 23 25 23 21 22 21 17 17 16 17 13 12 14 17 17

GFSSGP_500_spd_045.txt.gz
Wind_Speed
3 5 9 6 3 3 11 11 16 14 12 15 15 16 14 15 17 12 17 16 17 14 13 11 11 10 12 14 15 14 13 15 14 14 14 14 14 14 16 15 15 15 14 13 11 11 10 9 10
4 7 7 10 9 6 12 12 13 13 15 17 17 15 14 12 14 16 15 17 12 13 11 11 10 13 13 12 14 13 14 14 14 14 14 15 16 16 16 15 14 13 12 10 10 10 10 10 7
10 10 7 12 10 5 12 14 14 13 12 13 14 11 10 11 14 16 17 15 11 12 12 10 11 13 12 13 13 14 14 14 14 14 14 16 16 16 16 15 13 11 10 8 9 9 8 7 6
9 8 7 11 10 8 10 10 11 11 10 8 8 8 9 10 13 16 15 14 11 10 11 11 11 13 13 14 14 14 15 14 15 15 15 16 17 17 17 15 13 12 10 10 9 9 8 7 6
5 4 6 9 10 8 9 8 10 10 10 11 10 9 11 11 10 16 14 12 11 9 11 11 12 15 15 15 15 14 15 15 15 15 15 14 15 16 15 14 12 11 10 9 9 9 10 11 11
9 7 7 9 6 8 7 8 9 9 11 10 11 12 12 12 13 11 10 9 9 10 12 13 15 15 15 16 15 15 14 14 14 14 15 15 13 14 13 12 12 13 14 15 14 14 12 12 14
4 7 14 14 9 5 8 10 8 10 12 13 10 11 14 15 10 10 7 6 8 9 15 17 17 16 15 17 16 16 16 16 17 17 16 17 17 17 16 17 18 18 18 17 16 15 13 13 15
4 8 14 11 11 11 11 10 10 11 11 14 16 11 14 15 12 7 6 5 8 10 15 18 18 17 17 18 17 17 18 18 18 18 19 19 19 21 21 20 17 18 19 16 15 15 13 14 15
8 14 17 12 12 12 10 9 12 12 12 12 14 14 13 12 13 8 6 7 9 12 15 17 18 18 19 19 18 18 20 20 19 20 21 20 21 20 18 18 18 16 17 16 14 14 14 14 15
15 16 15 14 14 14 11 7 7 11 15 13 11 11 13 12 12 11 6 6 12 15 16 17 18 19 18 18 17 18 19 19 19 20 20 19 19 18 16 16 16 14 15 13 13 13 12 11 12
21 14 15 13 11 14 13 12 11 13 14 12 12 11 13 15 11 9 7 5 15 17 18 18 18 18 18 18 18 19 19 18 18 20 18 16 17 15 16 15 13 13 12 11 12 11 11 10 9
24 17 12 15 13 13 14 16 13 10 12 12 11 12 14 15 13 12 10 10 16 18 18 18 17 17 17 17 18 19 18 18 18 18 16 16 16 15 13 13 11 10 10 9 8 7 7 8 8
22 20 17 18 12 10 9 14 15 13 12 12 11 12 13 13 11 11 13 15 18 19 18 17 16 16 15 16 17 18 17 17 16 16 15 15 13 13 12 11 10 10 7 5 6 5 5 5 5
21 18 18 16 15 9 7 9 13 13 11 10 12 12 14 15 15 15 16 17 19 19 18 17 16 15 15 15 15 16 16 15 15 14 13 12 13 12 11 9 9 8 7 6 6 6 7 7 7
22 18 17 17 12 10 8 4 5 10 9 8 14 15 15 15 16 19 23 24 21 20 18 17 16 16 16 16 15 14 14 14 13 12 12 11 11 10 9 8 8 7 7 8 7 6 6 6 7
24 21 21 15 13 16 11 7 1 5 4 10 14 16 15 14 15 17 22 27 23 20 18 15 16 17 17 16 15 14 13 13 13 12 13 11 10 8 7 8 9 10 10 8 8 8 7 7 8
25 22 20 19 21 15 3 2 5 7 8 14 16 13 14 14 15 15 21 25 23 21 17 15 16 16 17 17 16 14 14 13 12 11 11 9 7 6 6 8 9 9 8 9 10 8 11 11 12
21 21 20 20 18 16 8 11 12 9 10 15 16 13 13 15 18 21 25 24 22 19 16 14 14 16 17 17 16 15 15 13 12 10 8 6 3 2 4 6 7 6 6 8 10 11 11 14 15
20 26 24 21 20 17 10 16 18 15 15 15 17 16 14 14 17 25 27 24 21 16 13 13 13 13 16 17 17 17 15 15 13 11 8 5 2 1 3 4 4 3 4 9 12 14 16 16 17
23 29 25 23 22 20 17 19 17 13 16 20 20 19 16 15 19 22 23 22 20 18 15 13 14 14 15 15 14 15 15 14 11 8 6 3 1 1 3 3 1 2 3 9 13 14 16 14 14
28 27 30 27 27 24 22 22 19 17 11 17 20 24 23 19 19 22 22 21 20 16 13 12 13 13 14 15 14 14 13 12 10 8 5 3 3 4 5 4 3 1 5 10 13 15 13 14 13
30 29 31 33 32 29 25 25 25 23 20 14 21 20 23 22 20 20 22 22 20 19 18 15 12 11 11 10 11 12 11 11 10 8 6 4 4 7 7 5 5 4 5 9 13 13 11 13 11
25 29 31 33 38 36 30 27 25 29 25 17 17 20 22 23 24 22 20 18 19 18 16 17 17 14 14 14 13 12 11 11 9 9 8 6 6 8 7 7 5 5 6 8 9 9 8 10 10
27 34 35 37 38 43 28 27 30 33 19 20 18 21 23 24 23 21 20 20 20 20 20 18 16 16 15 15 16 14 14 13 12 12 10 9 7 9 7 8 6 5 6 7 5 5 6 10 9
29 35 38 42 44 33 30 36 23 27 28 24 24 23 26 26 27 25 20 17 17 15 16 18 17 16 15 15 15 16 17 16 16 15 14 12 9 8 9 10 8 7 6 3 2 4 7 8 9
27 30 34 36 26 35 39 23 15 24 25 25 31 27 31 31 27 25 25 23 21 20 19 17 14 13 13 15 17 18 18 17 19 17 17 16 12 9 10 12 9 7 6 4 3 4 8 9 9
32 37 23 34 34 32 28 15 15 26 23 24 27 31 32 32 29 25 25 25 23 21 17 17 17 17 16 17 20 21 21 19 19 22 20 19 15 11 11 13 12 9 7 7 7 5 7 10 10
40 34 37 39 39 32 23 15 12 16 23 29 31 32 30 31 32 29 26 23 23 22 20 20 20 18 18 15 15 21 25 26 24 23 22 20 19 14 13 16 15 13 11 9 9 5 7 9 11
42 43 41 37 36 33 25 12 8 14 24 31 29 24 26 24 26 25 25 24 24 23 23 22 22 18 17 12 12 16 19 24 24 24 26 24 23 18 17 17 18 16 15 13 13 9 8 10 13
44 43 44 44 39 30 29 21 13 13 20 33 38 34 34 30 31 30 28 29 28 25 23 19 23 21 18 16 17 16 19 21 23 23 25 26 26 23 21 20 21 20 18 17 16 16 15 15 15

GFSSGP_500_spd_048.txt.gz
Wind_Speed
1 3 7 4 1 7 9 10 11 9 13 13 12 13 14 15 13 15 16 18 16 7 12 10 10 13 13 14 16 16 17 17 15 16 16 16 16 14 13 14 13 13 13 11 11 10 8 6 7
2 5 7 8 6 6 8 14 12 12 15 15 14 13 12 10 13 16 17 15 12 14 9 9 10 11 12 15 16 16 17 16 16 16 16 17 16 15 13 13 13 13 11 10 9 8 7 6 6
8 9 9 15 7 8 9 11 12 14 15 15 13 12 11 9 12 14 19 13 11 9 10 10 10 11 13 14 15 16 16 16 16 16 16 16 15 14 13 12 12 11 9 9 9 7 6 5 6
7 8 11 10 8 7 10 11 12 12 12 11 11 10 10 11 13 15 15 13 11 8 10 10 10 12 13 14 15 16 16 15 15 15 15 16 15 14 12 11 12 12 11 9 9 7 7 6 5
4 7 12 10 10 9 10 9 9 10 11 11 11 10 11 12 13 13 12 10 9 6 11 11 11 12 13 15 15 15 15 14 14 14 15 15 15 14 13 11 11 10 10 10 10 11 12 11 8
6 7 5 10 9 9 10 10 11 11 11 12 12 13 13 13 14 11 9 7 7 8 12 13 13 13 14 15 15 15 13 13 13 13 14 14 13 12 12 12 13 13 15 15 14 13 13 13 13
8 2 3 9 8 8 10 11 11 11 13 14 13 14 15 14 13 11 7 6 8 9 14 16 14 13 14 15 15 14 13 14 14 14 15 16 15 15 15 17 17 16 16 15 14 12 13 13 14
9 11 12 16 14 13 13 14 12 12 13 16 17 14 16 16 13 9 9 7 8 11 15 16 15 15 15 16 16 16 16 16 18 18 18 18 19 19 17 15 16 15 15 15 14 13 13 14 16
8 11 17 13 10 12 10 11 12 14 13 15 16 14 15 14 14 11 9 10 10 13 15 16 16 17 17 17 17 18 17 18 20 21 21 20 18 18 16 15 15 15 15 13 12 12 12 13 14
7 12 16 13 10 11 11 12 13 16 17 17 17 17 16 15 15 13 8 11 15 16 16 17 17 19 18 17 19 19 19 19 21 21 21 20 17 15 14 14 14 13 13 12 11 10 9 9 12
13 15 15 15 14 13 12 11 13 14 17 16 18 16 18 17 14 12 9 9 19 19 19 18 19 19 18 18 19 19 19 19 19 18 16 16 14 14 13 12 11 10 10 10 9 8 8 8 9
22 17 16 14 11 13 12 11 12 15 16 16 17 19 20 21 18 15 12 14 18 20 20 19 19 19 18 19 19 18 18 18 18 16 16 14 13 12 11 10 9 8 9 10 11 11 11 10 8
26 22 20 15 11 12 11 12 13 14 15 16 17 19 20 17 18 19 17 19 21 21 21 20 20 19 18 19 20 19 18 17 17 16 15 12 11 10 9 8 7 7 7 5 6 8 8 8 10
29 26 18 16 14 12 7 8 10 13 15 17 17 18 18 18 19 19 20 21 22 23 22 20 19 18 18 17 18 18 17 16 16 15 14 12 10 9 7 6 7 6 4 4 4 6 7 8 9
27 25 21 17 19 12 9 8 5 6 9 12 16 18 18 20 19 22 26 27 25 24 22 20 19 18 18 18 18 17 16 14 14 13 12 11 10 9 6 6 7 6 5 6 6 5 7 8 10
28 23 21 20 17 15 10 5 6 8 6 8 14 19 20 21 22 22 25 30 28 25 22 20 19 19 19 18 17 16 14 13 12 12 11 11 10 8 7 6 6 5 5 6 7 8 9 8 8
32 25 26 23 16 18 12 10 8 9 8 8 15 19 18 18 18 19 23 28 27 26 22 20 19 19 18 17 16 15 15 14 13 13 11 10 10 8 6 5 4 3 5 8 10 9 9 10 10
26 30 31 28 23 22 14 11 12 10 9 14 18 19 18 18 20 21 25 28 26 23 21 18 18 18 17 16 16 16 16 16 15 13 11 9 7 6 4 4 2 3 5 10 14 12 10 11 14
27 31 28 28 30 27 17 18 16 16 11 14 18 20 19 18 20 23 30 28 24 20 16 15 15 16 16 16 17 18 18 16 15 12 10 8 5 4 2 1 0 1 4 10 13 12 12 13 14
24 29 30 29 31 28 26 20 22 19 13 15 20 20 20 19 21 25 30 26 23 20 17 16 16 17 18 17 16 14 14 14 12 10 9 7 5 3 2 2 1 1 3 9 12 10 11 14 11
28 25 34 33 32 28 27 25 23 20 17 11 17 21 22 23 24 27 28 25 24 21 18 18 19 18 19 18 17 16 15 15 14 10 8 7 6 3 2 3 3 2 3 7 9 9 9 11 9
32 29 37 40 35 29 28 25 25 23 22 14 15 17 21 22 24 27 25 25 23 21 22 20 19 18 18 18 18 18 17 15 13 12 11 8 6 4 4 4 5 5 3 5 4 7 10 11 10
32 35 37 39 39 36 33 33 28 32 27 19 14 18 21 23 24 26 27 26 25 23 22 21 21 20 18 18 19 17 16 15 13 13 12 9 5 5 5 6 5 5 4 5 4 7 9 11 10
36 40 39 38 40 46 32 33 32 36 29 24 20 21 24 25 26 27 28 27 25 22 22 23 22 20 20 19 17 16 16 15 15 15 12 8 7 6 8 7 6 6 4 5 3 6 9 10 10
36 43 42 46 49 38 32 38 27 35 31 29 28 25 26 25 27 27 26 24 22 21 21 21 20 20 20 19 17 17 18 16 16 16 14 12 10 8 8 8 8 7 5 5 3 4 7 7 9
35 37 44 49 44 39 39 34 23 24 30 35 32 28 29 29 28 29 27 25 24 22 22 21 21 20 19 19 19 20 20 18 18 17 17 14 13 9 10 11 11 9 7 5 4 3 5 6 6
36 44 35 39 42 40 30 20 29 24 30 37 35 33 30 27 29 31 29 27 27 27 25 23 22 22 21 20 21 21 21 20 19 19 20 15 15 14 12 14 14 13 9 8 8 2 3 5 5
42 34 37 40 42 38 32 25 16 15 32 34 38 34 31 32 30 29 31 30 29 28 27 25 24 22 20 21 19 20 22 22 22 22 19 17 18 16 16 15 16 16 13 11 11 8 5 4 7
47 45 43 43 40 34 27 20 15 16 27 30 29 31 28 32 31 32 33 30 29 29 28 26 24 22 19 16 15 15 18 21 23 23 24 21 22 19 19 20 19 19 17 14 13 14 11 13 13
48 47 42 43 37 33 24 16 19 17 24 35 33 31 27 32 30 33 32 28 28 29 30 26 23 22 20 19 18 14 14 15 16 18 22 23 21 22 23 24 23 19 20 17 15 16 17 16 18

GFSSGP_500_spd_051.txt.gz
Wind_Speed
2 2 3 2 3 4 6 5 9 7 9 8 7 8 10 12 12 12 11 11 10 9 9 11 11 13 13 13 14 15 15 16 15 15 14 13 13 12 11 11 11 11 11 10 9 8 7 7 7
3 2 6 6 6 0 3 7 5 8 10 10 9 9 8 8 10 11 11 10 8 15 11 10 11 13 13 13 14 15 15 15 15 15 14 13 12 10 9 10 10 10 9 7 7 7 6 5 4
5 4 11 11 6 4 11 7 5 8 11 11 9 8 5 4 9 9 11 7 7 4 7 9 11 13 13 13 14 14 15 15 15 14 14 14 12 11 10 9 9 9 8 7 7 7 6 5 5
5 7 12 10 5 8 2 9 8 9 10 10 10 9 6 7 10 10 12 8 7 5 7 9 11 12 12 13 14 14 15 14 14 14 13 13 11 10 10 9 9 9 8 8 8 10 9 8 7
3 11 12 7 6 9 11 9 9 8 11 10 9 8 9 9 11 12 10 8 6 4 8 10 12 12 13 13 13 14 14 13 13 14 14 12 10 10 10 9 9 8 9 11 12 11 12 11 11
6 11 10 5 3 10 9 9 10 11 12 12 11 11 11 11 12 10 8 7 7 7 8 12 12 12 12 13 14 14 14 13 12 12 13 11 10 9 11 12 13 13 13 13 13 13 13 14 17
8 6 5 10 8 11 12 11 13 11 10 11 12 12 12 12 11 9 7 8 8 8 11 12 13 12 13 13 14 14 13 12 11 11 11 11 12 14 15 16 14 12 13 13 13 13 13 13 18
8 5 3 6 11 0 12 14 11 12 12 14 16 13 16 15 12 9 8 9 10 11 13 12 13 13 14 15 15 14 13 13 14 13 14 14 17 15 14 14 13 12 12 13 12 13 13 14 17
9 8 5 8 13 15 15 11 12 11 14 15 17 14 13 15 13 10 9 10 11 13 14 13 14 16 16 16 16 16 15 14 16 16 16 17 16 15 14 13 12 11 11 11 11 11 12 14 14
5 10 14 13 15 7 10 11 13 15 17 16 16 16 14 15 14 12 9 13 15 15 15 14 15 16 17 16 17 17 17 17 19 17 16 15 14 14 13 12 11 9 9 9 11 14 13 12 12
11 11 13 20 16 12 10 11 12 14 16 17 16 15 16 15 14 12 9 14 18 18 17 16 16 16 17 17 18 17 17 18 18 16 14 12 12 11 11 9 8 9 6 8 10 8 12 9 9
15 19 20 14 10 9 7 11 13 17 20 18 18 17 17 18 16 15 12 14 17 19 18 18 17 16 17 17 17 17 17 16 14 14 13 12 10 9 7 7 6 7 8 10 11 11 10 12 12
19 20 17 12 10 8 10 14 9 14 16 17 18 20 19 18 19 18 16 19 20 20 20 19 18 17 17 18 17 15 14 13 13 13 12 11 9 9 6 6 6 7 9 12 12 11 11 10 10
23 24 20 16 13 12 6 12 13 8 13 16 18 19 21 21 20 18 17 19 21 22 22 21 20 19 18 17 16 14 12 11 10 10 9 8 8 7 5 4 4 7 7 6 9 10 9 11 12
28 29 21 18 15 12 8 12 1 10 11 13 17 19 21 23 21 21 22 25 23 23 23 22 20 19 18 18 17 15 13 12 11 9 8 7 6 6 6 5 5 6 7 8 8 8 8 8 9
28 29 27 19 18 15 9 16 8 12 9 10 13 18 20 22 24 24 24 27 27 25 23 22 21 20 19 19 18 16 14 12 11 10 8 7 7 6 6 5 4 4 5 9 10 11 8 8 10
33 28 27 19 22 18 14 26 24 11 12 11 9 16 20 22 23 24 25 28 27 26 24 22 22 21 20 19 17 16 14 12 11 10 9 9 7 5 4 3 2 3 5 10 12 12 9 11 14
32 30 20 21 22 21 16 17 14 9 11 12 12 14 18 19 21 23 25 29 28 26 24 23 22 21 20 18 17 16 15 14 12 11 9 9 8 5 2 1 1 4 6 12 14 11 11 11 15
27 25 23 22 23 21 21 16 16 18 15 12 10 13 17 19 19 20 23 29 28 24 22 21 20 21 20 20 20 19 17 15 13 11 9 8 7 5 5 1 2 3 5 10 12 10 13 12 15
29 28 28 22 36 23 25 20 17 16 20 13 15 15 19 17 19 22 26 29 26 25 22 20 21 21 22 21 20 18 16 14 13 12 10 9 7 6 3 3 2 2 5 9 11 10 10 11 12
33 29 29 30 26 29 33 27 24 22 22 20 15 14 17 18 18 21 27 30 27 24 21 21 21 22 21 19 18 18 18 17 16 12 9 8 7 6 4 3 3 3 4 7 8 8 9 9 10
35 30 31 30 30 29 35 27 29 25 27 22 15 18 13 18 19 22 28 27 25 25 25 25 24 23 21 19 18 19 19 15 12 10 11 10 7 7 6 4 2 1 2 4 4 5 8 10 10
33 34 36 38 33 32 29 29 20 24 26 25 17 14 17 16 18 23 28 27 27 25 24 24 24 23 21 21 21 19 16 15 14 14 13 10 8 7 8 6 4 1 1 3 1 4 8 9 10
35 39 41 42 43 45 40 33 29 27 22 25 23 19 17 19 20 23 29 30 28 24 23 24 24 23 23 22 21 19 18 17 16 15 13 11 10 8 7 6 6 4 2 1 1 3 7 6 8
36 44 45 44 46 49 39 40 35 26 26 27 29 23 21 22 22 24 29 30 27 21 20 21 22 21 21 21 20 19 18 16 16 14 13 12 11 10 7 6 7 6 4 3 3 1 5 5 6
40 43 49 47 43 37 35 39 34 33 26 29 28 28 25 25 26 27 26 30 28 23 22 21 21 21 20 18 17 17 16 15 15 15 15 13 12 12 10 7 8 10 7 5 7 4 1 4 4
41 43 35 35 24 28 26 28 30 27 30 32 35 32 30 26 27 28 28 27 27 24 23 23 23 24 22 21 21 18 16 16 16 17 17 14 11 12 13 11 10 10 10 8 8 10 4 2 4
48 35 42 41 36 27 27 24 24 21 26 30 32 33 32 26 23 27 30 30 29 26 26 27 25 24 23 21 19 16 15 16 17 19 17 18 17 14 13 15 13 12 13 12 11 14 10 5 5
47 47 44 38 39 30 23 19 20 24 20 30 34 36 36 32 24 27 30 29 31 31 30 27 26 24 20 19 17 16 16 16 17 19 20 21 20 16 15 16 17 15 14 15 14 14 16 12 12
49 47 45 45 41 38 24 11 27 22 22 29 36 33 35 33 30 31 30 33 34 33 31 28 28 27 23 20 19 17 16 12 12 12 16 20 20 19 17 17 18 19 18 17 18 15 15 17 16

GFSSGP_500_spd_054.txt.gz
Wind_Speed
3 2 3 2 2 4 7 2 3 2 4 3 3 7 6 6 5 7 17 15 9 13 14 11 13 14 14 13 14 13 12 13 14 15 15 15 14 12 11 11 10 9 10 9 7 6 6 6 6
2 1 5 3 3 7 9 4 0 2 6 5 3 5 4 3 6 6 6 8 5 13 12 12 13 13 14 14 13 12 12 12 13 14 14 13 11 10 9 9 8 7 8 7 6 6 6 5 4
4 3 8 6 3 7 11 5 1 4 5 6 4 6 3 1 5 3 5 8 9 9 10 11 12 13 15 13 11 11 12 12 14 13 12 11 10 9 9 7 6 7 8 9 9 8 7 7 5
5 8 11 7 9 1 7 0 2 2 4 3 4 4 3 3 6 6 4 7 8 6 8 11 12 13 13 12 11 11 12 12 13 12 12 11 11 8 8 8 8 8 10 12 12 12 12 11 9
6 8 9 3 12 14 8 2 5 5 5 4 4 4 4 5 6 8 4 4 4 6 8 11 13 12 12 11 11 11 12 12 12 11 11 11 11 10 9 8 9 12 13 12 13 13 14 17 17
8 7 4 10 8 12 6 6 8 10 6 8 8 7 7 7 9 7 5 4 5 7 9 12 13 11 11 11 12 11 12 12 12 11 12 12 11 11 12 13 14 14 13 13 13 14 16 21 23
9 6 6 18 7 1 9 7 10 9 10 9 11 10 9 9 9 7 5 6 7 7 11 11 12 12 11 11 12 12 12 11 11 11 12 13 14 16 15 15 14 13 13 13 14 17 17 20 24
11 5 2 10 5 8 11 10 12 13 12 11 11 13 11 11 10 7 5 7 8 8 12 12 12 13 12 12 12 13 13 13 13 13 16 17 15 13 13 13 13 14 14 15 17 16 17 19 21
10 8 6 1 8 7 2 18 13 11 13 13 13 14 10 13 12 8 6 7 8 11 12 11 13 14 14 14 13 14 15 16 17 17 17 15 14 13 13 12 13 12 13 13 13 13 14 16 18
8 12 12 13 8 11 9 10 9 14 15 14 11 14 12 12 13 9 6 8 12 13 12 12 13 15 15 15 14 15 16 18 18 15 20 16 12 10 11 11 10 10 13 14 13 11 11 14 15
9 11 9 8 6 9 4 7 12 9 14 14 14 13 13 12 12 10 6 8 14 15 14 14 15 16 16 16 16 16 16 16 16 6 15 13 11 10 10 9 8 7 8 12 13 12 9 13 11
13 11 10 4 7 8 20 5 8 12 15 14 14 14 14 15 13 12 9 9 13 15 16 15 16 16 17 16 16 16 16 15 15 12 10 10 9 10 8 8 7 8 11 13 13 11 11 14 15
15 14 5 8 9 15 6 6 10 10 13 13 15 14 16 15 15 15 11 13 16 16 17 17 16 16 18 17 16 15 13 11 10 9 8 8 6 9 8 8 9 14 14 16 20 18 18 18 18
17 20 17 20 21 7 1 15 9 8 5 11 13 14 16 17 16 16 12 13 17 17 17 17 17 17 18 17 16 15 12 10 9 8 6 5 5 6 7 10 8 12 13 15 16 15 15 14 11
20 24 25 23 21 10 10 31 13 19 3 8 10 13 16 17 18 17 16 16 19 19 18 17 18 17 17 16 14 12 10 9 7 6 5 5 4 5 7 7 8 9 11 13 10 11 10 11 12
26 27 25 21 17 15 14 26 17 10 17 11 6 11 15 17 18 20 19 18 22 21 19 18 17 17 17 16 14 12 11 10 7 5 4 4 5 4 2 4 6 8 12 13 11 7 9 10 14
30 26 24 22 19 14 15 22 17 16 14 9 8 10 17 17 17 19 18 19 23 22 21 20 19 17 17 16 15 13 11 9 7 5 4 4 4 3 1 3 8 6 11 15 11 8 7 13 15
25 27 20 21 18 22 17 25 19 25 23 12 10 8 10 13 15 18 19 22 25 24 22 20 19 19 18 17 15 14 12 10 8 7 6 5 4 2 3 6 8 10 12 14 10 10 10 13 16
24 24 24 19 15 19 18 32 21 25 20 15 4 10 7 9 13 15 19 23 28 25 23 21 19 19 18 17 16 15 13 11 10 9 9 7 5 3 2 4 7 8 10 12 12 10 9 13 15
28 26 23 16 24 31 23 29 22 19 14 15 11 8 11 9 11 13 17 23 27 25 23 22 21 20 20 19 18 15 13 11 11 10 9 7 6 5 3 3 4 5 7 9 9 10 8 12 11
32 29 27 22 28 31 19 29 24 19 17 19 18 14 13 9 12 14 18 22 27 24 22 21 21 22 23 21 17 15 14 14 13 9 9 9 7 5 4 2 3 4 4 5 6 7 8 10 11
37 30 34 28 30 29 20 27 18 22 21 24 28 24 20 12 12 13 17 23 26 25 23 23 25 25 25 21 19 18 18 15 11 10 11 9 6 5 4 3 1 2 2 2 3 5 6 8 11
30 34 38 35 32 28 30 33 26 22 19 28 31 29 17 18 12 13 17 25 27 25 23 24 25 26 24 22 22 20 16 14 13 13 11 8 7 6 5 4 3 1 0 1 0 3 3 6 9
25 34 35 40 32 44 34 31 18 27 25 26 23 15 21 17 13 13 17 25 26 25 24 23 23 25 24 24 22 20 18 16 15 12 9 8 8 7 4 4 4 3 2 3 2 1 1 4 6
35 37 39 40 46 49 42 39 33 18 24 20 19 22 19 22 14 15 19 25 26 24 21 20 22 22 23 22 20 18 16 14 12 9 8 8 8 8 6 5 5 6 5 3 4 4 4 4 6
41 37 47 47 40 38 39 41 36 32 25 19 20 26 27 24 23 17 18 25 26 24 21 19 20 21 20 19 18 16 12 10 8 8 8 9 10 10 9 7 6 6 8 4 5 7 6 5 5
44 45 36 30 27 27 28 29 28 31 40 35 32 28 33 30 24 20 20 22 26 24 19 17 19 20 19 18 17 14 12 9 10 11 11 12 12 12 10 9 8 5 7 9 6 8 10 8 6
47 37 40 41 36 33 23 25 23 21 31 30 37 38 32 33 23 22 23 22 23 26 24 22 21 20 21 20 16 12 8 8 10 11 11 12 13 14 13 12 10 8 6 9 11 9 10 11 9
48 45 43 38 38 31 21 20 18 19 20 24 30 32 37 33 29 19 22 23 24 25 26 25 24 23 19 17 15 12 12 12 12 12 14 16 16 14 14 16 14 13 10 8 10 11 8 11 14
48 49 45 45 41 36 25 17 17 24 26 27 27 32 29 31 31 23 18 17 23 27 27 26 25 24 22 20 17 15 13 12 9 9 12 13 14 14 15 15 16 14 14 12 10 10 13 13 14

GFSSGP_500_spd_057.txt.gz
Wind_Speed
1 2 3 4 5 5 8 5 14 10 4 5 7 6 5 7 12 16 16 13 9 11 11 11 13 14 14 13 11 11 13 14 15 16 16 16 15 12 11 11 11 10 9 7 7 6 5 4 5
1 1 5 3 2 7 9 11 4 5 5 4 6 4 5 4 6 8 10 6 10 9 10 11 13 13 14 12 10 12 12 13 15 15 15 14 13 11 9 10 10 9 8 7 6 6 5 5 4
1 2 6 2 6 15 13 8 8 6 7 6 3 3 4 2 3 5 3 9 5 6 10 12 14 13 13 12 11 13 12 14 16 15 14 12 12 11 9 9 10 9 9 10 11 10 8 6 2
2 5 5 2 2 14 13 8 7 9 7 7 2 2 3 2 3 6 7 9 7 6 9 13 15 13 13 11 12 12 13 14 15 15 14 12 11 10 10 10 10 11 12 12 14 13 14 10 5
6 7 5 5 9 13 8 7 4 6 4 2 1 2 3 1 2 5 8 5 7 6 8 13 14 13 12 11 12 13 13 14 14 15 14 13 11 11 13 13 13 13 14 14 15 16 20 20 16
9 5 6 21 18 10 4 4 3 1 2 3 4 3 4 3 3 4 2 3 5 6 10 13 13 13 12 12 13 13 13 14 14 15 14 13 13 16 16 15 14 16 17 18 19 20 22 23 21
10 4 3 8 12 12 6 10 6 4 3 5 5 4 5 5 4 4 2 2 5 6 11 12 14 13 12 13 12 12 13 13 14 15 15 17 17 16 15 16 17 18 18 19 20 21 21 22 24
11 7 8 20 9 2 3 4 8 5 4 6 6 6 6 6 7 4 2 2 5 8 11 12 13 13 12 13 13 13 14 14 16 16 17 16 15 15 15 15 16 15 15 18 18 20 19 19 22
15 15 7 3 6 7 13 6 8 8 4 5 6 5 7 6 8 5 2 1 4 9 10 12 14 13 13 13 14 17 17 17 18 17 15 13 14 13 15 15 16 15 15 14 18 18 17 15 16
15 10 7 2 9 5 7 4 8 6 1 6 7 5 8 7 8 6 2 2 7 11 11 12 13 14 14 15 17 19 20 21 17 14 13 12 13 12 14 14 15 12 11 11 17 16 15 13 12
16 12 9 9 6 7 4 9 10 2 0 9 7 6 7 8 7 7 5 2 9 12 12 13 14 15 15 16 19 20 21 21 13 12 12 11 13 13 13 11 11 7 10 10 19 18 14 12 12
14 11 7 13 6 4 3 7 8 5 4 7 7 8 9 9 9 8 6 4 9 11 13 14 15 15 15 16 18 16 20 18 15 12 10 10 11 11 11 10 10 10 22 16 16 16 15 12 11
12 9 11 6 11 8 4 8 12 9 6 5 7 8 9 9 10 8 7 4 12 13 13 15 16 16 16 16 16 15 16 15 12 11 10 7 15 13 10 13 11 2 18 18 16 18 13 12 12
17 17 11 1 3 5 3 6 12 9 4 1 4 8 10 11 11 10 7 6 12 14 13 14 15 16 17 18 16 13 10 11 11 10 8 8 16 9 9 13 14 16 18 17 16 14 13 13 14
23 22 18 16 11 9 8 13 25 7 5 1 3 10 12 13 12 13 12 10 14 15 14 15 15 16 18 16 15 12 10 8 7 8 8 9 9 9 11 10 12 13 15 15 14 13 14 17 15
26 26 21 18 20 15 17 19 19 15 13 9 3 7 9 11 14 15 13 13 16 16 16 16 16 16 16 15 14 12 10 8 6 6 7 8 8 11 10 10 11 14 17 16 11 13 16 17 20
25 25 23 22 25 21 17 26 14 9 14 13 9 6 3 11 13 14 13 16 18 19 17 17 17 16 16 15 13 12 10 8 5 5 6 8 7 10 9 11 13 13 15 12 13 13 14 17 21
21 23 21 22 24 21 20 25 17 9 15 12 7 10 3 6 13 13 15 17 20 20 19 19 17 17 16 14 13 12 10 7 5 5 6 7 7 6 7 10 11 10 14 14 13 11 12 15 18
25 26 19 20 23 21 16 18 26 18 12 16 10 6 9 8 9 12 16 23 23 22 20 19 18 17 16 16 14 12 10 8 7 6 7 4 3 3 6 8 10 10 12 11 12 10 13 14 12
31 28 19 17 15 14 25 26 17 19 13 17 11 6 7 4 5 5 9 18 22 23 21 20 19 19 18 17 14 11 11 10 9 7 6 5 3 1 4 4 5 5 8 10 10 11 13 13 13
31 29 20 26 17 23 34 34 30 25 18 18 12 10 5 4 6 8 7 15 21 25 22 21 20 21 20 19 15 13 12 12 11 9 7 6 3 0 2 2 3 3 6 7 7 8 11 13 13
31 26 25 31 23 32 23 31 33 24 17 16 9 14 7 3 6 8 8 13 20 25 24 22 22 22 22 19 17 16 16 13 10 10 10 6 4 2 0 1 2 3 4 3 5 5 5 7 10
23 33 32 33 33 30 37 33 21 19 14 13 10 9 7 3 6 7 11 13 19 26 24 22 22 23 22 20 19 19 16 13 12 12 8 8 7 4 1 1 2 1 2 4 4 4 3 4 7
24 34 38 43 38 38 31 27 25 16 16 14 20 20 12 3 3 12 14 16 20 25 23 22 20 22 22 22 21 18 15 14 13 12 10 9 7 4 2 2 2 2 1 4 4 5 6 5 5
34 35 39 51 53 49 34 30 31 19 18 16 19 13 10 5 4 13 16 18 24 23 20 18 17 17 20 23 19 16 14 13 11 10 9 8 6 3 3 2 3 2 4 3 4 4 7 8 6
38 34 35 45 47 40 44 45 30 28 26 29 26 24 12 18 11 15 13 19 24 23 19 16 15 16 18 18 17 14 12 12 9 8 7 7 7 6 4 4 4 5 6 6 5 5 5 9 8
40 45 36 36 42 48 48 42 42 28 32 24 22 28 18 20 15 12 12 15 23 23 19 15 16 16 18 18 18 14 12 11 10 9 8 8 9 9 10 7 8 8 6 8 7 6 6 8 9
47 35 39 39 40 43 39 33 29 34 38 32 32 20 22 24 18 11 14 14 21 23 21 17 17 18 20 20 18 16 15 11 10 10 11 12 12 12 13 13 10 10 8 6 8 8 8 10 10
48 47 41 37 39 35 29 23 5 11 18 29 33 31 28 26 25 13 12 16 17 22 23 21 18 18 17 16 16 15 13 14 12 12 13 15 15 15 13 16 13 9 8 9 8 10 11 11 11
42 48 44 44 37 36 30 23 28 12 22 21 17 28 37 31 34 24 13 17 19 21 21 24 22 19 19 20 18 16 16 12 10 9 9 7 8 10 12 13 13 11 10 11 13 14 11 11 12

GFSSGP_500_spd_060.txt.gz
Wind_Speed
3 3 3 6 10 6 7 5 13 7 10 8 9 7 10 13 14 14 11 9 6 9 8 9 10 12 13 12 12 12 13 14 15 15 15 14 13 12 11 10 11 10 9 9 7 6 4 4 6
4 3 5 3 7 7 8 8 13 8 11 7 9 7 7 10 16 12 7 9 7 8 8 9 11 13 14 13 13 12 13 13 14 14 13 13 12 11 10 10 9 9 9 8 6 5 2 2 5
4 5 5 3 5 11 13 13 11 10 7 8 9 7 5 6 7 6 6 9 7 7 8 10 12 14 14 14 14 13 13 14 15 14 14 13 12 11 10 11 10 10 11 11 10 8 5 2 3
4 6 5 2 8 20 13 15 16 14 9 8 8 6 5 4 8 7 8 7 6 6 8 12 13 14 14 14 13 14 14 15 15 14 14 12 12 10 10 11 12 12 11 11 13 13 11 4 7
8 8 9 4 10 18 11 13 15 13 8 6 4 3 4 4 4 9 10 6 9 8 9 12 14 14 14 14 14 14 15 15 14 14 12 12 10 11 13 14 15 14 14 14 17 21 20 18 14
7 4 3 5 17 6 7 7 10 7 5 3 2 3 2 1 5 7 7 6 7 9 10 12 13 14 14 14 14 15 17 15 14 13 12 13 13 13 14 16 16 16 17 18 21 23 23 24 20
10 3 7 24 9 8 12 15 10 6 5 2 3 2 0 1 2 5 5 5 7 10 12 12 14 14 13 14 15 16 17 15 15 15 15 15 15 14 14 16 16 18 19 19 20 22 26 26 24
14 9 9 12 10 10 3 10 7 5 4 2 2 2 3 3 2 3 5 3 7 10 11 12 14 14 13 14 14 17 17 16 17 18 16 15 15 15 15 15 16 15 16 16 17 19 21 23 20
15 11 6 4 8 3 4 6 7 4 6 4 2 1 3 6 3 2 4 4 6 9 11 12 13 13 15 16 17 18 19 19 19 17 16 15 15 17 16 14 13 12 11 11 15 16 17 17 19
13 12 8 8 7 3 6 9 3 4 6 6 3 4 3 4 4 2 2 3 7 11 10 11 12 15 16 17 18 20 20 19 17 16 14 13 15 16 15 13 12 8 12 9 14 13 13 13 13
13 15 13 13 8 11 7 5 7 3 4 5 4 6 6 5 3 1 2 2 9 12 11 12 12 15 17 19 19 20 20 19 17 16 13 12 13 13 16 14 19 9 8 11 13 14 11 14 11
17 18 15 15 10 6 11 8 16 10 2 6 8 7 8 8 5 4 2 1 8 11 11 13 14 16 17 20 18 18 17 18 15 14 12 11 11 12 12 12 13 14 12 12 11 11 13 13 12
17 16 20 16 13 10 6 11 12 10 4 6 9 8 7 5 7 5 3 0 8 12 12 13 15 16 18 19 17 16 16 16 14 13 10 9 9 13 13 14 18 13 15 14 12 13 13 13 8
20 21 24 17 20 13 11 4 1 6 4 0 5 7 8 8 9 8 5 3 10 12 13 13 15 18 19 20 19 15 12 13 13 12 8 13 10 13 12 13 16 15 15 14 13 14 18 15 10
26 26 26 25 11 8 11 7 7 6 3 7 7 6 7 9 9 13 12 9 13 15 15 15 15 16 17 17 16 15 14 11 11 11 10 10 13 13 12 11 16 17 16 13 13 19 21 16 17
31 32 28 23 19 21 18 13 8 8 9 6 9 11 8 11 14 13 14 12 14 16 16 15 16 17 17 17 14 14 13 12 9 11 11 11 12 12 14 16 14 15 12 15 15 19 19 18 21
29 26 28 27 23 22 23 11 12 8 5 5 6 8 10 12 13 12 14 16 17 19 19 17 16 19 18 15 14 12 11 11 10 11 10 10 11 13 14 15 14 16 15 15 15 17 16 18 20
27 23 24 24 25 24 24 10 13 9 8 5 1 5 7 10 14 15 16 20 20 21 19 21 20 19 18 16 14 14 11 9 9 12 11 9 11 11 11 12 12 14 12 12 14 15 16 18 21
29 27 20 21 23 21 16 19 10 14 9 1 11 3 1 7 12 16 17 21 22 23 20 21 21 19 17 16 16 14 11 9 9 10 10 8 8 9 9 10 12 12 12 13 15 16 18 17 19
29 26 23 24 27 28 25 24 8 11 13 10 7 6 3 2 7 16 16 21 23 24 24 24 22 20 19 17 16 13 11 9 9 8 7 7 5 6 7 7 9 9 9 11 13 15 17 17 15
26 27 25 19 32 37 42 24 24 19 20 9 3 10 4 3 8 13 16 17 21 26 24 23 22 22 20 17 14 12 11 10 9 8 6 4 3 3 4 4 5 5 7 8 10 10 13 14 14
29 24 28 30 40 40 27 28 28 24 16 16 9 9 4 5 9 15 18 19 21 25 26 24 22 21 20 18 16 16 15 12 10 9 7 5 3 2 1 0 1 2 4 5 9 8 11 11 13
24 31 32 35 41 36 28 29 25 28 26 13 13 10 5 9 12 15 20 22 23 27 25 24 21 19 19 18 17 17 15 12 12 11 8 7 5 3 2 2 2 0 2 4 5 9 9 8 8
32 34 39 44 46 48 36 37 35 31 19 14 15 17 6 6 10 13 17 20 22 25 24 22 21 19 18 19 19 17 15 14 13 11 9 8 5 4 2 0 3 4 1 2 2 4 7 8 5
41 39 43 51 54 54 41 41 33 26 20 19 16 11 11 7 9 10 14 17 23 26 22 18 17 17 18 19 19 18 15 14 11 10 8 7 6 5 4 2 1 4 5 3 2 1 3 7 7
43 45 44 51 54 45 39 50 29 30 26 21 22 15 11 14 13 9 11 17 19 24 21 18 17 15 16 19 20 18 15 13 11 9 8 8 7 6 5 4 3 3 5 7 4 3 2 3 7
47 51 38 42 50 45 48 47 36 33 34 31 23 21 18 16 17 13 7 14 21 24 21 18 16 16 18 20 20 19 16 14 14 12 11 10 10 9 9 8 6 4 5 7 9 6 5 4 5
49 43 42 47 48 54 53 49 39 32 27 20 17 23 23 14 20 18 13 14 22 23 22 19 17 16 19 21 22 22 21 18 16 14 14 14 13 12 13 11 9 8 6 7 8 10 9 7 8
52 52 47 42 46 48 50 41 30 33 30 23 27 25 21 17 18 24 16 15 20 23 23 21 17 18 19 20 22 22 20 18 16 16 14 14 14 14 15 15 10 10 10 10 11 9 10 10 9
49 51 48 45 45 43 37 27 27 26 30 39 41 40 26 26 20 22 16 16 19 20 23 22 18 16 20 23 21 21 21 19 17 14 13 10 10 11 17 18 14 14 14 13 11 11 11 11 11

GFSSGP_500_spd_063.txt.gz
Wind_Speed
5 3 3 6 8 8 7 3 10 10 6 7 10 12 11 15 13 10 8 8 5 8 9 8 8 10 11 10 11 13 12 12 13 12 12 12 12 11 11 11 11 10 8 6 6 4 3 4 6
4 4 5 6 9 7 5 5 6 11 8 8 10 10 12 12 14 10 8 6 4 6 9 9 9 12 11 11 12 12 11 11 11 11 10 11 10 11 11 11 11 10 9 7 5 2 1 4 5
4 5 6 7 10 8 7 10 11 11 10 9 7 9 10 10 9 3 8 7 4 5 9 11 11 12 12 13 12 12 11 11 10 11 11 11 10 10 10 11 10 10 10 10 7 5 2 7 8
3 4 4 1 8 14 16 14 14 15 13 9 8 7 8 7 6 7 9 7 5 5 9 12 13 13 14 14 13 12 12 11 12 12 11 10 9 10 11 11 11 10 12 12 10 7 4 9 11
5 5 4 4 12 16 17 16 14 9 10 11 7 6 7 7 6 9 8 7 8 7 10 12 14 14 15 14 13 13 13 12 12 11 11 11 11 12 12 14 15 16 16 16 19 19 17 17 13
5 8 6 10 16 15 12 10 9 8 8 8 7 6 5 5 8 6 7 8 9 12 12 13 14 15 15 14 14 14 12 12 12 12 13 14 14 13 16 18 19 18 20 21 20 21 20 18 14
10 4 9 19 12 16 12 12 10 8 6 7 7 7 5 6 5 5 6 8 9 13 14 15 15 16 15 14 15 14 13 12 13 16 16 15 15 16 17 16 16 17 19 19 20 21 19 19 17
12 8 18 7 9 11 17 9 7 6 7 4 7 6 7 8 5 3 5 7 9 12 13 15 16 16 16 15 13 13 14 14 17 17 16 16 16 16 16 15 14 15 15 15 16 16 16 16 14
13 11 8 5 7 16 11 12 5 11 6 6 7 8 1 10 7 4 5 8 10 10 13 14 16 16 15 14 14 14 15 16 18 17 16 17 15 15 14 13 13 12 11 12 12 14 14 12 13
14 15 10 8 13 12 13 14 4 7 7 7 9 8 6 5 10 6 5 8 11 11 12 13 15 16 16 15 15 16 17 17 18 18 16 15 14 14 14 15 9 11 11 11 9 11 12 10 9
17 17 14 13 14 12 17 13 11 11 11 9 9 9 11 6 9 4 5 4 13 12 13 13 14 16 16 17 18 18 17 17 17 17 16 13 13 16 13 13 17 13 8 9 11 10 9 9 8
18 17 17 17 12 16 14 9 11 10 11 9 8 10 13 10 9 7 4 6 12 14 13 15 15 16 16 18 19 18 18 17 17 16 13 12 11 13 16 10 15 13 12 10 11 11 7 7 9
20 21 21 18 17 16 6 11 8 3 3 5 8 8 12 11 10 8 3 3 10 14 14 15 18 18 18 21 19 16 17 15 15 14 13 11 12 13 13 14 15 12 14 14 13 11 7 5 6
25 26 24 23 19 20 10 16 10 6 8 5 8 7 10 14 14 11 7 6 12 13 15 16 17 20 20 20 17 16 14 13 13 13 13 12 13 11 11 13 14 14 15 15 16 16 11 7 10
29 27 26 22 21 18 13 12 17 11 12 13 11 4 5 9 11 14 13 11 15 15 15 17 17 21 20 21 19 16 13 14 12 14 15 14 12 11 11 8 14 16 17 19 20 19 15 15 18
32 31 27 21 20 17 19 13 19 8 4 2 4 7 4 8 12 10 12 12 16 16 16 18 18 20 19 17 16 18 15 14 14 15 15 13 10 11 13 13 15 16 17 19 19 20 17 17 16
35 29 24 28 29 22 19 17 13 12 3 6 5 6 7 8 10 11 12 14 15 19 18 20 20 21 21 18 16 15 13 12 15 15 13 12 9 11 14 14 15 16 17 18 19 18 16 15 14
29 27 27 30 31 25 19 20 16 11 10 7 3 4 9 6 12 16 15 18 17 21 22 22 23 22 21 18 16 16 13 10 13 13 13 11 8 11 12 12 14 18 18 18 19 17 16 17 16
31 29 29 32 33 30 28 21 21 17 12 9 7 5 7 8 13 18 19 21 21 23 22 21 22 22 18 18 17 16 13 12 13 12 11 10 8 9 10 11 12 16 16 18 18 19 17 16 16
31 30 27 33 30 26 27 30 24 22 20 16 8 9 7 7 12 17 18 20 23 24 24 22 24 22 22 19 18 14 12 12 14 12 8 9 8 7 8 11 10 11 14 15 15 17 17 15 15
31 26 28 29 32 34 35 35 32 24 27 16 12 17 5 4 11 17 19 22 28 26 25 24 23 23 21 19 18 13 12 11 13 12 9 6 6 5 6 8 8 8 11 11 12 13 14 14 13
30 24 31 31 37 38 33 32 30 26 21 23 13 15 9 3 10 14 18 23 28 29 29 28 27 24 22 20 19 18 15 11 10 9 8 6 5 4 4 6 6 6 8 8 9 11 10 10 9
24 31 31 36 41 40 39 38 33 33 26 30 15 15 10 6 10 13 18 22 31 32 30 28 28 26 23 23 20 18 15 12 11 8 7 5 4 4 3 4 4 3 5 5 6 8 10 9 9
34 36 39 44 47 54 44 43 40 31 26 18 21 22 16 10 11 13 17 20 27 32 30 29 28 25 25 24 20 18 15 14 11 8 7 6 4 3 2 2 2 1 1 3 3 4 9 10 10
44 43 48 54 57 57 44 51 29 32 25 26 23 19 15 13 8 13 17 18 23 26 28 26 26 25 24 24 23 20 17 15 12 8 7 7 6 5 3 1 2 1 2 3 3 3 6 8 12
50 49 51 56 56 51 41 55 27 27 28 27 28 27 22 16 13 12 18 21 24 29 31 27 24 23 24 24 23 21 19 16 13 11 10 9 7 6 5 5 5 3 3 3 4 3 3 4 8
54 55 47 49 55 50 50 52 34 36 35 38 33 34 31 25 20 16 14 19 25 30 32 28 26 24 24 24 23 20 20 17 15 13 13 12 11 9 8 7 6 5 5 4 5 5 3 3 4
54 51 48 55 56 58 55 54 38 38 36 37 37 33 26 25 25 21 19 18 24 30 32 30 28 25 25 25 23 21 22 20 18 15 14 13 11 11 10 9 8 7 7 6 5 6 6 5 4
55 57 55 51 54 55 50 51 36 37 32 34 28 30 28 22 25 27 21 16 23 31 32 28 26 25 24 24 23 23 23 21 17 17 15 12 10 11 12 12 11 11 10 10 8 7 7 7 6
61 59 57 58 57 56 50 41 36 38 38 32 36 26 25 23 26 31 28 17 24 30 32 27 24 24 24 24 25 25 25 20 19 17 14 11 11 12 14 15 14 13 13 11 10 9 9 7 7

GFSSGP_500_spd_066.txt.gz
Wind_Speed
2 1 5 8 7 7 4 4 14 10 12 11 12 12 14 13 16 11 10 8 7 6 8 9 8 11 11 11 12 13 12 13 14 13 12 12 12 12 10 10 9 7 5 5 5 4 5 7 8
4 3 2 2 4 3 2 1 13 11 10 13 12 12 9 11 11 11 11 6 6 5 9 11 10 11 11 12 13 13 13 12 13 12 12 11 11 11 11 11 12 11 9 7 4 2 3 6 8
6 3 2 6 6 6 4 7 14 8 10 11 10 12 12 9 7 4 8 8 6 5 9 12 12 11 14 14 14 13 12 12 12 12 12 12 12 12 12 12 11 10 9 9 5 0 5 7 8
5 3 3 2 9 12 11 12 9 9 9 11 9 10 11 9 7 9 8 8 8 6 9 12 12 12 14 15 14 14 13 13 12 12 12 13 14 14 13 13 14 13 13 12 8 5 10 10 10
6 4 2 4 10 9 14 15 13 10 9 9 8 9 10 10 9 8 8 7 9 8 10 11 13 14 15 15 15 14 13 12 12 13 14 14 16 17 18 18 17 17 17 18 18 15 16 14 13
7 2 4 13 14 18 17 15 11 10 9 8 6 10 11 11 10 7 6 7 9 12 12 13 14 14 15 14 15 14 13 11 12 14 15 15 18 18 18 17 18 21 22 19 21 20 17 15 13
10 6 5 18 12 12 12 12 8 7 8 6 5 11 12 11 8 6 6 7 10 12 14 15 16 15 16 14 14 14 12 12 14 15 14 16 18 17 16 15 18 18 18 19 19 19 17 17 15
9 3 11 7 11 13 11 11 9 10 7 6 6 9 12 13 9 4 5 8 11 13 13 16 17 17 16 14 13 13 12 14 15 15 16 17 17 16 13 12 14 13 15 15 14 14 16 13 13
11 17 10 2 8 15 15 13 9 9 8 8 8 10 9 13 13 7 7 7 11 12 13 16 17 17 16 14 14 14 16 15 16 15 16 16 17 14 10 10 9 12 12 13 10 11 14 11 10
14 16 12 9 12 20 13 11 6 7 9 11 11 13 15 7 14 11 8 10 12 12 14 16 17 18 17 14 15 16 16 15 16 14 14 16 14 18 17 12 15 14 12 8 10 8 8 8 9
18 19 18 15 14 14 12 15 15 11 12 11 11 13 18 10 11 12 7 10 15 14 15 16 16 17 17 16 17 17 16 16 15 13 13 16 15 15 15 14 14 11 9 7 8 8 6 7 6
21 20 21 18 16 14 14 18 16 9 10 10 12 13 16 17 12 13 8 10 15 15 16 16 16 17 18 17 18 16 16 16 15 12 13 13 15 17 12 14 12 11 12 10 8 7 6 5 6
24 22 21 19 15 14 13 18 10 5 7 10 12 14 12 17 15 14 10 8 14 17 17 17 19 19 20 20 19 16 16 15 14 13 15 14 14 14 14 15 15 15 13 9 4 3 5 6 7
28 27 24 20 15 14 13 17 12 9 9 12 12 14 15 15 18 15 11 11 14 16 19 18 19 22 22 22 19 17 15 13 12 15 15 12 12 11 13 15 16 13 13 12 9 5 9 10 10
32 27 25 23 18 16 17 13 14 11 10 13 13 12 13 12 18 19 17 16 17 17 20 20 20 22 22 21 20 18 15 13 13 16 14 13 12 13 12 15 18 15 15 15 14 13 14 16 14
36 32 28 25 19 19 19 18 15 12 13 10 10 14 12 15 18 17 18 17 20 18 20 21 21 21 20 20 19 17 16 14 15 16 14 11 12 12 15 15 17 17 15 17 17 16 15 15 13
37 30 26 26 18 18 23 23 19 18 15 10 12 10 15 14 12 15 18 19 20 21 21 21 22 21 19 17 15 16 16 14 16 16 15 11 11 12 14 17 19 19 19 17 17 18 19 16 14
31 25 27 26 21 25 19 19 24 22 15 12 12 12 11 15 18 19 20 22 23 23 23 24 25 23 21 19 17 15 14 14 14 14 13 11 12 11 13 17 18 19 20 18 16 18 20 18 16
33 31 30 28 26 32 27 22 23 22 17 13 14 15 15 12 18 22 24 26 26 25 24 24 23 23 20 19 18 16 15 15 15 14 12 9 11 11 12 15 16 17 17 20 19 18 18 19 17
34 33 32 31 31 31 31 24 31 29 22 23 17 16 14 14 14 20 20 23 27 27 26 25 25 24 23 21 21 17 13 15 16 14 11 10 10 11 11 13 12 14 14 15 18 17 17 17 15
34 33 32 32 34 34 39 37 36 35 29 20 17 17 10 11 12 19 22 22 27 28 27 26 27 26 24 22 20 17 15 14 14 13 11 10 9 11 8 9 9 10 11 12 14 14 15 15 14
34 29 34 36 42 39 35 32 33 32 31 26 21 18 17 10 14 15 20 24 26 30 30 30 29 29 25 22 20 19 19 18 15 13 11 9 8 9 8 7 8 7 8 7 10 11 12 13 11
29 35 35 38 44 43 42 38 34 40 36 25 20 19 19 14 14 16 18 23 29 32 33 31 32 30 27 24 24 21 16 16 15 13 10 8 7 6 6 6 7 6 7 6 7 10 12 12 10
38 39 40 44 47 54 45 41 38 37 30 28 24 24 23 15 14 15 20 25 28 32 36 34 32 31 28 27 25 20 18 18 17 13 10 9 8 6 5 6 5 4 5 6 7 8 12 12 10
51 45 46 50 55 56 46 47 34 38 30 29 25 23 20 16 13 16 17 18 23 27 32 32 32 30 28 27 24 21 19 19 16 13 11 11 10 7 4 5 5 4 4 4 5 7 10 11 10
53 53 54 56 56 53 46 50 36 39 35 31 29 31 30 24 19 17 18 21 22 26 30 31 31 29 28 27 26 23 21 20 16 13 13 13 11 9 5 3 4 4 4 3 2 5 6 8 10
57 59 54 53 57 53 53 43 38 45 34 33 31 34 32 28 23 17 21 23 24 28 31 33 31 30 29 29 29 24 23 20 17 16 14 13 13 12 8 4 1 0 2 3 4 3 4 4 6
59 58 55 60 58 58 58 41 36 42 38 35 39 35 33 29 24 22 21 23 24 28 32 35 34 33 31 32 31 27 24 23 20 16 15 15 13 11 9 6 5 4 4 1 2 3 2 1 2
60 64 60 60 60 58 56 47 35 37 40 37 39 39 36 31 26 22 21 23 26 29 31 34 34 34 35 34 33 30 27 24 22 18 17 16 14 12 10 9 8 8 7 4 3 2 1 2 2
63 63 66 65 64 62 58 47 38 35 40 41 41 39 38 33 30 27 23 23 28 28 32 34 33 31 33 33 33 31 30 27 23 20 18 15 13 10 12 10 10 10 9 8 7 6 4 4 5

GFSSGP_500_spd_069.txt.gz
Wind_Speed
2 4 7 10 10 7 6 7 16 12 12 12 11 15 17 15 13 12 12 12 10 10 11 12 10 11 12 13 15 15 15 15 15 14 13 12 11 11 10 9 8 6 4 3 4 6 7 9 10
1 1 4 7 7 3 3 5 17 14 10 12 12 14 14 13 11 11 12 11 9 10 12 13 11 11 13 14 15 14 14 14 13 11 11 10 10 9 10 9 8 8 5 3 4 6 8 8 9
2 2 1 1 1 4 3 9 17 16 10 10 10 11 11 11 8 9 10 12 9 10 12 14 12 12 13 14 14 14 13 12 12 11 11 10 11 13 11 11 11 11 8 5 3 7 9 9 9
3 3 3 2 5 5 6 12 10 10 12 10 10 10 11 7 7 9 11 12 11 11 12 13 13 12 13 14 14 14 15 14 12 12 13 14 15 15 15 15 17 15 14 9 7 12 12 11 11
4 5 5 2 6 9 16 13 11 12 12 11 9 9 8 8 10 8 9 11 13 13 13 13 14 13 14 16 16 16 15 14 13 14 15 16 18 19 19 20 19 19 18 18 17 17 14 14 14
5 5 6 6 11 12 16 16 12 8 10 9 8 8 11 12 10 8 8 11 13 15 15 14 16 15 16 15 16 16 14 14 15 16 17 18 19 18 18 18 20 20 20 20 19 17 16 14 15
5 9 6 11 13 16 13 13 11 9 7 6 5 9 13 13 10 8 10 11 13 14 16 16 17 15 16 15 16 15 15 16 16 16 16 15 15 15 14 15 16 17 19 18 18 16 15 14 14
8 7 11 15 12 14 11 13 8 11 9 8 7 10 14 15 13 9 10 12 14 14 15 16 17 15 16 15 14 15 16 17 16 16 15 13 11 12 11 12 12 14 16 15 15 15 13 12 12
8 11 15 9 10 13 14 11 12 7 7 7 9 10 11 14 15 13 12 13 14 13 14 15 15 15 16 15 15 16 16 17 17 16 13 11 10 8 7 9 12 12 13 12 12 10 13 12 11
12 14 14 6 8 13 13 11 7 5 6 7 11 13 15 12 14 16 15 17 15 14 15 15 15 15 15 16 16 17 17 17 17 14 11 11 12 14 11 15 14 12 10 9 9 8 9 10 9
17 18 15 10 7 10 16 10 12 4 5 9 12 16 18 13 13 15 15 19 19 17 16 16 15 15 16 16 17 17 16 16 15 13 11 12 13 14 11 12 10 9 10 7 6 8 8 7 7
22 22 21 17 12 13 14 9 10 8 6 10 12 14 17 19 16 17 15 17 19 19 17 17 16 15 16 17 17 16 15 14 13 13 11 12 14 13 10 11 11 11 10 8 6 4 6 5 5
24 24 21 19 17 16 15 11 13 9 10 13 13 16 17 17 17 15 17 19 19 20 19 18 18 18 17 18 18 17 16 14 14 16 13 11 14 14 12 11 12 10 10 8 8 6 4 5 6
28 28 24 20 18 18 14 13 12 14 12 17 14 17 17 17 19 17 20 20 21 20 20 19 19 19 19 19 19 19 17 14 14 15 12 11 11 12 12 10 11 11 11 9 9 8 8 9 8
32 28 25 21 21 19 16 11 12 15 15 15 17 18 18 17 19 21 25 25 22 23 23 21 20 21 20 19 18 19 16 15 15 14 12 12 13 12 12 11 13 11 15 14 13 13 14 13 11
34 31 26 23 21 20 16 15 18 17 15 17 18 18 18 20 21 19 20 26 24 23 24 22 22 21 21 19 19 17 16 16 18 14 12 13 13 13 13 13 14 13 17 17 14 14 13 14 14
37 32 25 25 22 21 17 20 20 19 17 16 15 18 20 20 19 18 20 24 26 26 25 25 25 23 20 17 16 15 16 17 18 14 12 13 15 15 15 15 17 17 18 20 18 17 15 16 15
29 26 28 25 23 22 19 26 25 26 21 18 17 15 16 21 23 21 21 25 26 26 27 27 28 26 21 16 14 14 15 16 16 13 12 12 15 17 16 17 18 19 20 20 19 19 17 17 15
30 31 29 28 27 26 21 29 29 32 23 19 19 20 20 21 24 26 25 27 28 28 27 27 27 26 23 18 18 17 17 16 16 13 11 11 14 16 16 15 18 19 21 20 19 18 18 15 14
33 35 33 30 30 30 30 31 33 29 27 25 23 22 21 17 16 22 24 28 28 28 29 27 28 26 25 23 22 18 17 17 17 14 12 11 13 15 13 13 13 16 17 17 16 17 17 14 13
33 34 33 32 35 33 38 39 35 31 29 29 22 21 18 19 18 20 24 27 30 30 29 29 28 28 26 24 21 18 16 17 17 15 13 11 11 12 12 12 11 12 13 13 13 14 15 15 13
37 31 35 35 38 38 40 46 43 33 29 32 22 18 19 18 18 17 25 29 32 32 32 32 32 30 28 24 22 21 22 23 22 17 14 12 11 11 10 10 11 9 9 10 11 12 13 13 13
35 35 35 38 43 42 44 46 44 40 37 33 26 21 20 18 20 20 23 28 34 36 34 34 35 33 29 24 24 23 21 19 18 16 13 12 11 10 9 8 9 8 8 9 10 11 10 12 14
42 42 40 44 46 56 47 48 44 41 34 30 32 29 24 25 19 21 25 32 34 38 39 37 36 35 31 28 27 24 21 20 19 17 14 12 11 11 9 8 8 8 8 8 10 10 9 12 13
52 50 46 47 54 55 46 51 40 41 37 33 28 27 29 28 22 21 22 24 29 32 36 37 36 34 31 30 29 24 22 23 21 18 14 14 12 11 10 8 8 9 8 7 10 9 10 13 13
53 54 52 53 54 51 50 55 40 39 38 41 34 33 33 30 23 22 21 24 27 29 35 34 34 33 33 31 30 25 22 22 20 16 15 16 15 13 12 9 8 7 8 8 8 8 9 12 12
58 58 51 55 55 51 56 52 36 46 44 44 38 37 32 27 24 20 21 22 26 30 32 34 34 34 33 32 31 27 24 21 19 18 17 16 16 15 13 12 9 7 6 8 8 8 7 8 9
57 58 57 58 60 58 60 48 41 46 42 43 42 42 35 33 31 29 25 23 25 28 34 38 38 37 35 34 33 30 26 23 21 19 18 17 18 16 14 12 10 9 7 6 6 8 7 6 5
60 60 63 60 61 61 60 49 43 40 41 48 41 38 36 37 32 29 24 23 26 30 35 37 40 40 39 38 36 33 28 25 22 20 19 19 19 17 14 12 10 8 8 7 4 4 5 6 5
60 62 64 66 64 64 63 53 43 35 41 49 43 41 41 37 33 28 25 25 29 30 33 34 38 39 40 38 36 34 32 28 25 24 21 20 20 17 15 14 12 10 9 9 7 5 4 4 5

GFSSGP_500_spd_072.txt.gz
Wind_Speed
5 7 8 10 12 10 9 10 12 9 10 12 16 18 15 15 13 12 12 13 12 13 13 14 12 13 14 15 15 15 15 15 14 12 13 11 10 10 10 9 7 5 4 6 8 8 9 10 11
3 5 3 9 7 5 3 10 18 10 9 14 13 14 13 13 11 12 13 12 12 13 15 15 12 14 14 14 14 13 13 12 12 11 11 11 9 11 11 9 7 4 2 5 8 10 10 11 11
3 4 3 2 2 4 6 15 17 14 11 10 12 11 10 12 9 8 12 14 13 13 15 15 13 14 15 14 13 12 11 11 10 10 12 12 11 12 12 10 9 8 5 7 10 11 11 12 12
2 2 4 5 4 5 9 14 18 13 10 11 11 11 9 8 7 7 11 14 14 13 15 14 13 14 14 14 12 11 10 10 10 11 12 12 13 15 15 15 14 13 11 11 13 14 13 14 13
4 4 4 5 10 9 14 11 14 13 10 10 10 9 8 8 9 7 10 14 16 15 15 15 14 14 15 14 12 11 9 10 12 13 14 16 16 17 18 18 19 20 20 19 17 16 14 15 14
5 6 6 4 7 14 17 14 13 11 11 8 8 9 9 10 9 8 10 15 15 15 15 15 16 15 15 15 13 11 10 12 13 15 16 16 15 16 16 18 19 21 20 19 16 15 14 15 15
6 8 6 6 14 15 16 16 11 12 11 8 6 9 11 10 9 10 11 15 16 15 15 15 16 16 16 16 13 12 13 13 15 15 14 13 12 12 13 14 16 18 20 17 15 13 12 12 13
7 12 11 12 14 14 16 14 10 9 9 6 5 9 13 13 11 10 12 15 16 15 15 15 16 16 17 16 14 14 14 14 14 13 13 11 9 8 10 12 13 15 16 16 16 15 13 11 10
12 11 15 13 11 13 13 13 11 8 6 7 7 9 13 13 14 13 14 15 16 15 16 15 16 16 17 16 15 15 14 14 14 13 12 9 6 5 8 9 11 13 13 13 15 13 12 11 11
14 16 21 11 11 11 10 8 8 6 6 8 10 12 15 14 15 18 18 18 17 18 17 16 15 15 16 16 15 15 15 14 13 12 12 10 11 11 12 10 9 10 11 10 11 11 11 9 9
16 24 19 11 9 9 12 8 6 7 3 7 11 13 17 15 13 18 20 22 20 19 18 17 16 14 16 16 15 15 14 13 12 12 11 11 10 10 9 8 8 9 9 8 10 10 9 9 10
22 24 21 14 10 9 12 12 6 10 8 7 11 14 17 17 14 18 19 19 20 20 18 17 17 15 16 16 15 14 13 12 11 12 12 12 11 10 11 12 12 10 8 8 6 7 7 9 9
26 25 22 16 13 10 11 14 9 10 7 8 11 15 18 17 17 18 22 21 21 21 20 18 18 17 17 16 15 13 13 11 12 12 11 12 12 11 12 11 11 10 11 8 5 5 6 7 8
31 28 22 19 18 15 14 14 10 11 11 12 14 16 18 18 17 17 22 21 22 22 21 20 18 18 18 17 15 13 12 12 12 12 12 10 10 12 11 11 12 12 11 11 8 6 9 9 9
30 30 25 21 20 18 16 15 14 14 14 15 18 17 18 18 17 20 25 24 23 24 23 22 21 20 19 18 16 13 14 12 12 12 12 11 9 9 12 11 13 12 13 14 13 13 13 10 11
31 30 21 24 22 19 18 16 15 15 14 16 18 20 21 21 21 19 24 25 25 24 24 24 23 22 21 18 17 13 12 12 11 12 13 12 11 11 12 14 15 14 12 15 14 14 13 12 13
36 31 24 25 23 21 21 22 17 15 15 17 21 22 23 24 23 20 21 25 26 26 25 25 25 24 21 19 16 15 15 15 11 12 14 14 14 13 14 15 15 15 14 14 13 15 14 13 14
33 29 29 28 25 23 22 24 23 18 18 20 21 21 24 24 24 21 20 25 26 26 26 26 27 25 22 18 16 16 17 16 14 13 14 15 16 16 16 16 15 15 16 16 15 15 15 13 13
31 34 32 31 33 28 24 26 27 25 25 23 21 20 22 25 26 25 24 26 26 27 27 26 26 25 22 19 18 17 19 17 15 14 14 16 15 15 16 19 16 16 16 16 13 14 14 14 13
32 35 35 33 36 33 29 31 30 30 33 29 24 21 21 22 21 24 26 26 27 27 28 28 27 26 25 23 22 20 20 18 16 14 14 16 15 15 14 16 15 14 15 13 11 11 11 11 11
35 35 36 35 33 35 33 34 35 35 37 32 27 23 22 22 22 25 25 28 29 28 28 28 28 28 27 24 21 20 19 18 17 15 14 13 13 12 13 13 11 12 12 12 11 10 10 8 7
40 35 39 38 41 36 36 34 36 36 36 35 30 22 20 20 21 20 27 29 31 30 30 31 31 31 29 25 22 21 22 22 19 15 14 14 12 11 11 12 11 11 10 10 10 10 10 7 6
39 41 40 39 44 42 39 43 32 40 40 37 29 24 21 20 21 22 23 29 34 36 34 33 33 31 29 27 24 24 23 21 18 16 13 13 12 11 10 11 10 10 9 9 10 10 10 10 8
43 47 42 42 45 52 49 44 42 45 43 35 32 28 23 22 20 20 22 32 37 40 39 37 35 33 31 28 25 23 21 21 20 18 15 14 13 12 10 9 8 9 9 8 9 11 11 12 10
51 48 48 47 49 52 48 51 47 43 46 40 35 32 29 29 25 23 24 26 34 37 39 38 36 34 32 29 28 25 21 21 22 19 15 14 13 10 8 8 8 7 8 10 9 11 12 11 11
54 52 52 50 47 48 47 55 52 49 48 46 43 39 38 36 29 28 24 24 32 33 37 37 36 37 33 30 30 27 22 24 23 19 17 15 13 11 9 9 9 10 9 10 9 12 12 12 11
56 58 51 41 31 48 39 49 51 48 48 47 46 42 40 35 30 28 24 24 28 33 35 37 37 37 36 33 33 29 24 24 22 21 18 16 15 14 13 10 10 10 10 10 10 11 11 12 11
58 52 56 56 48 51 42 41 50 47 45 43 43 44 36 34 34 30 26 25 26 30 34 39 40 40 37 38 36 33 29 27 25 23 19 17 17 16 15 13 11 10 9 9 10 12 12 12 12
59 62 58 55 57 52 40 35 48 43 42 43 42 44 39 39 35 31 28 24 25 29 34 38 41 41 40 39 39 35 32 30 28 23 22 19 18 17 16 15 12 12 11 10 11 11 12 13 12
60 62 61 53 60 60 38 34 49 49 36 37 43 46 47 45 40 37 33 30 27 27 29 34 40 42 41 40 40 37 35 33 28 26 24 21 19 19 19 18 16 15 15 13 11 12 12 10 10

GFSSGP_500_spd_075.txt.gz
Wind_Speed
6 8 11 12 11 8 8 9 8 4 7 13 13 16 15 14 10 10 9 10 9 10 12 15 16 16 16 16 15 14 13 12 11 11 11 10 10 9 7 5 4 4 4 4 6 7 8 9 11
5 7 8 7 4 3 6 11 16 7 9 16 16 13 11 12 9 10 10 9 9 11 13 15 15 16 15 15 14 13 11 11 11 10 11 10 9 8 8 6 3 3 5 6 6 6 7 7 9
5 6 4 4 3 3 1 13 20 10 13 15 16 12 9 10 8 6 11 11 10 10 13 15 14 14 14 14 13 11 11 11 11 9 10 11 11 11 11 10 8 4 7 9 9 9 10 10 10
4 4 3 3 4 5 7 16 14 11 11 13 10 10 8 7 6 6 10 12 13 12 12 14 13 12 13 13 12 11 10 9 10 10 11 13 14 15 16 15 12 9 12 13 13 12 12 10 7
4 4 3 3 6 8 7 15 13 10 9 11 11 9 6 7 7 6 10 13 14 13 13 13 14 12 13 12 12 11 9 9 10 11 13 15 15 15 17 19 19 18 17 16 14 12 12 11 21
5 4 6 7 9 14 13 13 13 12 10 8 8 7 7 6 8 6 8 12 14 14 13 14 14 12 13 12 11 10 9 8 9 12 13 14 13 14 18 20 22 21 19 16 14 14 13 12 11
6 5 3 4 6 10 15 15 10 11 9 7 6 8 7 5 6 8 8 12 13 13 13 13 14 13 13 12 10 9 9 10 11 10 10 10 11 13 16 17 19 19 17 15 13 12 12 12 12
8 10 4 5 7 14 12 14 11 11 9 6 5 6 9 7 6 8 9 12 14 14 13 14 13 13 12 11 10 10 10 10 8 7 7 7 9 12 15 13 15 16 16 16 15 14 13 11 10
9 14 13 13 11 6 14 14 10 12 6 5 5 7 10 8 8 9 9 11 13 14 13 14 13 13 12 11 11 11 10 9 8 7 8 7 7 9 11 11 12 13 13 15 14 13 14 12 11
15 15 15 5 18 26 12 13 10 9 6 5 6 9 11 11 11 13 13 14 16 16 14 14 12 12 12 12 11 11 11 9 9 9 9 11 13 12 11 10 10 11 10 11 12 13 12 15 8
18 17 11 16 14 11 9 8 5 7 7 6 8 11 13 13 12 14 17 18 18 17 16 14 13 13 13 13 12 12 10 10 9 7 8 9 10 11 9 8 8 9 8 10 11 12 13 11 7
19 20 22 11 11 8 8 8 4 7 11 4 7 10 14 15 12 13 17 16 17 18 18 17 14 14 13 13 13 12 9 9 9 10 10 10 10 12 14 10 9 8 6 7 8 10 10 9 8
23 25 25 18 10 9 14 8 10 9 8 5 9 11 16 16 14 14 18 18 19 19 19 18 17 15 15 15 14 12 9 7 8 8 11 12 11 12 12 10 9 11 8 4 8 8 9 9 7
27 28 27 20 16 13 11 14 14 12 12 8 10 12 15 17 16 15 18 19 19 20 21 20 19 17 16 14 13 12 10 8 7 8 10 12 12 11 12 11 12 14 13 13 9 10 5 9 9
24 25 24 22 19 18 16 16 17 15 14 11 11 15 15 17 17 16 21 21 21 22 22 21 20 18 17 15 12 12 12 8 8 9 10 12 13 11 11 12 14 15 16 15 15 13 11 9 8
27 26 24 24 23 21 21 18 18 15 16 15 12 17 18 17 20 18 19 22 22 22 22 22 20 19 17 15 14 13 12 10 9 8 9 11 12 11 11 13 14 13 14 14 13 11 12 12 13
32 28 24 24 26 24 23 21 32 19 16 15 13 18 20 22 22 19 17 22 23 24 23 23 21 20 18 15 12 12 14 13 10 9 9 11 12 12 10 14 13 13 13 14 13 9 12 13 14
29 28 29 26 28 26 26 25 31 10 16 16 14 18 21 23 22 21 19 21 23 23 24 24 22 20 18 15 13 13 16 14 12 12 11 10 13 12 11 13 14 15 14 14 12 11 9 7 11
26 28 31 27 27 28 28 26 31 15 22 20 14 17 21 23 24 23 22 21 23 23 24 24 23 20 19 16 15 15 16 16 14 13 12 11 12 12 11 11 12 12 13 13 13 10 11 9 9
34 31 33 32 29 29 29 28 34 21 25 25 16 19 21 22 21 22 22 22 23 23 24 24 24 23 21 19 17 15 15 15 14 14 14 13 12 12 12 11 9 9 9 10 11 10 11 10 9
38 33 33 36 28 33 27 29 32 38 33 27 26 23 20 18 19 21 22 23 25 24 24 25 26 26 24 21 19 17 16 16 15 14 13 12 11 10 10 10 7 7 7 7 7 6 7 8 9
38 35 37 39 34 33 37 31 33 41 24 23 32 27 23 20 20 20 22 24 26 27 27 28 28 27 26 23 21 19 19 18 17 15 13 12 11 9 9 9 7 6 5 6 7 6 4 5 7
40 39 39 39 44 35 28 38 27 34 36 31 34 28 22 19 17 18 21 25 28 31 30 31 30 30 28 25 22 22 21 19 16 14 14 13 11 10 8 7 5 4 3 3 5 5 4 5 5
44 44 45 42 43 48 44 32 34 31 35 32 34 30 26 23 20 21 24 24 29 32 33 33 32 32 30 27 24 22 22 20 18 15 13 13 11 10 9 7 6 5 4 5 5 6 5 5 4
47 48 46 46 46 49 43 43 32 30 36 29 33 31 30 26 25 24 23 22 24 30 33 33 33 33 31 28 26 24 22 21 21 18 14 12 12 10 9 8 7 7 6 5 5 8 7 6 4
53 52 51 37 39 44 41 43 46 36 23 32 27 36 34 32 29 26 22 19 22 27 31 34 33 35 32 29 28 26 23 21 23 20 16 14 12 11 10 8 8 6 7 6 7 9 9 8 7
49 55 47 33 27 33 29 41 34 45 31 36 42 36 45 37 34 31 27 21 21 24 30 32 35 37 34 33 31 29 26 22 23 22 19 16 14 14 11 8 7 6 6 8 9 10 10 9 9
43 32 47 43 39 34 31 29 33 41 44 42 42 34 37 35 37 36 32 26 22 23 27 32 36 38 38 37 34 31 28 24 25 24 21 18 16 17 14 10 8 7 6 7 9 10 11 11 11
54 57 46 37 41 37 29 29 25 30 41 41 46 45 44 42 36 37 34 28 28 27 28 31 34 39 39 37 36 33 31 28 27 25 23 20 18 18 17 13 12 10 7 6 8 9 10 12 12
37 38 50 39 39 42 33 29 14 26 27 31 42 32 38 38 39 38 37 33 31 25 26 29 33 36 40 39 39 37 35 31 29 25 24 22 19 19 18 16 15 14 12 9 8 10 11 11 12

GFSSGP_500_spd_078.txt.gz
Wind_Speed
6 7 11 10 8 6 6 5 12 5 7 9 10 9 9 9 7 5 2 5 7 10 13 14 13 13 14 14 14 12 12 11 10 9 8 8 7 7 7 5 3 3 5 6 8 8 8 9 10
6 6 8 6 4 7 1 5 9 4 8 11 12 5 7 8 8 5 5 5 7 11 13 14 13 13 12 13 12 11 11 9 8 10 9 9 10 9 7 4 2 3 4 5 6 9 9 10 11
6 5 4 3 5 5 2 7 12 5 12 13 10 7 5 5 5 4 3 7 10 12 13 14 13 12 12 12 12 11 10 9 9 10 11 12 13 12 9 6 3 5 7 7 8 9 9 9 11
5 5 3 2 6 5 4 9 9 11 12 10 10 5 3 2 3 1 4 8 10 11 12 13 13 12 12 12 11 10 11 10 11 12 15 15 16 14 14 11 8 10 10 10 10 10 8 8 15
5 4 1 3 6 5 3 14 13 11 9 9 7 5 3 2 3 1 3 8 10 11 10 11 13 12 11 12 12 11 11 11 12 14 14 16 15 17 19 19 18 16 14 12 11 10 13 17 11
5 3 3 6 9 9 5 14 11 10 9 9 8 5 2 2 1 2 3 7 9 11 10 10 12 11 11 11 11 12 12 12 13 13 13 14 13 16 19 19 21 19 17 14 14 13 13 12 12
6 6 8 7 7 10 13 13 12 12 8 7 5 6 4 3 2 2 3 6 9 11 10 10 11 11 11 11 11 12 12 12 10 9 9 11 11 11 16 19 19 19 16 14 13 13 13 13 14
8 9 11 7 8 20 18 14 12 12 8 6 6 6 5 4 3 2 4 4 8 11 9 9 10 11 12 12 11 11 11 9 7 7 7 8 9 9 13 16 18 19 17 15 14 13 12 12 11
11 15 12 3 5 12 11 10 9 12 10 8 6 7 7 5 5 4 5 6 8 11 10 8 9 9 11 11 9 9 9 8 7 6 7 5 11 13 11 14 14 15 14 12 13 15 14 11 14
15 18 18 16 12 15 12 15 16 11 9 6 6 6 6 7 6 7 9 10 10 12 11 9 8 8 10 10 8 9 9 8 8 9 8 15 15 14 12 15 12 10 8 9 14 14 8 8 19
17 18 17 15 21 13 6 7 5 13 10 7 8 6 7 8 7 8 10 11 12 12 13 11 9 8 10 9 8 10 9 8 10 7 7 10 10 6 11 14 9 7 5 9 14 17 9 4 14
19 19 16 12 9 11 7 5 19 4 8 5 5 7 6 9 8 6 10 10 12 13 13 12 10 9 9 10 9 9 8 7 7 8 8 10 12 12 16 11 8 4 3 4 4 19 10 13 14
20 15 17 10 9 4 10 14 12 12 4 1 5 6 7 10 8 7 10 11 13 15 14 13 11 10 10 10 9 9 7 5 5 8 6 11 13 13 15 9 9 7 3 12 9 12 9 13 14
22 20 20 19 11 3 10 12 9 8 4 8 5 8 10 10 10 9 10 11 13 15 15 14 12 12 12 10 8 7 7 5 7 7 12 16 14 12 13 12 10 7 8 13 8 12 11 11 12
19 22 22 20 12 10 13 6 13 10 13 8 10 10 11 10 10 11 10 13 14 16 16 15 13 12 12 10 7 8 8 7 11 10 11 15 12 12 13 13 14 15 15 15 12 11 9 10 11
23 21 22 23 21 18 16 12 19 15 15 12 11 10 12 11 11 13 10 12 15 16 17 16 14 13 12 11 9 8 7 7 9 13 12 11 10 12 14 13 13 14 13 14 12 11 12 14 12
26 23 20 24 24 22 21 19 23 28 27 16 14 12 12 14 14 14 12 11 15 17 18 18 16 14 12 11 9 8 7 8 8 12 12 11 12 13 16 12 13 13 12 12 11 12 12 14 12
25 24 25 23 22 25 27 30 28 24 16 12 13 14 11 14 16 16 13 12 15 17 19 18 17 14 13 11 8 9 9 9 8 11 11 12 12 12 13 12 13 13 12 11 11 11 12 12 12
26 27 24 27 21 21 25 28 27 27 30 26 14 13 10 14 17 17 14 15 16 16 18 19 18 15 15 13 11 11 10 9 9 9 10 11 10 11 11 10 10 10 10 12 13 12 11 11 11
30 29 31 20 20 22 23 31 32 27 23 18 12 10 12 13 14 15 14 17 18 18 18 20 20 17 16 16 15 13 11 10 10 11 12 10 10 8 7 9 9 9 9 9 11 13 11 12 13
33 34 28 32 23 22 25 29 32 31 33 23 19 16 15 12 11 12 14 17 19 19 19 21 22 21 18 16 17 17 15 12 10 10 10 9 8 8 5 5 7 7 6 6 8 9 10 12 11
36 34 33 35 33 27 26 30 35 31 20 16 27 23 20 14 9 10 12 18 18 22 22 23 23 24 21 18 17 18 17 15 13 11 9 8 7 6 4 3 4 5 5 3 4 7 7 8 10
37 36 36 37 38 37 30 30 25 33 30 27 34 26 23 19 13 11 14 17 21 23 25 25 25 25 23 20 18 18 17 15 13 12 10 7 6 5 3 2 1 2 4 3 3 4 5 6 7
43 41 41 40 39 46 41 29 27 41 26 28 20 24 25 24 18 15 17 17 20 23 25 25 26 26 25 22 20 19 19 18 15 13 12 10 8 5 3 2 2 0 2 1 2 2 2 4 5
48 45 42 43 42 47 42 44 37 19 28 28 24 27 26 25 22 20 18 19 19 21 23 26 26 27 27 25 22 20 20 20 18 16 12 11 9 6 5 4 3 2 2 2 0 1 1 1 4
52 48 43 43 39 42 41 44 42 27 30 37 31 35 26 29 26 23 19 19 20 18 22 26 27 29 29 27 24 23 21 19 20 18 14 12 9 8 6 4 3 3 3 2 2 2 1 0 3
43 44 44 31 27 32 27 34 34 33 25 35 32 34 38 41 30 25 24 22 17 16 18 25 28 31 31 30 28 25 23 19 19 21 18 14 11 10 7 5 3 4 4 4 3 3 3 2 3
39 35 35 36 34 35 25 26 31 28 42 32 48 40 47 42 34 34 28 27 22 17 20 22 28 32 33 33 31 28 25 22 20 22 20 18 15 13 11 7 5 5 5 6 6 5 4 5 5
31 42 35 30 37 34 27 22 18 31 26 44 45 49 45 39 43 38 31 29 28 24 22 21 26 31 33 34 32 29 27 25 22 21 21 19 18 15 14 11 8 8 6 5 6 6 6 7 6
41 37 36 35 42 39 29 25 17 26 29 30 33 38 43 43 27 36 23 28 26 28 22 19 21 27 33 35 36 34 33 30 25 23 21 21 19 17 16 14 13 11 8 6 5 6 7 8 8

GFSSGP_500_spd_081.txt.gz
Wind_Speed
3 3 3 4 4 1 5 13 7 7 7 8 11 9 6 10 6 6 6 7 8 11 12 14 15 15 14 13 12 10 12 11 10 10 9 8 7 6 4 4 4 6 8 10 10 9 8 9 11
4 2 3 5 2 5 7 11 3 6 6 8 9 9 6 7 3 3 5 6 7 10 11 13 14 13 13 12 10 11 11 11 13 11 10 11 10 8 5 4 4 6 8 9 10 10 9 10 11
4 4 1 2 5 3 10 6 2 3 10 11 8 8 5 6 5 5 4 7 8 9 10 11 12 13 12 11 11 10 10 12 14 13 14 15 15 13 11 6 7 8 10 11 11 10 10 12 13
5 3 1 1 4 9 11 9 7 6 12 10 6 6 5 4 6 6 5 7 8 8 9 11 12 12 12 12 11 9 11 14 16 16 16 17 18 18 16 13 13 13 12 12 11 9 9 14 14
7 6 3 2 4 1 4 11 9 8 8 9 6 4 4 4 5 6 5 6 9 9 9 10 11 12 11 11 11 11 14 16 16 14 16 17 20 20 20 20 19 17 14 12 12 15 15 18 16
7 6 4 2 8 9 1 15 10 6 10 10 6 4 1 3 3 5 6 6 7 10 9 10 10 12 11 10 12 15 16 15 13 14 15 16 17 17 18 19 19 17 15 14 14 13 15 15 16
9 7 7 7 13 8 9 17 13 9 11 9 6 5 1 1 3 4 8 7 7 8 9 10 10 11 11 12 14 14 13 12 11 11 10 11 12 14 16 18 17 17 16 15 15 14 14 14 14
8 10 7 9 16 15 21 21 16 11 8 7 6 5 3 1 3 4 7 9 8 8 9 10 9 10 11 12 13 12 9 10 10 8 7 7 8 11 14 17 17 16 14 13 15 14 14 13 13
12 13 8 5 14 12 21 20 17 10 11 10 7 6 5 2 2 3 8 9 9 8 9 10 10 9 10 11 11 9 8 10 8 9 6 7 9 10 10 15 15 16 15 15 15 14 14 14 12
15 15 13 15 8 6 6 14 11 7 15 13 5 4 4 2 2 6 6 9 9 9 9 10 9 9 9 10 10 9 8 11 13 14 17 12 9 12 10 13 11 11 15 16 17 12 13 14 16
14 12 11 12 12 5 3 6 10 8 4 3 3 5 3 1 1 6 1 8 9 8 8 10 8 7 8 9 10 8 11 14 13 12 9 9 8 8 10 9 10 12 11 14 14 11 12 17 18
15 12 11 13 6 8 14 9 7 15 14 6 6 6 3 1 1 5 3 6 8 9 8 10 9 8 9 8 8 9 9 12 13 11 11 13 18 7 8 6 4 16 9 8 19 17 16 15 16
15 12 14 12 10 10 9 6 15 14 16 9 6 6 3 3 1 4 3 3 7 10 9 9 11 7 8 6 5 7 8 10 10 15 14 8 14 12 7 10 11 7 10 15 19 18 18 15 16
17 16 12 9 10 17 5 7 4 5 11 8 6 5 7 4 3 1 1 4 6 9 8 8 10 8 9 8 4 6 7 11 7 14 16 14 12 12 14 16 15 8 7 15 19 17 17 15 16
17 14 17 14 14 5 8 9 4 15 14 7 4 6 8 5 5 4 1 4 7 10 10 8 9 9 8 8 6 6 9 13 11 13 15 14 11 10 16 15 14 11 17 17 16 15 15 15 14
21 15 12 16 16 9 9 6 11 16 10 6 6 5 8 7 7 6 5 3 6 9 11 10 9 9 7 6 6 3 8 12 11 10 15 13 12 13 15 14 15 14 15 17 16 17 15 17 14
21 17 14 15 16 17 18 22 15 21 6 17 5 4 7 9 7 7 6 4 8 10 11 11 11 10 8 8 6 6 8 10 9 10 13 13 10 13 16 17 16 16 17 19 17 16 17 17 14
21 20 18 15 17 20 20 24 18 20 18 10 9 9 8 9 11 12 9 7 9 10 11 12 10 10 9 8 7 4 6 9 10 11 11 12 11 14 15 15 17 16 18 18 16 14 16 15 14
23 27 27 23 6 17 19 24 21 24 19 15 20 13 15 11 11 13 11 8 10 13 12 13 13 11 10 10 9 8 8 8 11 11 11 12 11 14 14 14 16 16 17 16 16 15 17 16 13
26 25 27 27 15 11 16 23 19 17 20 24 27 28 19 12 10 13 10 9 11 15 15 14 15 13 11 11 12 10 9 10 11 10 10 10 12 12 13 13 13 15 14 13 16 14 14 15 13
28 26 25 28 26 26 24 27 26 24 22 25 27 18 19 13 9 11 11 11 13 15 17 17 18 16 14 13 13 12 10 11 11 10 9 8 9 11 11 10 10 11 12 14 14 13 12 12 9
29 29 27 28 35 34 29 28 35 30 22 19 30 24 22 12 15 8 7 12 14 17 18 20 19 19 16 15 16 14 13 13 12 11 9 8 5 7 7 6 7 8 9 11 10 9 11 13 12
29 32 32 34 34 36 37 37 31 35 31 27 24 14 28 19 13 11 10 12 16 18 19 21 22 21 18 16 18 17 14 13 11 10 8 7 5 4 4 4 4 6 7 7 8 8 9 11 12
37 35 35 38 40 40 36 41 37 32 27 24 21 17 17 17 15 15 12 13 14 17 20 20 21 22 22 19 17 19 16 14 12 10 9 7 5 2 2 4 5 5 5 6 6 7 8 9 10
42 41 39 39 41 37 34 40 39 35 23 15 22 21 12 12 19 16 13 11 12 15 19 22 22 22 23 22 19 20 21 18 15 12 8 8 5 3 1 3 4 3 4 4 5 7 7 8 10
46 44 43 42 39 35 31 40 36 35 33 22 23 22 23 20 17 22 18 16 15 16 18 23 24 25 24 24 23 21 21 22 19 16 12 9 8 6 2 1 2 1 0 2 4 5 7 8 9
40 44 41 41 38 36 33 29 27 24 30 32 32 28 27 27 22 30 25 18 15 16 16 21 26 27 27 26 25 23 21 21 22 21 17 14 11 9 6 3 1 1 2 2 2 4 5 7 8
43 39 33 35 39 42 35 28 15 9 17 39 38 26 26 28 33 34 28 27 19 18 17 17 22 27 29 30 27 26 25 23 23 23 21 18 14 12 8 4 2 3 3 3 2 2 2 5 6
29 28 33 30 32 37 35 28 13 19 9 24 26 28 42 41 39 29 43 31 31 24 17 13 17 24 28 29 29 28 25 24 23 22 22 21 17 14 10 8 5 6 5 4 4 4 4 3 5
37 38 43 39 37 34 33 28 24 18 22 29 26 24 26 37 37 38 32 41 35 32 21 17 17 18 27 31 31 31 30 27 23 21 22 22 20 17 14 11 9 8 7 6 5 5 5 4 5

GFSSGP_500_spd_084.txt.gz
Wind_Speed
0 4 4 4 2 4 15 11 10 16 13 14 10 9 9 7 11 11 9 10 9 14 13 15 14 14 14 13 10 11 9 8 9 10 10 9 7 5 4 6 7 8 10 12 13 13 13 13 15
3 3 3 4 4 10 10 11 8 13 13 11 9 9 8 8 7 7 9 8 9 13 13 13 13 11 11 11 11 11 9 11 11 11 12 12 9 6 4 5 8 9 10 10 11 12 13 14 14
5 4 2 2 8 10 11 12 8 10 17 13 10 7 8 8 9 7 8 9 9 11 12 12 12 11 10 12 12 12 11 11 13 15 16 15 13 9 7 9 11 11 11 10 10 10 12 14 14
6 4 2 4 8 11 3 9 9 11 13 9 8 6 7 8 10 8 7 9 10 11 11 11 12 11 10 12 14 13 13 15 16 15 16 17 17 15 14 14 16 15 13 12 9 11 13 13 14
6 5 2 4 5 11 12 17 14 14 13 10 6 5 4 8 8 9 8 9 10 11 10 10 11 10 10 14 14 13 15 14 14 15 15 18 19 17 16 17 17 17 16 16 13 14 16 15 15
7 6 4 6 3 10 17 15 12 11 10 11 5 5 6 7 7 8 9 9 9 12 10 9 11 11 11 15 14 14 14 12 12 13 14 17 15 15 17 17 16 17 18 17 18 16 13 15 14
7 5 5 8 1 14 12 20 14 10 9 9 6 4 6 6 5 8 9 10 10 10 11 10 10 11 11 16 16 13 11 10 9 10 11 14 14 14 16 15 16 16 17 19 19 19 18 14 13
8 8 8 8 9 25 15 15 18 14 9 8 4 5 8 6 4 8 9 11 10 10 11 11 11 11 12 14 14 10 10 10 9 8 9 10 13 12 13 14 15 16 16 16 17 18 18 16 13
10 11 8 12 9 11 21 20 25 16 15 10 9 2 6 8 4 6 8 9 10 10 11 11 11 11 11 11 11 10 11 10 10 7 9 11 9 11 10 13 15 16 15 18 16 16 14 13 10
14 13 10 10 11 4 16 13 22 11 13 16 9 4 5 8 6 4 9 9 10 10 12 11 10 10 10 11 11 9 11 10 12 17 11 11 8 8 8 12 13 15 18 16 16 15 14 14 12
18 12 13 9 8 7 6 4 11 13 11 14 9 6 5 9 8 3 5 8 10 9 11 12 10 9 10 11 10 8 11 15 13 10 8 7 8 8 7 6 12 14 18 14 15 17 15 11 14
17 14 16 8 4 5 9 14 18 12 16 10 8 9 4 8 8 4 7 8 10 8 9 11 11 9 10 11 9 7 10 15 12 12 12 16 8 8 3 6 16 13 12 19 15 14 14 13 15
16 16 16 9 6 5 1 10 3 16 14 10 9 7 7 8 8 4 6 7 11 9 7 11 12 10 10 14 8 6 9 14 14 11 10 14 11 11 13 10 15 18 21 18 16 15 15 14 16
17 16 16 16 13 7 3 3 6 8 13 4 2 6 6 7 8 6 8 7 9 9 8 8 11 11 10 14 10 6 8 11 11 11 13 13 14 17 18 19 17 19 18 18 17 15 15 14 18
18 11 16 12 9 15 7 7 7 5 5 8 3 5 5 5 9 6 9 10 8 11 8 7 9 12 11 12 12 10 8 12 14 8 13 14 14 17 16 20 21 23 19 19 18 15 15 16 18
15 10 10 11 13 13 9 8 5 9 7 9 6 7 2 4 7 8 10 12 10 9 10 9 10 11 11 10 12 8 5 11 9 13 16 15 16 19 19 21 20 20 22 21 19 16 15 17 17
19 13 12 12 12 11 13 10 12 6 8 8 10 8 7 7 8 8 10 13 11 12 13 12 11 11 11 11 11 8 6 9 6 14 16 15 16 18 20 22 22 19 20 21 20 18 16 16 15
20 23 21 19 12 13 17 15 9 9 4 3 10 4 8 7 9 10 12 15 12 12 12 13 11 12 11 11 11 9 7 9 12 11 13 15 17 18 18 20 20 17 19 18 19 19 18 16 15
21 23 22 23 19 15 15 15 10 10 7 7 15 12 8 8 12 15 14 14 15 14 13 13 13 13 11 9 10 9 9 10 12 10 13 15 16 16 18 18 18 17 18 16 16 16 17 17 14
24 23 21 25 24 24 18 8 12 12 10 11 12 7 17 14 7 13 15 14 15 17 17 15 14 14 12 11 11 10 9 10 10 11 12 13 15 14 16 17 18 18 17 16 14 15 13 17 17
26 24 23 28 27 27 25 22 18 14 14 11 9 10 15 20 9 12 15 16 15 17 18 17 16 16 13 12 11 11 9 10 9 10 12 12 11 10 13 15 15 16 15 15 13 11 10 15 15
29 24 26 30 31 25 27 23 22 18 18 11 9 9 8 11 9 8 16 17 16 17 20 19 19 16 15 14 14 12 11 11 9 9 8 9 6 6 9 12 12 13 12 13 13 13 10 11 13
29 29 28 32 34 35 30 29 26 25 18 12 10 5 11 16 12 11 12 18 22 19 20 22 21 19 17 15 16 13 12 11 10 9 6 6 5 5 6 9 9 10 10 11 12 13 14 12 13
35 33 34 35 36 35 30 30 30 29 21 18 18 6 9 20 11 15 16 16 18 21 22 21 22 22 21 19 17 16 15 13 11 9 7 5 4 5 6 7 8 8 8 9 11 11 13 14 14
38 36 34 35 37 34 37 40 30 27 25 19 17 19 15 20 15 22 16 11 14 16 22 22 21 22 23 22 20 19 17 17 14 11 9 8 5 3 3 4 5 5 6 8 9 11 12 13 15
40 39 38 37 35 33 33 47 34 27 25 27 25 20 22 24 20 20 21 17 18 18 20 24 24 25 24 25 24 22 20 18 17 15 12 9 7 3 0 1 3 4 5 6 7 11 11 12 16
39 41 39 39 36 37 34 31 25 41 37 34 28 26 23 21 22 28 28 21 21 19 17 21 25 26 27 27 27 24 23 21 20 18 16 13 10 7 5 2 3 3 4 5 5 8 10 12 15
40 42 40 43 42 41 34 26 29 31 32 35 34 33 20 21 26 29 32 27 25 25 25 22 22 25 28 30 30 28 27 26 25 22 19 16 14 11 7 5 2 3 4 5 5 6 8 10 13
32 38 41 42 38 38 34 26 30 34 32 31 33 31 14 18 21 27 30 32 26 23 23 24 24 24 25 27 29 28 27 26 25 25 24 21 18 14 11 9 6 5 4 5 6 6 7 8 10
33 35 37 45 39 38 34 33 35 35 34 33 30 28 24 17 21 29 30 36 36 28 25 22 24 24 27 28 30 30 28 28 26 25 26 25 21 20 14 12 10 8 7 6 6 7 7 7 8

GFSSGP_500_spd_087.txt.gz
Wind_Speed
1 3 5 6 2 10 10 14 14 14 10 9 11 10 7 10 12 13 11 12 10 13 12 11 12 12 13 12 11 10 9 10 12 12 11 9 5 4 5 7 8 9 9 10 12 14 14 14 12
3 1 3 2 4 8 14 13 16 15 11 8 8 11 8 6 11 9 11 9 8 11 11 10 11 11 12 11 10 10 12 14 15 14 14 9 5 4 6 8 10 11 10 10 12 14 14 14 12
2 2 1 5 6 6 18 14 14 15 14 11 9 10 9 7 10 10 11 10 7 10 11 10 10 11 10 9 10 11 13 15 15 16 15 11 8 7 9 9 11 11 11 11 14 15 14 15 15
2 5 4 6 7 4 16 11 15 16 10 10 11 8 6 3 7 11 10 11 9 11 10 10 10 11 10 9 11 13 13 15 15 16 16 16 15 13 12 13 14 12 11 12 14 15 16 15 16
3 6 6 7 7 8 16 15 20 18 14 12 8 6 9 6 7 10 12 11 10 11 11 9 10 12 9 11 11 13 13 13 13 15 17 20 20 17 17 15 14 14 12 12 15 18 17 16 16
5 6 7 7 11 21 24 24 22 20 15 11 9 7 8 7 6 9 11 11 8 13 11 9 11 13 10 12 12 11 10 12 13 14 16 19 19 17 16 15 15 14 16 21 20 18 17 16 15
3 6 6 9 9 10 24 25 19 16 16 12 8 7 10 7 5 9 11 11 9 11 13 10 12 12 11 12 12 8 8 11 10 12 14 16 17 16 15 15 14 15 15 17 17 18 18 16 14
5 8 8 7 13 13 14 15 13 17 15 10 7 5 7 11 6 8 9 11 9 10 12 11 12 12 12 12 9 9 9 9 9 11 13 14 14 16 15 14 14 14 15 16 15 15 15 14 13
10 9 8 9 5 20 3 15 21 14 15 10 11 6 2 12 9 9 10 11 10 9 10 11 12 11 12 11 10 11 10 9 6 13 13 10 12 13 11 12 13 13 13 13 14 12 12 11 10
13 10 9 8 9 9 8 20 20 18 13 14 11 7 3 9 8 10 12 12 10 10 10 10 11 11 11 13 12 13 11 10 15 13 13 11 14 10 10 10 13 12 13 13 12 12 12 11 10
15 13 11 10 6 5 4 3 7 19 24 14 11 9 7 9 9 9 9 13 12 11 11 9 10 10 12 13 11 12 14 11 11 9 10 10 12 9 10 7 13 15 15 13 11 12 12 10 8
14 18 14 10 9 11 10 7 11 20 22 16 13 10 6 9 9 10 10 13 13 10 10 10 10 10 12 13 11 11 14 12 16 12 13 9 8 9 8 8 11 10 10 13 11 13 14 14 15
14 16 14 11 13 8 7 10 15 12 21 25 17 13 10 8 11 10 8 12 13 11 9 10 11 12 11 12 11 9 13 15 14 14 13 12 12 13 14 11 11 12 13 13 11 10 15 15 17
15 13 11 12 16 14 5 8 7 14 8 23 16 16 11 9 12 12 10 10 12 12 10 11 13 13 10 12 13 8 10 11 14 16 15 15 16 17 14 17 15 14 14 12 11 12 15 15 16
16 13 9 10 13 13 10 11 8 6 10 16 12 12 10 12 12 12 13 12 12 14 12 11 14 15 11 12 14 9 9 10 14 15 16 14 16 16 18 16 16 14 12 11 11 14 16 15 16
14 13 10 10 12 20 8 9 10 10 7 9 6 6 9 11 11 12 11 13 13 14 14 14 14 14 11 12 12 11 10 12 14 16 18 17 18 18 20 18 16 16 16 15 16 17 17 14 16
17 18 16 14 20 19 11 7 9 10 7 4 2 8 6 9 10 13 12 14 16 15 14 16 14 12 10 12 11 13 12 10 10 15 19 18 19 17 21 21 18 17 17 16 17 17 16 15 14
21 22 22 21 22 25 20 15 14 13 11 3 11 11 9 6 8 13 13 13 15 17 16 14 14 12 10 10 11 13 11 15 12 16 18 19 18 18 18 18 19 18 18 16 17 18 14 13 16
23 25 25 23 23 23 25 20 16 17 13 12 9 5 6 4 7 10 12 14 16 17 16 13 14 15 12 9 9 12 13 13 14 16 16 19 20 17 17 15 17 17 16 16 16 17 16 15 16
26 24 26 26 28 26 23 24 21 19 16 11 9 6 6 4 7 9 13 13 17 22 21 17 16 17 14 10 11 11 13 12 14 13 15 18 21 19 15 15 15 14 16 15 14 14 14 18 19
25 24 27 32 32 27 25 24 18 19 17 14 10 6 6 6 10 7 17 16 16 18 23 22 20 19 16 13 14 13 13 12 13 11 12 15 17 18 16 15 14 13 13 13 13 15 15 14 17
27 25 31 33 32 31 30 26 20 19 16 15 10 3 4 6 11 10 16 16 15 19 22 24 21 20 18 15 15 14 12 12 12 11 9 12 13 13 12 15 15 14 14 11 9 11 11 13 14
26 32 37 38 33 32 32 29 25 20 11 13 11 5 1 11 12 13 19 21 20 19 19 23 24 21 19 17 15 15 13 12 10 11 9 10 9 11 9 10 13 13 13 13 12 10 9 9 13
30 30 36 39 37 34 32 29 23 16 14 15 14 9 5 11 14 13 17 18 19 20 21 21 23 23 21 19 15 15 15 12 11 10 9 7 7 7 7 8 12 12 12 14 13 13 10 10 11
34 33 32 36 37 34 34 30 24 21 20 21 16 16 16 14 19 21 18 17 14 14 18 21 23 25 23 22 19 17 17 16 12 9 9 8 6 4 3 5 9 11 11 11 13 13 12 12 12
37 37 36 34 34 38 39 36 29 25 25 23 21 20 24 21 22 22 21 19 18 18 21 24 24 25 25 23 22 21 19 18 16 13 10 9 7 4 2 4 6 10 10 10 11 13 14 15 17
37 39 38 36 36 37 42 43 36 33 31 29 25 25 19 17 23 19 20 19 20 20 23 27 28 29 27 27 25 23 22 20 18 17 14 12 10 9 4 4 4 7 10 10 9 11 15 17 19
39 39 39 40 38 39 37 40 44 41 43 37 30 29 26 20 20 20 13 23 21 21 24 29 33 33 32 32 29 26 25 24 23 21 18 15 14 10 7 5 6 7 8 9 9 9 13 17 19
34 39 42 41 40 41 39 39 41 42 39 41 38 33 32 27 25 21 17 21 24 26 25 26 31 34 34 32 32 32 28 26 25 24 22 20 17 13 10 9 8 9 9 9 8 9 11 15 18
34 35 36 38 41 43 41 42 46 41 39 36 34 35 37 32 34 30 27 28 34 33 32 28 31 33 34 33 34 34 34 32 28 25 24 23 21 18 14 13 12 10 10 10 10 9 11 12 16

GFSSGP_500_spd_090.txt.gz
Wind_Speed
1 1 4 7 4 5 11 15 13 12 8 7 9 9 12 12 15 14 13 14 14 15 14 12 12 12 13 13 14 13 14 14 12 9 7 5 4 4 5 8 10 12 13 14 14 15 16 16 19
2 3 4 6 6 5 12 17 17 13 9 9 8 9 13 11 13 14 13 10 11 11 12 10 11 12 13 14 14 15 16 15 13 12 10 6 3 5 5 8 9 11 12 13 14 14 13 13 21
4 4 2 11 12 15 17 18 16 12 9 12 13 7 13 11 12 12 12 11 10 9 12 9 10 10 11 13 15 18 17 16 16 16 13 9 8 8 9 9 8 10 11 11 13 13 13 17 19
4 3 5 9 11 7 15 16 16 15 9 12 10 9 4 9 7 11 12 12 11 9 11 9 9 9 11 13 16 16 17 16 16 19 18 17 16 14 12 12 9 9 10 11 12 14 13 14 18
2 3 5 6 8 6 14 16 17 20 14 10 9 7 5 5 7 9 10 12 11 10 11 8 8 9 12 14 15 15 16 15 16 18 19 18 20 18 16 13 11 8 9 12 14 14 14 15 16
2 4 5 7 9 13 14 18 20 17 16 12 8 9 9 8 9 10 9 12 9 10 12 9 9 11 11 13 13 12 14 14 14 16 19 19 20 17 16 14 12 12 17 17 15 15 15 14 15
2 5 6 9 11 17 20 19 23 19 18 14 11 11 12 12 9 11 9 10 10 8 12 10 12 12 12 11 11 11 11 13 13 15 17 18 17 17 17 15 15 15 17 16 16 15 13 13 13
4 5 7 10 6 10 6 11 16 17 17 13 9 10 11 16 11 11 9 10 9 8 11 11 13 13 12 11 11 10 12 10 11 13 17 16 16 15 16 15 15 15 15 13 14 13 10 10 9
7 5 6 8 10 12 8 14 21 18 17 12 12 8 10 13 15 13 11 10 10 9 10 11 13 13 13 13 12 12 13 10 10 11 14 15 14 14 14 14 14 15 14 15 13 11 10 8 7
11 9 7 9 10 4 6 5 20 19 15 17 12 12 11 9 16 15 13 11 11 10 9 11 12 13 13 16 15 14 16 15 12 13 11 10 12 13 14 12 13 14 13 13 11 10 9 8 7
14 10 8 8 8 5 4 7 18 26 19 15 9 11 12 12 13 13 12 9 12 12 9 11 12 14 13 17 16 16 15 10 9 10 12 8 5 8 12 12 12 11 11 13 11 9 9 9 8
15 12 12 10 7 8 4 10 6 19 17 14 10 10 10 14 16 14 14 14 11 11 9 11 13 13 12 17 15 14 12 15 10 13 10 7 4 4 9 12 9 7 10 13 13 12 15 15 14
16 14 11 8 6 4 7 8 2 29 24 14 11 12 11 11 16 16 13 15 14 11 9 9 13 12 10 16 16 15 16 14 13 13 13 13 10 6 8 11 8 11 10 13 14 13 15 17 19
15 11 6 7 7 7 2 5 8 19 24 18 11 8 10 10 16 20 17 15 15 11 9 10 13 12 11 14 17 12 14 15 13 15 16 16 13 11 17 14 11 11 11 12 13 13 15 17 22
15 12 6 6 6 9 7 8 10 7 28 20 12 7 9 11 10 14 19 17 16 13 11 11 12 12 14 12 15 13 13 14 15 16 15 15 15 14 13 14 14 13 12 11 12 13 15 15 20
16 14 10 9 7 9 12 10 18 19 27 16 14 7 6 9 9 11 15 19 16 15 14 14 11 13 15 13 13 13 15 15 16 16 17 15 16 14 15 14 13 13 15 14 13 13 14 13 18
19 18 13 11 11 17 15 14 24 24 24 16 12 9 8 6 10 10 14 18 18 17 17 17 12 12 13 14 14 14 13 19 17 16 16 15 16 16 13 13 14 13 16 17 14 13 14 13 13
23 22 18 16 18 19 16 16 20 22 19 8 7 10 9 9 12 12 14 16 17 17 17 17 14 13 13 13 14 11 12 17 19 16 16 16 16 18 16 15 16 16 15 16 16 15 13 14 13
26 26 24 23 21 22 22 16 20 21 18 16 18 14 10 10 12 12 11 17 19 17 16 17 15 14 14 13 13 13 14 15 18 17 15 16 15 15 18 16 14 13 14 14 15 17 16 16 15
28 30 30 29 27 24 25 23 16 16 16 23 15 15 15 11 12 13 12 14 19 20 19 17 17 15 13 13 13 13 15 15 17 18 16 16 15 14 15 16 16 15 13 12 12 16 19 18 17
26 28 31 32 31 27 25 24 20 18 17 19 18 14 13 14 12 15 15 15 17 19 20 20 17 15 14 12 14 15 15 15 15 18 18 16 17 14 13 11 12 15 16 14 13 14 17 18 18
25 26 29 32 30 30 27 23 19 17 17 18 19 12 11 13 18 14 19 18 18 21 22 21 19 16 15 14 15 16 14 13 15 16 16 16 16 16 15 12 9 10 12 14 15 13 15 13 17
27 31 32 33 30 29 29 26 22 17 17 17 19 14 14 16 17 16 22 22 22 22 23 24 22 19 17 16 16 16 14 13 11 12 15 14 15 16 15 13 10 9 9 12 14 13 12 14 14
29 31 32 32 32 29 29 25 25 23 24 29 27 21 20 19 21 18 22 23 22 24 25 24 24 23 21 18 17 19 18 16 13 11 13 13 13 15 15 15 13 11 10 10 12 13 13 12 15
31 31 34 35 34 32 31 26 23 27 27 26 24 22 21 24 24 22 20 19 19 21 23 24 25 25 24 22 19 20 20 18 15 12 10 11 11 12 13 14 15 13 13 12 12 12 13 13 13
35 34 33 35 34 34 33 32 26 26 26 29 27 24 19 12 20 24 25 24 22 23 25 26 27 26 26 25 23 21 20 18 16 13 11 10 10 9 10 11 13 14 14 14 13 13 14 14 14
37 37 36 34 36 38 40 37 32 30 29 27 27 27 23 19 16 22 24 23 21 19 21 24 29 29 28 27 26 24 22 21 18 16 13 10 8 7 6 8 11 14 14 14 13 13 14 15 15
38 39 39 39 39 40 40 38 38 35 35 32 30 26 25 20 21 21 22 27 24 22 24 28 28 30 31 31 28 25 25 23 23 20 15 13 10 7 6 6 9 12 14 14 13 15 16 17 16
36 39 40 40 41 42 40 40 38 38 38 36 33 29 28 26 23 23 25 30 30 28 25 27 28 31 32 32 31 28 26 27 24 21 20 17 13 11 8 8 7 9 13 14 14 15 17 20 20
31 34 39 41 40 42 42 41 41 40 38 37 36 34 33 31 30 28 29 31 32 34 30 29 30 30 33 34 35 34 32 29 27 25 23 22 20 16 13 11 10 9 11 14 14 14 17 20 22

GFSSGP_500_spd_093.txt.gz
Wind_Speed
2 4 7 9 7 5 12 13 13 14 10 9 10 10 14 17 19 19 17 15 14 16 14 15 13 13 12 12 12 13 13 13 12 10 6 6 8 11 12 13 14 14 14 14 14 16 17 18 18
3 5 9 14 10 10 16 16 15 13 11 12 12 11 15 15 19 19 16 13 12 13 14 13 12 12 11 13 15 15 16 15 12 12 7 6 9 11 13 13 14 14 14 14 14 14 12 18 18
2 4 9 15 10 13 14 16 16 13 11 14 10 10 12 14 17 17 17 14 11 11 14 12 12 13 13 15 15 15 15 15 13 10 9 9 11 12 13 14 14 14 14 14 15 15 18 17 19
2 3 7 12 14 6 12 18 17 15 12 13 10 9 8 12 14 15 17 16 12 11 12 12 11 12 14 15 14 14 15 15 15 14 14 15 14 14 12 13 12 13 15 14 15 17 17 17 14
0 2 7 8 9 8 11 17 14 14 15 12 9 9 5 10 12 13 15 16 12 11 10 12 12 13 14 13 13 13 14 16 17 16 18 18 17 15 14 14 11 12 15 15 15 16 15 15 13
2 5 7 6 6 2 14 14 16 12 12 13 7 6 6 9 12 14 14 15 12 11 11 12 12 12 13 12 12 11 13 15 18 19 19 18 17 16 14 12 10 15 16 17 16 15 14 13 12
3 5 5 3 2 10 16 23 19 15 12 13 10 7 8 11 12 14 13 13 13 11 11 13 13 13 11 11 10 10 13 14 17 18 18 18 17 17 15 15 17 16 17 15 15 14 13 11 10
4 3 5 6 9 11 5 12 21 20 15 10 10 8 11 14 15 14 14 13 13 12 11 12 13 12 11 11 10 10 12 13 16 18 18 17 15 15 15 15 17 15 15 15 13 12 10 9 8
4 1 4 6 9 14 6 12 28 22 18 13 11 8 10 15 17 16 15 14 13 12 11 13 13 13 13 11 11 10 12 14 14 16 18 17 14 14 13 14 15 17 18 16 13 11 9 8 8
7 4 4 7 6 7 3 3 16 27 20 15 14 13 10 15 18 17 16 16 14 12 11 13 14 14 15 15 15 14 14 14 14 14 15 16 13 14 13 13 13 13 13 13 11 9 8 8 8
9 5 6 7 10 8 6 10 27 24 19 15 11 13 14 15 16 14 14 14 15 13 13 12 13 14 14 15 15 12 11 12 11 10 10 13 12 12 12 13 12 12 13 13 11 9 8 9 8
12 8 8 7 7 6 3 13 17 25 21 15 11 8 13 16 17 17 16 17 16 14 13 14 13 13 12 15 13 13 11 12 12 9 8 8 10 11 13 13 13 13 13 13 14 13 12 12 12
15 10 7 6 1 8 7 7 6 23 24 16 12 11 9 12 15 14 13 15 16 15 13 14 13 11 13 15 14 12 12 14 13 10 10 9 11 12 10 10 12 13 14 14 15 15 13 14 15
15 9 6 6 6 6 3 4 4 25 22 17 13 12 13 10 16 17 15 13 15 15 14 14 13 11 13 14 11 10 13 15 15 12 13 13 15 15 12 9 11 15 15 15 16 15 14 16 19
15 11 9 8 5 5 4 7 15 26 24 18 13 12 12 11 13 17 17 16 16 17 16 15 14 11 14 13 13 10 12 13 15 13 12 15 19 19 17 14 13 14 16 17 17 15 15 19 22
17 14 11 10 7 7 9 9 17 23 21 14 13 12 12 11 10 13 16 16 17 18 17 15 13 13 15 13 12 12 12 15 14 13 15 14 15 16 16 15 13 15 15 17 17 15 14 16 18
19 17 15 13 12 11 11 17 26 32 23 17 14 12 12 12 10 13 18 19 18 20 18 17 13 14 16 15 15 11 11 14 15 16 15 12 13 13 13 13 14 15 16 15 15 16 15 15 16
21 19 18 16 16 17 14 19 28 31 24 18 16 13 14 14 14 16 20 19 19 20 19 16 13 13 16 17 14 13 11 12 14 16 17 13 11 12 12 13 15 15 15 15 15 13 14 14 13
26 24 23 21 19 17 17 17 20 28 26 19 15 14 16 17 15 14 18 21 20 19 18 18 15 12 14 17 15 16 13 11 14 14 16 16 12 11 13 14 13 13 13 14 15 14 13 13 13
28 28 29 25 24 24 23 19 17 22 16 13 16 16 16 15 14 15 15 20 21 22 21 18 16 13 12 16 18 15 13 11 13 15 13 15 14 13 11 12 13 13 14 14 16 18 19 17 17
28 30 31 29 27 26 24 21 22 19 15 16 16 16 14 14 16 17 18 21 21 22 23 21 21 16 14 16 19 19 17 13 13 14 14 13 14 13 15 13 12 12 14 15 15 17 19 18 16
26 27 31 32 29 27 26 26 23 21 22 26 19 18 17 16 16 17 20 21 24 25 25 23 21 20 18 18 20 19 18 15 12 12 13 13 11 12 12 14 13 12 13 15 16 15 14 16 16
28 30 33 33 32 31 29 28 27 25 26 25 26 23 21 16 21 21 22 24 28 27 27 25 23 21 20 20 20 19 17 16 15 13 11 10 11 11 10 11 12 13 13 14 14 15 14 13 14
31 31 30 30 32 31 32 32 29 27 30 28 28 25 24 24 17 25 23 24 23 27 27 27 24 22 21 19 19 21 19 18 15 14 13 12 11 11 11 10 9 9 12 14 15 15 15 15 13
30 31 32 32 32 32 31 35 32 31 31 31 29 26 25 24 28 28 25 23 22 22 24 25 25 23 21 21 19 21 21 19 16 16 14 11 10 10 8 8 9 9 9 10 13 15 16 16 14
34 32 32 34 31 29 27 33 35 35 34 32 31 28 24 25 27 27 27 29 25 23 26 28 26 25 23 21 21 21 20 20 18 16 15 14 10 8 9 9 8 9 10 11 11 14 15 15 13
37 36 34 32 32 30 32 31 32 34 35 35 33 29 26 22 29 27 26 31 31 26 24 28 31 30 27 25 23 23 22 23 21 18 17 15 14 11 9 10 10 10 11 12 12 12 13 13 14
40 38 39 37 36 37 35 33 35 34 33 32 31 30 29 27 22 28 29 27 28 29 31 32 33 33 33 32 27 26 25 25 24 21 18 17 14 12 9 9 12 11 11 12 13 14 15 14 15
41 42 41 40 40 39 37 36 35 34 34 32 29 28 31 29 29 24 21 26 26 29 30 31 34 36 36 34 32 29 28 27 26 25 22 19 17 15 13 11 11 13 12 12 12 14 16 16 16
38 41 43 43 43 42 40 38 38 34 34 34 33 31 30 29 29 28 26 28 30 30 29 31 34 36 37 38 36 34 32 30 27 26 25 23 20 18 15 13 12 13 15 15 14 14 16 17 17

GFSSGP_500_spd_096.txt.gz
Wind_Speed
7 8 8 16 8 3 19 14 15 14 15 11 12 12 16 18 20 19 17 16 14 14 14 11 12 11 11 11 12 13 12 10 9 9 10 11 11 14 14 14 14 15 14 14 15 16 17 16 16
8 9 11 18 9 13 18 18 15 16 16 16 13 13 16 17 19 19 17 14 13 12 13 12 11 11 11 11 12 13 12 9 7 9 11 13 13 14 14 13 14 14 14 14 14 15 16 17 17
9 8 9 16 11 13 15 17 16 14 14 16 16 14 15 16 15 17 17 15 12 12 13 12 10 11 11 11 11 12 13 11 11 10 13 15 15 14 15 14 13 14 14 14 13 17 17 20 16
8 7 8 10 5 3 10 14 14 13 12 14 12 14 15 15 14 15 16 15 12 12 12 11 10 11 12 11 11 12 12 14 13 15 15 16 16 15 13 13 13 14 14 14 15 18 16 23 19
7 5 7 7 6 7 10 11 13 13 13 13 13 11 13 15 13 14 15 13 11 11 11 10 10 10 10 10 10 10 12 14 16 18 18 19 17 15 13 12 14 15 16 15 17 16 15 17 16
7 8 5 5 7 8 11 16 13 13 11 12 11 11 13 16 14 13 15 15 11 10 11 11 11 11 9 8 9 11 12 14 17 18 18 19 18 15 11 10 13 15 17 16 16 14 14 12 17
8 7 5 4 1 6 14 19 18 12 10 11 10 11 13 17 15 14 15 15 11 11 10 11 13 10 8 7 10 11 13 14 16 17 18 17 17 15 16 19 16 16 16 16 16 14 12 10 11
9 8 5 3 5 8 8 20 21 15 12 10 9 9 16 18 18 15 16 15 12 11 12 13 12 10 9 9 11 11 12 14 15 16 16 15 17 17 17 20 19 16 16 16 14 13 11 11 10
9 7 3 2 5 9 6 10 22 17 14 10 10 10 13 19 20 17 17 15 14 11 12 13 12 11 12 11 12 13 11 12 15 15 15 14 14 16 17 16 17 17 16 14 12 11 10 9 10
10 7 3 2 4 3 4 13 25 20 15 12 11 11 12 18 18 19 19 16 14 12 12 14 12 13 14 15 14 14 12 12 14 14 13 13 13 15 16 16 15 15 13 11 11 10 10 9 9
11 8 5 2 4 3 5 12 30 24 17 13 10 12 13 17 17 16 16 16 15 13 11 12 12 13 15 14 13 11 9 11 12 13 12 12 13 13 15 15 14 13 12 10 10 9 9 9 9
12 9 7 5 3 3 4 11 24 27 21 15 11 10 18 18 20 18 18 17 14 13 12 11 10 12 14 14 12 12 10 11 11 10 10 11 12 15 15 14 14 13 12 11 10 10 11 13 15
13 11 8 4 2 9 8 13 31 28 21 17 15 12 12 17 17 16 15 16 15 13 13 10 9 12 14 15 11 11 9 10 11 10 9 11 12 11 13 14 13 14 13 11 12 13 15 16 18
15 11 9 5 7 10 6 10 20 20 26 20 15 15 14 17 19 18 17 16 16 13 12 10 8 10 13 12 13 11 10 11 14 14 13 12 12 11 12 12 13 14 15 13 13 12 16 21 22
14 13 11 9 9 6 6 8 11 22 25 19 16 14 14 16 18 18 19 17 16 15 12 11 9 9 11 12 13 12 11 11 12 13 15 13 13 11 12 13 14 15 15 15 17 15 17 19 20
15 14 12 11 11 9 8 7 12 24 26 22 17 16 14 15 16 17 17 17 17 16 14 11 10 10 10 9 12 12 12 12 13 14 17 16 15 14 13 14 15 16 15 15 16 17 19 20 22
19 17 16 14 13 13 10 10 22 27 21 20 18 17 16 13 15 15 18 18 19 17 15 10 9 12 12 12 12 12 12 12 12 12 16 17 16 12 12 13 14 15 14 15 16 16 17 19 21
22 22 19 18 17 15 15 16 23 25 22 20 18 16 15 16 15 17 18 17 19 18 15 13 10 11 14 14 13 13 13 12 11 11 14 16 14 12 11 11 12 13 14 13 14 16 17 17 18
26 25 24 21 20 20 19 23 26 27 22 23 19 17 17 18 17 16 19 18 19 19 18 14 13 11 13 12 12 12 13 12 11 12 12 13 13 13 11 10 10 10 11 13 12 12 14 15 15
27 27 28 24 22 22 20 25 31 27 24 22 21 20 19 17 16 15 18 20 20 21 20 16 13 12 12 12 15 15 14 12 12 13 13 12 11 12 11 11 10 9 10 13 14 13 13 14 16
31 30 29 30 26 24 24 32 33 31 26 16 15 19 20 20 20 19 18 20 21 22 22 20 15 14 13 14 15 14 16 13 10 11 13 12 10 10 9 10 11 11 10 13 15 16 17 16 16
32 36 33 29 28 23 27 37 29 29 25 20 17 19 21 20 20 22 22 21 22 24 23 22 17 15 15 16 15 14 15 17 13 10 12 14 11 10 10 10 10 10 11 12 13 14 14 15 15
32 35 34 33 33 30 26 11 27 31 25 23 24 22 20 21 20 22 22 23 27 26 24 23 20 17 17 17 16 14 14 15 16 13 11 11 13 10 10 9 9 9 9 11 12 12 11 11 15
33 32 32 29 33 32 28 24 28 28 27 28 25 23 20 20 22 22 26 26 26 28 27 23 22 21 19 18 18 16 15 14 14 13 12 12 12 11 10 10 9 8 9 10 11 11 11 10 9
34 33 30 30 33 26 32 36 34 35 31 29 29 27 23 20 19 24 26 27 25 24 25 26 24 24 22 20 20 20 18 15 14 12 10 9 9 10 10 9 10 10 9 10 10 10 10 10 9
33 33 26 24 25 26 33 41 42 39 36 32 31 29 25 24 22 23 26 27 29 27 26 27 26 26 25 23 22 22 21 18 15 14 13 11 10 10 9 8 9 10 9 10 11 11 11 10 9
37 37 31 23 26 22 32 45 39 41 38 35 33 28 26 26 29 29 27 29 30 30 29 30 31 30 28 26 24 23 24 22 19 16 14 14 12 10 11 10 9 9 8 8 9 11 11 11 10
40 39 38 35 26 25 31 33 44 44 41 38 34 32 31 28 25 28 29 24 30 32 32 33 34 34 34 32 28 26 25 24 23 20 18 16 14 11 10 12 12 10 9 10 10 11 12 12 12
42 42 40 33 27 25 26 38 39 38 39 38 36 33 32 32 30 32 32 29 25 31 32 33 34 35 36 34 31 29 28 27 26 24 21 20 17 15 12 11 12 13 11 12 13 13 12 13 13
41 45 44 42 39 34 29 37 36 37 37 35 32 30 34 35 34 31 30 22 30 29 27 31 33 35 36 36 34 32 31 29 27 27 26 23 21 19 16 13 11 13 14 12 12 13 14 14 15

GFSSGP_500_spd_099.txt.gz
Wind_Speed
6 8 14 13 7 16 15 15 12 12 10 8 12 13 14 16 16 14 13 13 11 13 11 9 10 11 11 11 10 9 8 8 8 10 12 11 11 10 11 11 11 12 13 13 14 14 14 14 15
6 8 14 11 11 19 13 16 14 12 11 11 12 13 12 15 17 15 14 11 9 10 11 10 9 11 12 11 10 9 5 8 9 10 12 12 11 11 12 12 12 13 13 13 12 14 15 15 15
7 10 15 13 16 14 14 18 14 14 15 14 14 14 12 14 13 14 14 13 8 8 9 10 10 10 10 10 10 8 8 9 10 13 14 14 12 11 11 12 13 13 12 12 13 15 17 14 14
8 9 10 9 6 10 12 15 13 13 11 13 14 13 12 13 12 12 13 13 9 7 8 10 10 10 10 8 8 9 9 11 13 15 15 14 13 11 11 13 13 13 11 7 11 14 20 19 15
8 7 7 6 4 8 11 13 11 14 12 11 11 13 12 12 9 9 12 11 8 7 8 9 11 9 8 8 9 11 12 14 16 17 16 15 13 11 11 12 13 13 12 14 14 19 21 15 16
8 6 7 8 6 6 12 13 12 12 13 12 10 13 14 12 11 9 11 11 8 6 7 8 9 7 7 8 10 11 13 15 16 17 17 16 13 10 12 12 14 14 13 12 14 15 15 14 15
9 6 4 5 2 5 10 17 16 14 13 11 10 13 15 13 11 10 10 11 8 8 7 7 6 4 6 9 11 11 12 14 16 16 16 15 13 9 14 15 15 14 14 13 14 12 15 11 12
9 8 6 2 2 5 8 22 21 16 12 9 10 13 16 14 13 11 11 12 10 8 8 8 5 5 7 9 10 12 13 13 15 15 15 15 17 18 19 18 17 15 14 13 13 12 13 11 10
11 5 4 2 0 4 7 22 21 18 13 10 9 12 14 16 15 14 13 12 11 9 9 7 7 8 8 9 10 11 12 13 13 14 15 15 16 17 17 17 17 15 13 12 11 10 10 11 11
13 9 7 3 1 1 7 16 21 19 15 11 10 12 14 16 17 16 14 13 11 10 8 8 11 13 12 11 12 10 11 11 11 12 15 16 15 16 16 15 14 12 11 11 9 9 9 9 8
14 7 7 5 4 3 6 11 23 21 17 14 13 14 15 14 15 14 14 14 13 10 9 9 12 14 12 11 10 9 10 11 11 12 13 15 15 15 15 13 12 11 11 10 9 8 8 9 10
13 11 10 6 6 7 9 15 25 22 20 14 12 15 18 16 16 15 14 14 12 10 10 9 10 11 12 11 10 10 10 9 9 9 13 14 16 15 14 13 12 11 10 9 8 9 10 11 13
14 13 10 6 3 5 5 12 25 30 23 18 13 11 16 18 17 17 14 13 12 10 8 10 10 11 10 12 10 9 10 7 9 8 10 16 14 12 13 11 11 11 11 12 11 12 15 16 17
16 13 9 5 4 4 3 9 24 30 24 19 16 14 16 18 18 18 17 14 13 11 9 8 10 11 10 12 10 10 13 12 12 10 11 14 14 13 11 11 11 11 14 15 14 15 16 19 19
14 13 10 9 10 4 3 8 21 23 24 20 19 17 17 18 19 19 18 16 13 12 10 8 8 10 10 11 10 9 11 12 11 11 10 13 14 13 11 11 12 15 16 14 13 16 18 19 19
16 14 11 11 11 9 8 9 17 22 27 22 20 17 17 20 18 16 15 15 14 12 10 8 8 11 8 9 10 9 11 20 7 13 15 15 13 13 12 12 13 16 16 16 16 17 18 21 21
17 13 13 14 13 13 11 16 22 24 29 26 21 18 17 18 18 16 15 14 14 13 11 8 8 9 9 9 10 10 10 15 14 12 13 15 14 12 11 12 13 14 15 15 16 19 20 22 20
18 15 14 17 15 14 13 8 17 20 26 24 22 20 17 18 20 19 16 15 14 13 12 11 9 8 10 10 8 8 11 12 13 14 12 15 13 12 10 11 12 12 13 14 16 17 18 19 19
16 15 18 20 17 17 12 15 23 18 21 21 20 18 17 17 18 21 19 17 16 14 12 13 11 8 9 9 8 8 9 10 11 13 14 12 12 11 11 10 10 10 11 12 13 14 14 14 15
26 24 19 22 17 17 13 16 31 23 20 22 21 20 19 18 17 18 19 18 18 16 14 12 12 11 9 8 10 9 9 9 8 9 12 12 13 11 10 10 9 10 9 10 11 11 11 12 12
28 27 30 24 22 24 16 17 16 22 22 22 20 18 18 18 18 17 19 19 18 17 17 13 11 11 10 9 8 8 7 9 9 7 8 10 12 11 8 8 8 8 9 8 10 10 12 12 13
27 24 25 22 26 22 22 22 8 28 27 25 17 16 18 19 20 19 20 22 21 21 20 16 13 12 11 11 9 7 7 7 9 8 6 7 9 10 9 8 9 8 9 9 10 11 11 13 12
21 32 37 29 23 22 25 26 36 29 28 27 18 18 18 19 18 18 19 21 24 23 22 20 16 14 12 11 12 10 9 8 8 9 7 6 6 8 9 8 8 8 8 10 10 8 8 9 10
34 32 35 29 25 24 30 29 33 24 34 32 20 20 19 17 17 20 22 22 23 24 24 21 19 17 16 13 14 12 12 10 9 8 10 8 7 7 7 8 8 8 8 9 9 9 8 8 7
41 35 26 29 29 24 22 21 29 26 35 33 23 21 20 17 15 19 20 22 20 22 24 23 20 20 18 16 15 16 15 14 12 10 8 8 8 8 8 7 8 8 8 7 7 9 8 7 7
40 29 23 22 25 24 21 30 37 33 27 31 28 23 22 20 19 20 22 25 24 23 24 26 24 23 23 20 18 18 18 16 14 11 10 10 10 9 8 9 7 7 7 7 6 6 7 8 7
34 37 23 17 20 24 32 43 42 40 31 30 26 25 24 22 21 24 27 22 21 27 25 26 28 26 25 25 21 21 22 20 16 12 12 11 10 10 9 8 9 8 8 8 8 7 6 5 6
36 31 29 28 22 29 33 38 38 43 35 32 31 27 27 26 25 26 23 22 18 28 29 29 31 31 30 28 25 24 24 23 20 16 14 13 11 9 1 10 8 7 7 8 9 10 10 8 6
40 37 38 28 21 30 25 28 45 39 40 38 35 32 31 30 29 27 26 22 30 25 35 33 33 33 32 31 29 26 26 24 23 21 18 16 14 11 10 10 9 9 8 9 9 10 11 11 10
47 34 31 30 31 25 35 33 38 29 35 40 39 36 34 34 33 32 31 32 31 30 24 21 32 33 32 32 30 28 27 26 24 24 22 19 17 15 11 9 8 10 10 9 9 11 12 12 12

GFSSGP_500_spd_102.txt.gz
Wind_Speed
7 11 9 12 4 11 14 11 11 7 8 9 9 9 10 9 10 13 10 10 10 10 11 11 11 11 11 11 10 8 6 6 7 7 8 11 10 9 10 11 13 15 16 16 16 15 15 15 15
8 11 10 9 18 12 14 12 9 8 8 10 11 10 8 10 10 11 11 9 9 10 10 10 12 13 12 10 10 9 6 6 8 9 9 10 10 9 10 11 12 14 14 14 14 14 13 14 15
9 12 13 12 20 12 12 14 10 10 8 9 8 7 9 9 8 9 9 9 9 9 9 10 10 11 10 10 9 8 6 5 7 10 10 9 9 10 10 11 11 12 12 12 13 15 14 14 13
10 8 8 10 9 7 9 9 12 11 9 9 11 9 9 7 10 7 8 9 8 8 8 9 10 9 10 10 10 10 9 7 8 9 10 11 9 10 11 11 11 11 10 8 7 14 15 13 13
7 8 7 4 4 4 4 10 11 9 6 7 9 9 9 8 8 7 8 9 7 8 9 9 9 9 10 11 11 13 13 12 12 12 12 11 10 10 12 12 11 12 13 15 14 17 19 13 13
7 7 8 7 2 4 8 10 7 9 7 5 7 9 8 8 9 7 9 9 8 8 8 8 9 9 11 12 13 14 14 14 14 13 12 11 9 9 12 13 12 13 15 19 19 16 14 13 14
8 5 5 5 3 1 10 11 11 9 9 7 6 8 8 7 9 7 9 9 9 9 8 8 8 9 10 11 12 12 13 14 14 14 12 10 8 10 13 14 13 14 14 16 13 11 12 12 13
9 4 4 4 4 4 8 12 14 11 10 7 6 9 9 7 8 8 9 7 9 9 8 7 8 9 9 11 10 11 13 14 14 14 13 13 12 16 15 15 15 15 13 14 12 13 9 10 11
10 7 7 2 1 6 7 14 23 15 11 11 7 10 9 9 8 8 10 8 7 9 8 8 9 9 9 11 11 10 13 14 14 14 14 15 17 17 17 16 15 15 13 12 12 11 10 10 9
16 11 11 5 2 5 6 8 24 20 14 11 9 11 10 9 8 7 7 9 7 7 10 10 9 10 12 10 11 11 11 13 13 13 14 15 15 15 15 15 14 12 11 10 10 10 10 8 7
15 7 2 2 4 6 5 7 22 22 18 13 12 10 12 9 8 7 7 7 7 7 9 13 8 10 11 10 12 12 10 13 13 13 15 14 16 14 14 13 12 11 10 11 9 11 12 9 10
14 10 8 7 7 7 6 11 16 23 21 15 11 11 13 12 10 10 8 7 8 9 8 9 8 8 6 21 9 10 10 12 14 12 14 14 16 15 13 12 11 10 9 8 5 8 13 12 13
16 14 12 9 6 3 4 12 20 23 19 17 12 10 13 12 12 12 10 7 9 10 7 8 10 9 12 7 8 11 7 12 14 13 16 14 12 13 12 10 11 10 11 12 12 9 12 14 16
16 4 14 9 7 6 4 9 16 26 20 18 14 14 15 14 13 12 11 9 6 7 7 8 11 10 10 8 7 6 8 16 16 14 14 14 13 11 11 12 13 15 14 13 17 16 15 17 17
17 12 14 12 10 8 5 10 10 30 25 20 17 16 16 16 13 12 12 10 7 8 8 8 8 10 7 8 9 15 15 13 13 15 14 13 11 12 12 13 15 16 14 12 15 16 16 17 19
20 18 10 13 9 11 5 5 11 26 28 22 19 17 18 18 15 12 12 10 8 8 8 8 7 9 7 4 8 9 12 12 9 14 15 12 11 11 13 14 15 18 16 15 19 17 17 18 21
19 14 9 21 15 12 12 13 15 20 24 24 20 18 19 18 17 14 13 11 10 8 8 8 6 7 8 5 5 11 13 15 13 16 15 11 12 13 13 15 16 18 17 15 19 20 20 18 19
15 13 13 16 15 14 16 18 23 17 28 26 23 20 19 19 19 17 14 12 10 9 9 9 7 5 8 8 6 8 10 10 12 12 16 13 11 12 13 14 15 17 16 15 19 20 18 16 16
10 9 21 16 25 16 15 16 12 17 32 27 24 20 18 19 20 19 16 13 11 10 10 9 8 6 8 7 7 9 10 9 8 6 10 11 12 13 14 14 13 15 15 16 16 16 16 16 15
27 25 23 21 24 22 19 16 15 22 32 26 22 21 19 18 17 17 17 15 14 12 9 10 10 8 8 7 6 7 4 9 7 7 8 10 11 13 12 12 12 13 13 13 13 13 11 12 13
27 18 28 33 29 27 20 12 18 13 23 24 29 24 20 17 16 15 18 17 15 14 11 10 10 10 8 6 7 8 8 10 9 6 5 8 9 10 11 11 10 11 11 11 11 10 11 10 11
32 25 28 22 23 23 16 14 12 16 19 33 27 13 15 16 20 16 18 20 18 17 14 10 11 12 10 6 9 8 5 5 7 10 7 8 8 9 9 10 9 9 10 11 10 9 11 11 9
38 16 13 16 23 28 20 20 18 21 14 25 16 16 14 16 16 17 16 18 19 18 16 14 11 12 11 10 7 5 5 10 5 7 7 7 8 8 10 8 8 9 9 10 11 12 9 9 7
35 38 24 26 22 24 21 15 27 24 23 16 17 18 17 15 14 16 16 16 18 19 17 15 14 13 13 12 11 6 4 7 6 6 2 4 7 7 8 8 7 8 8 8 8 10 9 8 9
36 36 29 32 23 21 27 26 32 29 27 25 26 18 17 21 20 15 13 14 16 16 19 18 16 16 14 14 14 10 8 7 13 8 5 3 5 5 6 8 7 7 7 7 7 6 7 7 7
35 36 21 26 24 18 25 31 38 36 35 17 30 23 20 20 26 16 12 14 18 16 19 20 20 19 18 17 16 16 14 11 7 2 6 10 8 6 6 5 6 7 7 6 7 6 5 6 6
33 44 30 14 14 17 33 40 37 30 29 29 18 24 23 18 16 14 8 22 23 18 20 22 25 23 22 21 18 18 17 15 12 10 9 10 9 6 9 9 5 5 5 4 4 6 8 7 6
35 32 37 32 29 26 34 37 43 37 26 25 24 29 29 24 21 24 24 20 18 29 32 25 27 26 26 23 20 19 18 17 15 13 10 10 11 10 6 4 5 6 5 4 3 4 5 6 7
40 34 43 28 19 27 24 33 40 46 39 35 31 27 26 27 24 22 25 25 22 27 36 31 29 27 29 28 24 21 20 18 17 16 14 13 10 7 1 4 10 9 6 5 4 5 6 7 7
42 33 36 34 37 29 33 32 42 36 29 27 34 33 29 29 29 28 30 28 29 21 20 33 36 33 29 29 25 25 22 20 19 18 17 17 12 11 8 10 11 7 5 6 7 7 7 7 8

GFSSGP_500_spd_105.txt.gz
Wind_Speed
5 8 6 10 18 18 13 17 10 4 9 6 12 11 9 14 12 13 11 11 12 13 12 12 13 13 12 10 9 7 5 4 6 8 9 10 12 14 15 16 17 19 18 18 17 16 16 17 17
6 5 10 12 21 16 13 13 10 6 8 9 9 7 8 10 10 11 12 9 12 12 12 12 12 12 10 10 9 7 6 4 4 7 9 10 11 12 14 15 16 17 17 17 16 16 16 16 16
7 8 5 17 14 19 15 10 6 7 7 8 9 5 10 9 7 11 9 11 12 12 12 12 12 12 10 10 10 8 6 5 5 6 9 10 13 14 14 15 16 15 15 16 16 16 14 14 15
5 9 7 10 21 16 13 10 8 10 8 7 6 6 7 8 9 7 9 11 13 11 11 11 12 11 10 12 12 11 8 7 8 8 10 12 13 14 15 15 16 17 14 11 17 16 16 15 15
9 3 11 19 14 9 9 8 6 10 7 8 6 7 6 8 8 7 9 12 13 11 11 11 12 12 13 15 15 14 12 10 10 10 12 12 13 15 15 16 16 17 17 21 16 15 16 16 17
5 9 9 7 6 5 7 7 3 6 4 5 5 5 5 6 9 8 9 10 11 11 11 11 12 13 13 15 16 17 16 13 11 11 12 12 14 14 15 16 18 19 22 21 17 15 16 16 16
8 7 7 2 2 6 5 8 4 2 6 4 5 4 4 6 7 7 9 10 10 11 11 11 12 12 13 15 15 16 16 15 13 12 10 11 13 14 15 16 18 19 18 16 16 16 14 15 14
10 2 13 8 1 1 3 7 8 4 4 4 5 5 6 6 4 6 8 9 10 10 12 11 11 11 12 13 16 16 16 14 13 12 11 9 13 13 15 16 18 17 16 15 15 15 13 14 13
14 8 12 7 4 4 7 7 10 13 7 5 3 5 4 5 4 5 7 10 8 10 11 12 11 12 10 10 14 17 17 15 13 14 17 18 16 15 16 16 16 15 14 15 14 12 13 13 13
16 1 13 10 6 3 9 4 11 18 10 6 4 6 6 4 6 4 9 6 8 10 12 10 11 12 11 8 10 16 17 15 13 14 17 18 16 14 16 15 14 14 14 13 12 13 11 11 13
13 6 8 4 2 3 6 5 3 20 13 9 8 8 7 4 5 5 3 4 7 8 9 9 13 13 11 8 9 14 18 15 15 14 16 16 15 15 13 13 11 11 10 13 11 13 12 12 15
15 6 7 2 4 7 5 6 3 17 10 12 8 7 8 8 6 5 4 4 5 7 6 8 11 9 8 16 12 12 17 14 16 17 17 15 14 13 12 9 8 9 8 12 12 11 12 15 16
13 6 9 2 3 2 4 7 6 17 19 13 11 9 10 7 8 3 3 5 1 6 4 9 6 8 18 13 13 14 15 11 16 18 17 14 14 12 11 9 8 10 8 10 11 13 15 17 20
14 10 12 6 5 5 4 6 9 16 21 15 11 11 12 11 9 6 4 8 5 3 5 7 12 20 11 15 14 15 13 11 17 15 16 15 15 13 12 11 10 10 13 14 17 16 14 18 23
21 18 16 10 9 6 5 6 12 20 20 20 17 12 13 13 11 9 5 4 6 3 3 5 12 14 13 16 18 19 11 12 14 14 16 16 16 15 14 17 14 11 15 16 17 19 17 21 24
23 20 18 14 9 9 6 7 10 15 21 27 20 13 13 15 12 8 5 7 7 3 4 6 9 13 14 14 18 16 14 12 11 14 12 15 16 15 17 21 20 14 14 16 19 20 21 21 21
23 22 21 17 10 8 13 9 8 8 26 27 19 15 15 15 13 11 8 6 6 5 2 5 5 9 13 11 11 15 14 15 15 14 11 14 17 17 17 19 22 19 17 17 21 21 22 20 18
18 14 15 15 15 13 12 15 15 16 19 26 19 16 16 14 15 14 11 8 7 7 5 6 5 7 11 10 11 12 12 13 14 13 13 15 16 18 17 16 19 20 22 21 20 20 19 18 17
20 13 14 21 19 15 14 16 12 11 21 30 25 21 17 16 17 17 14 12 10 8 7 7 6 7 9 11 10 12 13 12 12 13 14 14 15 17 17 16 16 17 19 19 21 18 16 15 15
29 27 25 28 22 24 19 17 17 16 14 35 26 20 16 16 16 16 15 14 13 10 7 8 7 6 10 9 8 12 11 11 10 13 14 14 16 17 17 17 16 16 16 14 15 17 15 15 14
31 29 27 18 23 25 19 16 19 20 19 31 24 24 18 14 14 15 17 16 15 12 9 8 7 6 7 8 6 8 10 9 10 10 11 13 15 15 14 15 14 13 14 13 11 11 13 12 11
32 21 28 23 25 21 6 13 16 17 18 39 29 27 20 15 16 16 17 16 17 15 12 8 8 8 7 9 7 6 5 8 7 8 10 12 13 15 13 13 13 11 11 12 11 10 10 10 7
33 18 25 29 21 29 11 10 14 16 20 34 27 24 23 19 19 19 15 17 17 16 16 13 10 9 9 11 12 7 5 7 5 6 6 9 10 12 13 11 10 12 11 11 13 12 12 9 8
31 25 24 21 21 24 11 15 18 17 18 22 30 31 22 20 18 16 16 15 17 17 16 15 13 9 8 7 11 9 5 6 5 5 6 8 9 10 9 11 10 9 11 11 9 11 10 9 6
42 31 19 23 30 7 3 18 23 23 22 8 34 30 26 19 19 19 19 17 14 16 17 16 15 13 10 9 11 9 8 8 7 5 4 5 8 11 12 8 10 9 8 10 10 9 9 7 7
44 41 31 24 21 6 13 24 24 24 22 28 33 39 22 28 24 24 24 20 18 16 19 17 17 15 14 12 12 14 12 10 8 6 3 4 2 4 8 8 8 9 9 8 9 10 10 10 8
47 45 33 20 10 21 25 26 19 24 18 23 27 17 20 26 27 26 20 22 19 20 14 15 20 19 15 14 12 14 15 12 10 7 5 1 1 2 4 4 5 7 9 9 9 7 6 8 7
49 52 36 32 28 26 26 28 29 28 28 25 16 30 16 17 18 18 24 28 16 14 14 16 19 21 23 19 16 14 15 15 13 11 8 5 4 3 2 4 5 7 6 9 9 10 7 6 5
43 45 45 37 33 32 23 26 27 32 30 29 24 23 27 18 16 11 10 15 11 17 16 16 21 21 22 23 21 20 18 16 15 14 12 8 5 7 7 5 6 5 5 6 8 8 8 7 7
36 40 45 41 34 29 31 28 28 26 34 31 29 28 23 32 18 16 15 16 17 18 18 17 15 25 24 26 25 24 21 20 17 14 13 12 10 9 7 6 7 7 6 8 7 8 8 9 9

GFSSGP_500_spd_108.txt.gz
Wind_Speed
7 5 5 21 25 15 11 9 8 4 11 18 13 11 11 12 13 14 14 12 12 15 15 14 13 12 10 9 6 5 5 7 8 10 13 14 16 17 17 18 18 18 19 18 17 18 19 20 19
7 2 11 20 17 12 7 14 11 9 12 16 14 10 12 14 8 14 14 11 13 15 15 13 11 10 10 8 5 5 6 7 8 10 12 13 14 15 16 16 16 16 17 17 17 18 19 19 18
5 5 6 22 14 11 11 16 10 8 10 14 11 10 13 13 5 15 13 10 13 15 15 12 10 11 9 9 7 7 7 8 10 10 13 14 16 16 16 15 14 15 16 16 15 17 19 18 18
3 6 7 17 10 10 7 14 11 11 9 8 11 9 10 9 10 12 11 10 14 15 14 11 12 12 11 11 10 9 9 10 12 12 13 14 16 16 16 17 15 15 16 16 16 17 19 18 19
14 7 22 14 10 11 5 10 7 11 12 10 9 7 9 8 11 10 10 11 13 14 12 12 14 14 13 14 16 15 14 13 13 13 14 15 16 16 15 15 13 16 17 16 17 16 18 19 18
4 15 19 12 6 5 6 8 4 5 9 8 8 8 7 7 10 8 10 11 12 13 11 13 14 15 14 15 17 18 18 16 15 13 14 15 16 15 16 16 17 21 20 17 18 17 17 16 16
7 10 4 8 6 5 2 6 6 5 6 7 7 9 4 7 9 10 10 10 12 12 11 14 14 14 14 14 16 16 16 17 16 13 12 13 14 15 15 17 20 20 17 17 17 17 17 14 14
10 18 24 13 4 5 3 5 5 5 7 6 6 10 5 5 9 11 11 11 11 10 10 13 14 14 15 13 13 15 15 15 15 12 13 14 14 16 16 18 17 15 15 15 16 16 15 15 14
11 6 14 3 3 6 1 1 8 12 6 4 6 10 6 6 7 11 11 9 8 10 11 14 13 14 15 13 12 12 14 16 16 19 18 14 14 16 17 16 15 14 14 12 13 14 13 16 17
12 1 10 8 4 1 7 6 2 6 10 3 5 7 6 6 8 11 9 10 9 9 13 13 14 13 14 12 11 10 14 15 17 19 19 18 15 14 15 15 14 13 13 12 11 11 12 15 17
15 15 10 7 2 3 5 5 6 7 11 5 4 9 8 7 5 11 9 8 10 11 14 13 12 13 11 10 10 10 14 13 17 17 16 16 16 14 13 12 11 12 10 11 11 11 12 14 18
18 14 5 0 3 3 4 8 5 5 11 10 5 8 8 8 7 8 6 8 10 12 13 8 11 16 13 10 8 12 13 13 15 15 15 13 14 13 12 9 10 10 9 10 12 13 15 16 21
20 21 9 8 7 1 7 3 14 2 14 13 8 9 9 8 7 8 5 7 12 13 13 6 9 15 12 12 9 11 11 13 13 15 17 13 13 11 11 10 9 9 10 10 12 13 17 18 22
21 23 8 10 7 5 4 5 7 8 15 16 8 10 11 11 9 8 5 5 13 11 13 12 23 17 15 16 11 14 13 14 11 13 16 14 15 11 9 12 12 12 12 13 16 17 17 20 23
23 22 14 9 8 3 2 4 3 6 9 15 11 7 9 11 11 9 3 4 11 12 12 13 16 14 14 11 12 13 13 13 12 12 14 15 17 17 15 16 15 14 17 15 18 18 20 21 22
22 17 15 13 10 5 4 3 7 9 12 14 14 9 10 14 15 12 6 4 7 11 12 10 14 14 16 17 14 14 11 12 12 12 11 16 18 20 19 19 17 16 16 16 20 21 20 20 21
17 16 19 13 11 4 5 8 7 7 9 16 16 17 14 13 12 13 9 5 6 9 10 9 14 15 15 13 12 8 12 12 10 12 11 15 18 21 22 22 20 19 21 21 21 22 20 18 19
16 17 18 14 13 7 7 11 12 10 12 13 25 19 13 15 17 14 12 7 5 8 12 10 11 16 17 16 14 14 13 13 11 11 13 14 15 19 21 24 25 23 22 22 20 18 18 18 18
20 24 22 19 17 12 12 13 12 10 9 13 29 25 17 16 16 14 14 11 9 7 8 13 12 14 15 14 13 13 14 12 12 12 12 14 14 17 18 22 24 21 20 20 19 18 16 15 14
26 27 25 19 17 16 18 18 16 10 10 13 27 15 19 17 16 13 12 11 9 5 6 9 14 12 14 17 15 14 11 12 11 11 12 13 15 15 17 19 21 19 17 18 16 17 16 13 11
29 29 27 23 22 20 21 18 21 16 14 13 19 17 19 20 20 16 14 13 12 10 8 7 9 10 13 14 14 16 11 13 12 10 12 13 14 13 14 16 18 18 15 15 12 14 12 11 11
30 30 34 27 28 27 20 22 20 17 16 17 20 21 21 19 19 19 18 17 16 14 10 9 10 10 10 14 14 14 12 10 13 10 10 11 11 12 12 12 14 14 13 15 12 13 13 11 8
32 31 28 28 27 36 16 14 9 10 8 14 22 24 22 19 19 20 20 20 18 17 15 11 11 11 10 11 15 15 12 10 11 10 8 8 9 11 12 12 12 12 11 11 12 12 13 11 10
36 32 30 26 25 22 16 19 17 9 11 12 19 29 24 23 21 22 23 22 20 19 18 15 13 12 11 10 11 14 14 13 10 9 9 8 11 10 9 10 11 13 12 13 12 12 11 10 10
34 27 28 30 23 18 23 25 17 13 10 12 15 35 28 27 25 24 23 22 20 19 19 18 15 13 13 11 9 9 14 12 11 10 9 8 6 9 10 9 9 10 11 12 11 11 12 10 10
37 30 29 31 18 14 20 17 15 16 15 14 18 29 36 43 30 27 26 22 22 24 20 19 19 16 15 14 12 10 11 12 11 10 8 8 7 7 9 9 8 10 9 9 11 10 11 11 11
45 37 40 27 19 18 24 28 17 15 14 16 17 14 32 32 34 32 32 28 25 21 22 23 21 20 18 16 15 14 13 13 14 11 8 8 6 8 10 11 11 10 10 10 11 11 10 8 8
46 42 34 27 23 19 23 21 21 21 21 19 21 16 23 33 38 39 35 25 29 22 23 23 22 20 17 16 15 15 16 15 13 13 11 9 8 6 11 11 11 10 12 10 11 12 12 11 10
42 45 39 35 32 25 24 20 18 21 24 23 23 18 23 34 21 31 33 27 30 22 20 18 20 19 17 20 18 18 17 18 18 16 14 12 11 10 12 10 10 11 12 14 13 12 11 11 12
37 40 46 40 33 32 32 30 27 21 19 24 26 20 16 11 17 22 28 17 35 29 29 18 15 18 10 23 25 25 24 23 22 21 19 17 16 15 15 12 11 10 10 12 13 14 12 12 12

GFSSGP_500_spd_111.txt.gz
Wind_Speed
6 9 1 13 18 15 10 10 7 13 12 14 10 14 15 11 13 14 12 12 9 11 12 12 11 10 10 8 9 9 9 12 15 15 15 17 17 17 18 19 20 20 21 20 20 19 19 19 19
7 3 11 18 15 13 9 13 14 13 14 15 11 10 14 15 13 12 14 11 10 11 12 11 10 10 8 7 8 9 9 11 13 13 15 17 16 16 17 17 18 17 19 21 20 19 18 18 18
5 6 12 12 12 13 12 16 15 10 12 13 14 5 12 16 12 12 12 12 10 12 12 10 10 11 8 8 9 9 10 11 13 15 15 15 16 17 16 16 17 17 18 19 19 18 18 18 18
12 7 24 16 10 12 15 16 16 10 7 8 14 11 9 17 12 13 11 11 11 12 11 11 12 13 11 9 9 11 12 12 13 15 16 15 15 15 16 15 18 17 17 17 17 17 17 19 20
10 8 22 12 5 14 10 15 14 9 6 8 12 12 12 13 12 13 11 9 10 13 11 12 13 15 15 14 14 14 14 14 14 15 15 15 15 15 14 13 15 17 17 16 17 17 17 18 18
1 18 18 10 11 10 8 9 13 8 4 6 8 12 11 9 13 13 11 11 9 11 12 13 14 15 16 16 17 16 15 15 14 14 14 15 15 16 13 16 20 19 18 17 17 17 18 17 16
9 11 15 12 9 11 13 8 8 3 3 3 5 12 9 6 12 14 12 11 10 10 11 14 15 14 16 16 16 16 15 13 12 13 14 13 15 16 16 21 20 19 18 18 17 16 17 15 15
13 13 17 14 7 12 9 9 8 3 3 4 2 9 10 8 11 14 11 10 9 10 12 14 15 15 16 16 15 14 14 12 9 10 12 13 15 17 19 18 15 16 17 17 15 16 15 15 15
10 4 9 10 4 15 16 4 3 7 6 4 3 7 10 9 12 14 14 13 11 10 11 13 14 15 14 15 16 13 13 14 12 13 13 13 13 16 16 14 13 14 16 15 14 15 13 17 15
12 2 5 6 7 3 6 7 7 12 6 7 6 7 8 8 11 15 14 13 12 11 11 11 13 15 15 14 14 13 12 16 17 17 17 16 14 14 13 13 13 13 13 15 14 14 15 19 19
13 8 5 6 4 4 2 6 2 9 11 8 7 10 9 7 12 14 15 13 10 10 11 10 10 13 15 14 13 12 13 14 16 16 17 18 14 12 12 12 12 12 12 12 13 14 16 20 21
14 10 6 2 4 4 2 4 2 4 4 12 8 10 9 8 10 13 17 12 8 8 9 10 10 13 13 13 12 13 14 12 13 15 15 15 14 12 11 10 10 11 12 12 13 16 18 20 21
17 15 13 12 4 1 4 2 9 3 5 8 5 11 10 9 9 13 15 11 10 10 7 8 9 10 11 12 11 12 13 14 12 11 13 12 11 10 11 10 9 10 11 12 15 17 19 21 21
18 18 17 14 7 3 0 4 9 7 5 9 5 6 12 10 10 13 13 11 14 12 11 13 14 12 11 11 11 12 14 13 13 10 13 11 9 9 11 12 12 12 13 14 17 20 19 19 20
18 18 18 13 9 6 5 6 11 3 8 6 8 7 12 11 10 12 11 11 13 12 12 12 11 10 11 11 13 12 13 12 13 11 12 11 12 12 12 13 14 14 15 15 18 21 20 19 19
18 20 17 13 10 7 9 4 2 6 11 7 8 11 12 11 12 15 13 10 11 13 12 12 12 11 14 10 13 14 13 13 12 11 12 11 15 16 15 17 16 16 19 18 21 21 19 17 18
18 17 16 15 13 11 8 5 5 3 3 14 8 9 12 13 15 15 16 12 11 13 14 10 13 13 10 14 12 13 12 11 11 11 13 13 16 17 18 18 19 18 19 20 21 20 19 16 16
20 19 21 16 16 13 9 8 8 7 6 8 11 13 12 14 18 15 15 13 11 12 12 11 10 11 11 13 12 10 11 11 11 12 13 13 16 17 19 21 21 21 21 20 19 18 18 16 15
23 22 21 19 22 11 12 10 8 8 7 13 17 5 15 20 19 17 17 16 12 11 10 13 10 13 12 13 14 13 11 13 13 12 13 14 17 18 19 20 21 21 19 18 18 17 16 16 15
26 26 21 17 17 17 17 15 12 12 10 9 19 13 22 19 23 19 17 15 15 12 11 12 12 13 13 12 14 13 12 13 14 11 12 13 15 16 18 19 19 17 15 15 16 17 15 14 13
29 26 24 21 24 23 17 15 18 18 15 18 17 26 19 20 23 22 18 16 17 17 15 13 13 13 15 14 14 14 15 12 13 13 10 11 12 15 15 16 18 19 16 15 15 15 14 13 12
31 25 26 25 23 26 26 21 25 16 18 20 18 20 20 24 28 24 21 21 18 17 18 14 13 14 16 16 16 14 15 12 11 12 11 10 10 12 14 15 13 15 14 15 13 12 11 10 11
30 36 31 30 32 31 30 22 20 14 16 20 16 14 17 19 27 24 24 23 21 18 17 18 15 13 15 15 15 16 16 15 13 13 11 9 7 9 10 10 12 12 11 10 14 12 12 11 9
40 37 34 35 33 36 28 27 12 10 12 15 16 24 24 24 29 28 25 25 21 20 16 16 16 15 14 16 15 15 16 16 15 13 12 10 8 7 6 7 7 11 12 10 10 11 10 10 10
43 41 37 35 34 29 24 22 25 17 16 16 13 22 29 27 28 30 23 18 21 21 19 17 17 18 16 17 15 14 15 14 14 14 12 11 10 9 8 9 8 7 8 11 11 10 9 10 9
40 44 41 41 28 18 23 23 19 22 22 18 12 13 30 30 25 25 23 20 22 22 22 21 19 18 19 17 16 14 15 16 14 14 13 12 12 11 9 9 9 9 9 8 10 10 10 9 11
40 43 39 38 35 30 27 21 20 25 21 16 12 13 23 36 27 27 28 25 28 26 25 24 22 19 18 16 15 15 17 15 17 16 16 13 13 12 11 10 11 12 12 13 11 12 11 10 10
42 41 38 43 37 31 31 23 27 22 16 15 15 12 13 36 34 32 41 35 27 28 28 26 25 23 21 18 16 15 14 13 16 17 17 15 13 14 14 13 13 14 13 13 15 15 14 13 13
45 45 45 36 36 35 30 27 23 25 23 21 20 17 12 18 32 54 46 34 30 30 29 30 29 28 26 24 22 21 20 18 17 17 16 16 16 15 17 15 14 15 16 15 15 15 15 15 16
49 49 47 43 38 38 35 28 24 23 22 24 21 22 13 16 21 27 42 37 45 35 30 27 28 32 30 29 28 27 25 23 21 21 20 18 18 17 20 18 17 16 16 16 16 16 16 17 15

GFSSGP_500_spd_114.txt.gz
Wind_Speed
10 7 3 3 10 10 8 7 8 12 14 11 9 13 16 13 12 11 8 8 11 10 10 10 10 10 10 12 13 15 14 14 15 17 18 19 19 19 21 21 21 21 20 19 19 18 18 17 17
8 5 10 11 14 11 11 9 13 17 12 13 9 12 15 13 13 11 10 10 10 9 9 9 9 9 10 11 13 15 15 14 14 16 16 18 18 18 20 20 19 18 19 19 18 16 16 15 15
6 3 15 12 13 14 12 15 14 16 10 11 13 8 12 13 15 13 11 11 9 8 10 10 10 11 11 11 14 15 14 13 14 15 16 15 17 17 18 20 19 18 18 18 17 16 16 15 15
13 20 15 15 15 17 14 11 18 14 11 10 10 9 9 11 15 14 12 12 9 9 11 12 12 12 11 11 14 17 16 14 14 16 17 16 16 17 18 18 19 18 17 18 18 18 18 17 16
9 12 21 15 17 14 12 12 15 16 14 9 8 8 9 12 12 15 14 12 9 10 13 13 14 14 14 14 14 17 16 15 15 15 16 16 17 16 19 19 19 19 19 19 19 18 17 16 16
7 20 14 19 15 12 9 10 14 15 13 9 9 9 7 13 10 16 15 12 11 11 13 14 15 16 16 16 16 16 16 15 15 14 14 14 14 13 16 19 19 20 19 20 19 17 17 15 15
6 16 14 16 16 12 10 9 9 12 11 10 8 12 8 13 8 17 15 12 11 12 13 15 16 18 18 17 16 15 15 14 14 14 14 14 13 16 22 20 19 20 20 20 17 16 17 15 14
8 20 18 12 18 14 11 10 7 2 9 10 8 8 10 11 8 16 15 12 11 13 13 15 17 19 19 18 16 14 13 13 14 15 14 14 15 19 19 19 18 18 18 18 16 16 16 15 15
11 9 8 5 15 14 9 4 7 6 9 12 9 6 11 10 9 16 16 13 11 12 12 15 16 18 18 18 16 15 11 12 15 15 14 15 15 17 15 15 17 15 16 16 16 15 17 18 17
5 4 6 8 7 5 15 9 6 7 7 10 11 10 11 11 9 15 14 13 13 12 12 14 15 17 17 17 16 16 16 18 16 15 15 15 14 14 14 15 15 14 14 15 15 16 18 20 22
6 4 2 3 7 4 10 4 4 5 7 8 9 11 12 9 9 13 15 13 13 12 11 12 13 14 16 15 17 16 16 17 16 16 16 15 13 13 13 15 15 14 14 13 15 17 19 21 24
9 6 4 3 11 4 3 3 4 7 8 8 9 8 14 10 9 10 11 13 12 9 12 10 13 13 16 16 16 16 15 15 15 13 14 16 13 12 12 13 14 14 14 15 16 19 20 21 22
10 9 7 6 12 3 5 5 11 4 10 12 9 8 11 12 8 7 9 11 12 9 9 14 13 12 13 16 15 16 15 14 12 11 12 14 11 10 12 12 14 14 15 17 16 19 20 19 20
12 11 9 5 7 2 0 3 3 6 6 11 8 8 9 13 10 8 13 12 10 10 8 9 12 11 12 12 13 14 14 13 11 9 9 11 11 10 10 11 13 14 14 17 18 19 18 18 19
16 14 10 8 8 5 4 5 7 4 4 6 6 8 9 10 10 10 14 13 12 15 15 8 12 11 13 12 14 13 13 12 10 8 10 10 13 12 11 11 14 15 15 17 19 19 18 18 17
18 16 13 12 11 8 6 4 6 7 6 12 7 9 13 11 13 12 13 13 12 13 13 10 8 10 9 13 15 12 13 13 11 11 12 10 14 15 14 14 15 16 19 20 19 19 17 16 17
18 17 14 13 15 12 8 5 5 6 2 11 9 14 12 13 12 10 13 14 11 11 13 12 14 15 12 12 15 14 13 12 10 10 12 12 13 16 16 17 19 18 19 19 19 19 18 15 16
20 18 17 16 18 15 16 10 9 7 8 1 9 15 13 17 15 14 14 14 12 11 12 13 11 11 11 12 13 12 11 12 10 10 11 15 15 15 17 18 20 19 19 17 17 17 18 16 16
24 19 16 16 16 16 13 11 9 11 11 8 3 4 16 19 19 18 18 16 15 12 12 13 10 11 11 10 12 12 13 12 12 10 12 15 16 18 18 19 19 19 18 16 15 16 17 15 15
26 22 18 16 19 21 18 17 12 10 10 7 10 9 11 15 19 19 19 18 17 17 14 14 14 10 11 12 13 12 12 14 12 12 12 13 16 18 17 16 17 16 16 15 14 16 16 14 13
27 24 21 22 21 20 21 19 17 16 10 13 10 12 18 22 20 24 19 19 18 19 16 15 15 11 12 12 12 13 14 13 13 12 12 13 13 13 14 13 14 15 14 14 15 15 15 14 13
28 27 28 26 25 24 22 25 17 17 17 17 15 22 20 19 26 27 23 21 19 19 18 15 15 14 12 13 12 12 15 13 11 12 14 13 13 11 12 11 12 12 13 13 13 14 14 14 12
32 32 31 30 27 27 23 25 25 21 16 17 20 18 19 21 25 26 26 25 20 19 19 17 15 18 15 15 12 13 13 15 14 12 14 14 13 12 11 10 9 9 9 9 11 11 13 13 13
36 37 35 32 32 32 25 26 18 17 14 22 23 20 15 22 23 28 27 24 23 21 20 20 18 18 17 15 16 14 13 14 15 13 13 14 14 14 12 12 10 9 8 8 8 9 10 11 12
37 40 39 35 39 34 30 33 26 21 21 14 14 23 21 24 24 28 30 26 25 25 23 22 19 17 18 19 18 18 17 16 15 15 14 13 14 15 15 14 13 12 11 9 8 8 7 7 10
34 41 41 41 38 30 32 35 28 24 19 21 17 18 22 24 30 27 27 27 28 28 27 24 24 20 18 19 18 18 19 17 17 15 14 14 14 12 11 12 13 14 14 13 11 9 7 7 8
37 43 42 39 36 34 34 30 28 22 20 18 20 17 16 18 26 25 23 26 28 28 28 28 26 25 22 21 19 17 19 19 19 17 15 15 15 14 13 12 13 13 14 15 15 13 11 9 9
35 37 43 44 42 38 39 27 21 20 18 19 19 15 13 13 28 27 30 34 32 32 31 29 27 25 24 23 23 20 21 19 19 19 18 15 15 14 14 14 14 15 14 14 14 14 14 12 12
36 37 40 37 41 41 39 35 28 22 21 22 22 17 12 7 20 29 32 31 32 33 31 30 29 27 26 26 25 25 22 21 21 19 20 17 17 16 17 16 16 16 16 17 17 17 16 15 15
39 40 40 42 40 41 42 36 29 27 25 25 23 19 16 12 11 21 19 39 40 38 33 35 32 33 32 31 29 28 26 25 24 23 22 21 20 19 19 18 18 18 18 18 18 18 18 18 18

GFSSGP_500_spd_117.txt.gz
Wind_Speed
11 8 9 6 8 11 6 8 16 12 13 12 8 10 12 12 12 12 12 10 11 11 10 8 9 10 11 13 15 17 18 17 17 16 15 16 17 18 18 24 24 20 20 18 17 16 16 16 15
8 10 5 11 12 11 10 11 13 12 13 13 8 8 10 11 11 11 12 11 11 9 8 6 8 10 11 13 15 17 18 17 17 16 16 17 18 23 22 21 19 18 19 18 17 16 16 15 14
8 4 9 10 11 14 16 16 11 12 15 11 9 7 9 10 12 12 12 11 11 9 9 7 8 10 13 15 15 15 15 15 16 17 17 17 19 18 20 20 19 18 17 16 15 16 14 14 14
7 15 14 10 14 16 16 16 16 15 14 11 10 7 8 9 12 13 14 11 11 11 11 10 10 11 13 15 16 15 15 15 15 17 18 17 16 17 22 20 19 18 17 16 17 16 17 16 16
15 29 19 16 15 15 14 14 13 15 15 11 9 7 9 9 13 15 14 13 11 12 14 13 14 13 13 15 16 15 15 16 16 17 17 16 18 18 19 20 20 19 19 19 18 17 16 15 15
21 25 20 15 15 17 14 15 14 14 14 12 11 9 8 9 11 16 15 13 11 13 15 16 17 17 16 17 17 16 14 16 15 16 15 13 15 18 18 18 19 20 19 18 16 16 16 16 16
10 11 19 15 14 15 14 14 13 12 14 13 10 11 8 10 11 15 16 13 11 14 16 17 19 20 19 18 17 16 15 15 16 15 14 13 13 18 19 19 19 19 18 16 16 15 15 15 15
12 11 13 15 13 13 9 13 14 10 13 14 11 8 8 12 12 13 15 13 11 13 16 18 20 20 20 18 18 16 15 15 16 15 14 14 20 19 18 19 19 17 16 15 16 15 15 15 14
4 11 15 16 16 12 8 7 10 10 10 15 11 9 7 11 13 12 14 14 12 13 16 18 19 19 19 18 15 14 16 16 15 15 16 18 18 17 16 17 17 16 15 15 14 16 17 18 17
1 8 6 15 19 11 9 7 12 11 8 14 14 12 8 12 12 10 12 14 14 12 15 18 16 18 17 18 18 16 17 16 16 17 17 17 17 15 13 14 14 14 14 14 15 17 19 21 21
4 6 3 11 12 10 11 8 13 13 10 10 13 15 11 10 10 10 11 14 14 12 14 16 15 17 16 18 20 19 18 16 17 17 18 17 16 16 15 12 13 12 12 14 17 19 20 21 21
7 3 7 10 13 6 4 10 6 14 11 13 10 14 14 11 7 8 9 12 13 13 13 15 16 16 16 16 18 18 17 15 16 17 17 16 17 16 15 12 12 11 13 14 16 19 20 19 18
8 7 6 3 6 4 5 10 13 11 11 13 12 13 15 11 9 6 6 8 13 14 15 15 16 16 16 15 15 16 15 15 15 15 14 15 15 15 15 13 13 12 15 16 17 18 18 17 18
11 8 5 6 3 4 4 11 6 10 17 12 16 14 13 12 12 8 6 7 11 13 11 14 15 15 14 16 15 14 13 13 13 12 12 13 13 13 14 13 13 15 16 17 17 17 16 17 19
14 11 8 6 2 4 6 9 9 13 14 14 15 13 13 13 11 9 6 7 12 16 14 15 15 15 14 15 15 13 12 11 12 11 10 11 12 12 14 14 14 16 17 17 16 17 17 17 17
16 14 11 8 7 7 7 9 10 9 8 7 10 12 13 14 11 10 8 8 11 12 12 11 13 15 14 15 14 14 13 12 13 12 11 13 13 14 15 15 16 18 18 17 16 17 17 17 17
18 16 15 12 12 12 7 8 5 7 6 10 7 7 12 14 14 12 12 10 11 12 11 11 14 14 15 15 15 14 13 13 13 12 14 14 13 14 15 18 18 19 18 17 17 18 17 17 17
19 18 15 14 13 13 9 6 6 3 11 9 7 12 15 17 18 16 14 13 12 12 13 16 12 13 15 15 14 13 12 13 14 14 14 14 14 15 15 18 19 19 18 18 17 18 17 16 18
24 19 17 17 15 15 14 13 11 10 11 6 4 5 15 16 18 18 15 14 13 12 14 12 12 13 14 13 12 9 10 13 14 15 14 14 15 16 15 17 17 17 18 18 16 16 14 15 17
24 21 20 18 17 17 18 15 13 15 13 10 8 8 8 16 19 18 18 17 14 12 12 13 14 13 16 14 12 12 11 13 14 14 14 14 15 17 16 16 17 16 17 17 15 15 13 13 14
25 23 22 20 19 20 21 19 18 16 15 14 13 14 6 17 19 20 20 19 17 14 12 12 13 13 15 16 13 11 13 13 13 13 13 15 15 14 16 15 15 15 16 16 14 13 12 12 11
28 26 25 24 23 22 21 23 21 20 20 14 16 13 15 12 19 24 23 22 21 18 17 15 15 13 14 17 15 14 12 13 13 13 13 14 15 14 12 12 12 15 16 16 15 13 12 11 11
28 29 29 29 28 27 25 21 21 21 14 9 17 12 14 17 16 26 27 26 24 22 19 18 18 17 13 14 16 16 14 13 13 13 13 13 14 14 13 12 11 11 12 13 13 12 13 12 12
34 33 33 32 32 31 28 24 19 14 16 13 9 14 16 15 14 28 27 23 22 24 22 22 21 20 17 15 15 17 15 15 14 15 15 14 14 14 14 13 12 10 9 10 10 11 11 12 12
37 36 36 35 36 33 28 28 19 19 13 10 10 9 18 14 16 24 25 25 24 24 25 24 23 23 20 18 16 16 16 16 17 17 16 15 15 14 14 14 14 13 11 10 11 10 10 10 11
33 35 38 38 36 30 31 33 26 25 22 19 16 14 14 18 18 22 28 27 25 26 26 26 25 25 24 21 20 17 15 16 17 17 16 15 16 15 15 14 13 14 15 13 13 13 11 10 10
34 37 37 38 35 33 35 31 25 26 22 20 17 18 15 15 20 25 28 29 26 29 27 27 27 26 25 23 20 18 18 17 17 16 17 18 17 15 15 14 13 13 14 15 15 14 13 12 11
34 33 37 40 38 35 35 32 24 19 18 15 19 19 17 18 22 25 28 30 30 31 31 27 27 26 25 24 22 20 21 20 19 19 18 18 18 16 16 16 15 14 14 15 16 16 14 13 12
34 35 37 38 37 36 34 29 21 19 15 16 21 21 18 19 18 29 31 36 33 33 33 33 29 27 26 26 25 24 22 22 22 22 21 21 19 18 17 16 15 15 15 15 15 16 16 15 14
34 33 33 36 38 38 38 32 25 26 26 21 19 22 19 18 10 8 19 32 33 36 34 36 37 33 31 29 28 27 26 25 26 25 24 23 19 20 19 18 16 15 16 17 17 17 17 16 16

GFSSGP_500_spd_120.txt.gz
Wind_Speed
9 12 7 11 11 8 8 14 17 11 11 12 7 6 8 9 11 12 11 11 10 8 10 9 8 10 12 14 18 16 16 11 13 13 12 11 14 21 23 22 20 18 17 17 16 15 13 13 13
7 8 13 14 10 7 11 14 13 12 13 12 6 7 8 9 10 11 12 10 8 7 8 8 8 9 12 13 15 14 13 12 13 13 14 15 20 22 24 25 20 17 17 16 16 15 14 13 14
9 4 11 12 9 13 15 14 13 10 13 11 5 6 8 8 9 11 12 9 8 7 7 7 9 11 12 15 15 14 12 12 13 12 12 14 24 25 24 20 19 17 18 17 15 15 14 14 14
7 11 13 13 10 15 16 16 16 12 14 12 7 7 8 8 10 11 12 11 10 8 7 8 10 12 14 16 15 13 11 12 13 11 12 16 24 23 20 19 18 17 17 18 17 16 15 15 15
6 24 16 12 13 13 15 14 13 13 14 14 8 7 8 9 11 11 12 13 11 10 10 9 11 13 14 16 15 15 13 12 12 12 17 19 20 21 18 19 18 16 18 18 17 16 15 15 15
25 19 17 14 15 15 15 14 13 13 13 14 10 6 9 10 11 11 13 13 12 12 13 12 14 14 15 16 16 16 15 13 13 12 16 17 19 18 17 17 18 16 17 16 14 13 14 14 13
20 13 15 17 17 16 14 13 12 13 13 13 11 8 10 11 13 11 13 13 13 14 15 16 16 17 17 17 16 16 16 14 14 12 14 15 18 18 18 17 16 15 14 13 12 13 13 13 13
11 11 15 14 15 16 15 16 12 10 12 13 10 8 10 11 14 11 14 13 13 15 16 17 18 17 17 18 17 16 16 14 13 13 12 15 17 17 17 16 15 14 13 12 11 12 13 13 12
9 5 12 15 15 14 13 11 12 12 10 13 13 11 8 10 12 12 13 14 14 15 16 16 19 17 17 16 16 16 16 15 14 15 19 18 17 17 17 16 14 12 11 10 10 12 13 13 14
4 7 13 18 16 13 10 13 12 11 10 13 15 14 8 10 12 11 11 13 13 15 15 15 16 17 16 15 16 15 14 15 14 17 18 18 18 17 16 14 13 11 11 11 13 14 15 16 18
6 5 9 19 12 10 13 12 14 10 10 9 12 15 10 9 12 12 11 12 13 14 14 15 17 16 15 15 16 17 16 15 15 17 17 16 16 17 15 13 12 11 12 12 15 17 17 17 19
8 7 14 13 10 10 12 11 13 13 11 11 8 11 14 10 11 11 10 10 12 13 14 15 16 16 16 16 17 17 17 17 17 16 16 15 16 15 14 13 12 12 14 15 17 17 18 18 19
11 13 13 10 9 7 8 13 10 17 13 15 13 11 14 12 12 11 11 9 14 13 15 15 16 15 15 15 16 17 17 17 17 16 16 15 14 14 14 12 12 13 16 16 16 16 17 20 20
15 15 10 7 5 5 8 12 15 13 14 16 17 12 12 13 10 9 11 10 15 15 15 15 17 15 15 15 14 15 16 16 15 15 14 14 13 13 13 13 14 14 15 15 15 16 17 19 20
17 15 13 10 5 7 8 15 22 15 17 15 15 12 12 13 10 9 9 10 13 15 15 13 15 15 15 14 13 13 13 13 13 13 12 12 12 13 13 13 13 14 16 16 15 16 18 19 20
19 16 13 10 9 6 7 10 12 14 17 14 14 12 12 12 11 11 9 11 15 15 15 13 14 15 15 13 14 14 14 13 13 13 13 13 12 14 13 14 15 15 16 16 16 17 18 19 19
19 16 13 13 11 4 3 11 12 12 13 14 14 15 13 13 13 11 9 9 10 12 13 13 13 14 14 14 13 14 14 14 13 13 14 14 14 14 15 15 16 16 17 18 17 17 17 18 19
19 19 16 13 13 7 10 9 9 9 13 18 15 16 16 15 14 12 10 9 11 11 13 15 12 13 14 14 13 12 13 13 13 14 15 15 15 16 16 16 15 17 17 18 17 17 17 17 18
25 19 18 17 12 12 11 7 8 13 10 18 14 14 17 15 15 15 12 11 12 14 16 12 14 14 14 14 12 11 13 14 14 14 14 16 16 16 16 17 16 16 17 17 16 16 15 16 17
23 19 19 19 18 16 13 10 8 11 9 7 10 13 12 18 17 16 16 14 13 14 14 14 15 15 14 13 13 13 12 13 12 14 15 15 15 17 17 17 15 15 16 16 15 14 13 14 15
25 23 22 21 18 17 18 15 14 13 9 10 12 17 8 7 19 18 18 18 15 15 14 14 15 16 14 13 13 15 14 14 14 14 15 16 15 16 17 17 16 16 16 15 15 13 12 12 13
28 27 24 22 18 15 19 14 18 17 16 12 13 11 9 11 21 19 18 19 18 17 17 15 15 16 16 13 13 15 14 13 13 13 14 15 16 15 14 14 15 16 15 14 14 12 12 11 12
34 30 27 26 25 22 21 18 21 17 19 19 9 15 12 18 18 16 21 22 20 17 17 16 16 17 17 15 14 14 14 15 14 12 13 13 13 15 13 12 13 14 13 12 13 13 11 10 11
34 32 31 27 26 25 23 20 19 12 10 18 6 10 17 12 10 11 27 26 22 22 19 19 17 17 19 18 17 16 14 14 14 14 14 13 13 12 13 13 12 13 13 11 10 11 10 10 10
34 33 29 30 30 22 27 25 20 15 8 2 5 6 6 12 13 13 18 28 25 25 22 20 19 18 17 18 18 17 17 16 15 15 15 14 13 12 12 12 11 11 11 11 11 11 10 9 9
37 34 26 23 21 22 29 28 26 20 16 13 12 11 10 9 14 10 21 28 25 25 24 22 22 21 19 18 18 18 17 16 16 16 15 15 14 14 14 13 11 10 10 11 11 11 11 10 9
38 41 35 28 23 24 25 32 26 25 22 21 19 16 14 10 11 17 18 24 28 27 26 25 24 24 23 19 19 19 17 16 17 17 17 16 15 14 13 13 13 14 14 14 13 13 12 11 10
40 38 36 39 24 24 25 26 19 22 18 17 17 19 17 15 13 13 22 26 30 30 27 26 26 26 25 24 22 21 19 18 17 16 17 18 17 17 15 14 14 13 14 13 14 14 14 12 12
34 35 39 25 29 22 22 22 26 24 19 14 17 17 17 16 16 15 20 31 33 34 32 30 29 29 28 27 25 24 22 21 19 19 18 17 17 17 16 16 16 14 13 14 15 14 14 13 13
31 31 33 32 26 31 25 21 26 21 19 16 12 15 18 17 17 17 18 32 30 36 33 32 33 30 30 29 28 27 25 23 23 22 20 19 18 18 17 17 16 15 15 15 14 14 15 15 15